Darstellungsparameter: Aktuell verwendete Einstellungen:
Skalierung der Graphiken ... ?
xyx+y,   Skalierungsfaktor:      Skalierung: Modus: x, Faktor: 1
Darstellungszeitraum ... ?
Vom - - bis: - -   Zeitraum: 18.01.2015 - 17.07.2015
Min/Max/Avg-Anzeige ... ?
Zeige MMA aktuell
Zeige MMA Monat
Zeige MMA alles
Zeige --A aktuell
Zeige --A Monat
Zeige --A alles
Keine MMA-Anzeige
MMA:
Average (ber die Originaldaten)
MMA-Basis: 23.02.2003 - 03.08.2020
Quicknavigation für Darstellung... ?
Tage:      1T, 2T, 3T, 5T -1T -2T -3T -5T +1T +2T +3T +5T
Wochen: 1W, 2W, 3W -1W -2W -3W +1W +2W +3W
Monate: 1M, 3M, 6M -1M -3M -6M +1M +3M +6M
Jahre:    1J, 3J, 5J, 10J -1J -3J -5J -10J +1J +3J +5J +10J
Nutze für die Darstellung ... ?
Originaldaten oder ...
Mittelwerte Minima Maxima auf...
Stundenbasis Tagesbasis Wochenbasis
Monatsbasis Jahresbasis      Datenbasis: Mittelwerte auf Stundenbasis
Darstellen als:
Statistik (Auto) Statistik J:M      Darstellung:
Zur Graphik,    zurück zur Übersicht aller Sensoren.
 
Tabellarische Datenbersicht: ?
 
Sensor: Nr:Datum:Temp:Abs-Feuchte:Windchill:Wind:
Aussen-T/F 1 18-01-2015 00:00:00 2.00833 C 4.71 g/m*3 -0.01 C 6.83333 km/h
2 18-01-2015 01:00:00 1.49167 C 4.67 g/m*3 0 C 5.225 km/h
3 18-01-2015 02:00:00 2.35 C 4.77 g/m*3 -0.28 C 9.10833 km/h
4 18-01-2015 03:00:00 2.625 C 4.73 g/m*3 0.29 C 8.19167 km/h
5 18-01-2015 04:00:00 2.39167 C 4.62 g/m*3 2.39 C 4.43333 km/h
6 18-01-2015 05:00:00 0.85 C 4.58 g/m*3 0.85 C 2 km/h
7 18-01-2015 06:00:00 0.6 C 4.57 g/m*3 0.6 C 3.33333 km/h
8 18-01-2015 07:00:00 1.11667 C 4.61 g/m*3 1.12 C 1.46667 km/h
9 18-01-2015 08:00:00 1.34167 C 4.58 g/m*3 1.34 C 2.53333 km/h
10 18-01-2015 09:00:00 1.56667 C 4.67 g/m*3 1.57 C 1.33333 km/h
11 18-01-2015 10:00:00 3.13333 C 4.78 g/m*3 3.13 C 4.14167 km/h
12 18-01-2015 11:00:00 4.44167 C 4.86 g/m*3 3.17 C 5.75833 km/h
13 18-01-2015 12:00:00 5.175 C 4.9 g/m*3 3.29 C 8.2 km/h
14 18-01-2015 13:00:00 5.35 C 4.92 g/m*3 4.07 C 6.175 km/h
15 18-01-2015 14:00:00 5.21667 C 5.05 g/m*3 4.3 C 5.08333 km/h
16 18-01-2015 15:00:00 4.74167 C 5.08 g/m*3 4.74 C 1.46667 km/h
17 18-01-2015 16:00:00 3.375 C 5 g/m*3 3.38 C 1.46667 km/h
18 18-01-2015 17:00:00 1.56667 C 4.73 g/m*3 1.57 C 2.93333 km/h
19 18-01-2015 18:00:00 0.525 C 4.53 g/m*3 0.53 C 3.33333 km/h
20 18-01-2015 19:00:00 -0.13333 C 4.38 g/m*3 -0.13 C 3.06667 km/h
21 18-01-2015 20:00:00 -0.58333 C 4.27 g/m*3 -0.58 C 2 km/h
22 18-01-2015 21:00:00 -0.95 C 4.22 g/m*3 -0.95 C 0 km/h
23 18-01-2015 22:00:00 -1.2 C 4.19 g/m*3 -1.2 C 2 km/h
24 18-01-2015 23:00:00 -1.13333 C 4.24 g/m*3 -1.13 C 1.6 km/h
25 19-01-2015 00:00:00 0.09167 C 4.59 g/m*3 -2.14 C 6.575 km/h
Sensor: Nr:Datum:Temp:Abs-Feuchte:Windchill:Wind:
Aussen-T/F 26 19-01-2015 01:00:00 0.15 C 4.51 g/m*3 0.15 C 4.81667 km/h
27 19-01-2015 02:00:00 0.13333 C 4.55 g/m*3 0.13 C 1.6 km/h
28 19-01-2015 03:00:00 0.38333 C 4.68 g/m*3 0.38 C 0 km/h
29 19-01-2015 04:00:00 0.6 C 4.74 g/m*3 0.6 C 0.53333 km/h
30 19-01-2015 05:00:00 0.7 C 4.73 g/m*3 0.7 C 0.13333 km/h
31 19-01-2015 06:00:00 0.7 C 4.73 g/m*3 0.7 C 0 km/h
32 19-01-2015 07:00:00 0.76667 C 4.75 g/m*3 0.77 C 0 km/h
33 19-01-2015 08:00:00 0.73333 C 4.74 g/m*3 0.73 C 0 km/h
34 19-01-2015 09:00:00 0.875 C 4.72 g/m*3 0.88 C 0.26667 km/h
35 19-01-2015 10:00:00 1.43333 C 4.66 g/m*3 1.43 C 4.55 km/h
36 19-01-2015 11:00:00 1.76667 C 4.68 g/m*3 1.77 C 2.93333 km/h
37 19-01-2015 12:00:00 1.9 C 4.61 g/m*3 0.48 C 5.2 km/h
38 19-01-2015 13:00:00 2.01667 C 4.57 g/m*3 0.14 C 6.43333 km/h
39 19-01-2015 14:00:00 2.15833 C 4.59 g/m*3 2.16 C 3.6 km/h
40 19-01-2015 15:00:00 2.16667 C 4.57 g/m*3 2.17 C 1.46667 km/h
41 19-01-2015 16:00:00 1.84167 C 4.56 g/m*3 1.84 C 1.46667 km/h
42 19-01-2015 17:00:00 0.925 C 4.51 g/m*3 0.93 C 0.26667 km/h
43 19-01-2015 18:00:00 0.10833 C 4.44 g/m*3 0.11 C 0.66667 km/h
44 19-01-2015 19:00:00 0.11667 C 4.45 g/m*3 0.12 C 0.13333 km/h
45 19-01-2015 20:00:00 0.425 C 4.46 g/m*3 0.43 C 1.46667 km/h
46 19-01-2015 21:00:00 0.4 C 4.47 g/m*3 0.4 C 0 km/h
47 19-01-2015 22:00:00 0.58333 C 4.51 g/m*3 0.58 C 3.6 km/h
48 19-01-2015 23:00:00 0.39167 C 4.59 g/m*3 0.39 C 3.06667 km/h
49 20-01-2015 00:00:00 0.23333 C 4.63 g/m*3 0.23 C 0.66667 km/h
50 20-01-2015 01:00:00 0.23333 C 4.63 g/m*3 0.23 C 0.26667 km/h
Sensor: Nr:Datum:Temp:Abs-Feuchte:Windchill:Wind:
Aussen-T/F 51 20-01-2015 02:00:00 0.34167 C 4.67 g/m*3 0.34 C 0.66667 km/h
52 20-01-2015 03:00:00 0.4 C 4.73 g/m*3 0.4 C 0 km/h
53 20-01-2015 04:00:00 0.425 C 4.74 g/m*3 0.43 C 0 km/h
54 20-01-2015 05:00:00 0.51667 C 4.77 g/m*3 0.52 C 0 km/h
55 20-01-2015 06:00:00 0.5 C 4.76 g/m*3 0.5 C 0 km/h
56 20-01-2015 07:00:00 0.39167 C 4.73 g/m*3 0.39 C 0.26667 km/h
57 20-01-2015 08:00:00 0.55833 C 4.74 g/m*3 0.56 C 0 km/h
58 20-01-2015 09:00:00 0.79167 C 4.81 g/m*3 0.79 C 0.26667 km/h
59 20-01-2015 10:00:00 1.26667 C 4.85 g/m*3 1.27 C 1.46667 km/h
60 20-01-2015 11:00:00 1.71667 C 4.88 g/m*3 1.72 C 3.06667 km/h
61 20-01-2015 12:00:00 2.15 C 4.86 g/m*3 2.15 C 2.93333 km/h
62 20-01-2015 13:00:00 2.40833 C 4.91 g/m*3 2.41 C 4.41667 km/h
63 20-01-2015 14:00:00 2.08333 C 4.82 g/m*3 0.16 C 6.575 km/h
64 20-01-2015 15:00:00 1.91667 C 4.83 g/m*3 1.92 C 4.13333 km/h
65 20-01-2015 16:00:00 1.74167 C 4.8 g/m*3 1.74 C 0.26667 km/h
66 20-01-2015 17:00:00 1.25833 C 4.75 g/m*3 1.26 C 0 km/h
67 20-01-2015 18:00:00 1.10833 C 4.74 g/m*3 1.11 C 0.26667 km/h
68 20-01-2015 19:00:00 1.1 C 4.69 g/m*3 1.1 C 0.53333 km/h
69 20-01-2015 20:00:00 0.31667 C 4.43 g/m*3 0.32 C 2.93333 km/h
70 20-01-2015 21:00:00 0.20833 C 4.38 g/m*3 0.21 C 0.4 km/h
71 20-01-2015 22:00:00 -0.125 C 4.13 g/m*3 -0.13 C 2 km/h
72 20-01-2015 23:00:00 -0.83333 C 3.89 g/m*3 -0.83 C 0.8 km/h
73 21-01-2015 00:00:00 -1.38333 C 3.87 g/m*3 -1.38 C 0 km/h
74 21-01-2015 01:00:00 -1.85833 C 3.79 g/m*3 -1.86 C 0 km/h
75 21-01-2015 02:00:00 -1.94167 C 3.8 g/m*3 -1.94 C 0 km/h
Sensor: Nr:Datum:Temp:Abs-Feuchte:Windchill:Wind:
Aussen-T/F 76 21-01-2015 03:00:00 -2.19167 C 3.81 g/m*3 -2.19 C 0 km/h
77 21-01-2015 04:00:00 -1.99167 C 3.88 g/m*3 -1.99 C 0 km/h
78 21-01-2015 05:00:00 -1.96667 C 3.92 g/m*3 -1.97 C 0 km/h
79 21-01-2015 06:00:00 -1.90833 C 3.91 g/m*3 -1.91 C 0 km/h
80 21-01-2015 07:00:00 -2.60833 C 3.73 g/m*3 -2.61 C 0 km/h
81 21-01-2015 08:00:00 -2.74167 C 3.73 g/m*3 -2.74 C 0 km/h
82 21-01-2015 09:00:00 -1.84444 C 4.01 g/m*3 -1.84 C 0 km/h
83 21-01-2015 10:00:00 -0.20833 C 4.32 g/m*3 -0.21 C 2.13333 km/h
84 21-01-2015 11:00:00 0.61667 C 4.34 g/m*3 0.62 C 4.4 km/h
85 21-01-2015 12:00:00 1.04167 C 4.38 g/m*3 1.04 C 4.96667 km/h
86 21-01-2015 13:00:00 1.26667 C 4.48 g/m*3 -1.01 C 7.24167 km/h
87 21-01-2015 14:00:00 1.78333 C 4.58 g/m*3 -0.62 C 7.93333 km/h
88 21-01-2015 15:00:00 2.06667 C 4.63 g/m*3 0.5 C 5.61667 km/h
89 21-01-2015 16:00:00 1.93333 C 4.61 g/m*3 1.93 C 3.6 km/h
90 21-01-2015 17:00:00 1.66667 C 4.64 g/m*3 1.67 C 1.06667 km/h
91 21-01-2015 18:00:00 1.375 C 4.66 g/m*3 1.38 C 0 km/h
92 21-01-2015 19:00:00 1.45 C 4.75 g/m*3 1.45 C 0.4 km/h
93 21-01-2015 20:00:00 1.48333 C 4.78 g/m*3 1.48 C 0.26667 km/h
94 21-01-2015 21:00:00 1.44167 C 4.81 g/m*3 1.44 C 0.66667 km/h
95 21-01-2015 22:00:00 1.48333 C 4.83 g/m*3 1.48 C 0.4 km/h
96 21-01-2015 23:00:00 1.59167 C 4.84 g/m*3 1.59 C 0.53333 km/h
97 22-01-2015 00:00:00 1.7 C 4.75 g/m*3 1.7 C 1.46667 km/h
98 22-01-2015 01:00:00 1.66667 C 4.69 g/m*3 1.67 C 0.66667 km/h
99 22-01-2015 02:00:00 1.61667 C 4.62 g/m*3 1.62 C 1.46667 km/h
100 22-01-2015 03:00:00 1.6 C 4.51 g/m*3 1.6 C 1.86667 km/h
Sensor: Nr:Datum:Temp:Abs-Feuchte:Windchill:Wind:
Aussen-T/F 101 22-01-2015 04:00:00 1.30833 C 4.49 g/m*3 1.31 C 4.15833 km/h
102 22-01-2015 05:00:00 1.1 C 4.46 g/m*3 1.1 C 1.46667 km/h
103 22-01-2015 06:00:00 1.1 C 4.46 g/m*3 1.1 C 2.275 km/h
104 22-01-2015 07:00:00 1.00833 C 4.41 g/m*3 1.01 C 3.34167 km/h
105 22-01-2015 08:00:00 0.75 C 4.35 g/m*3 -1.44 C 6.73333 km/h
106 22-01-2015 09:00:00 0.7 C 4.37 g/m*3 -0.96 C 5.375 km/h
107 22-01-2015 10:00:00 0.74167 C 4.34 g/m*3 -1.24 C 6.16667 km/h
108 22-01-2015 11:00:00 1.025 C 4.41 g/m*3 -1.39 C 7.525 km/h
109 22-01-2015 12:00:00 1.39167 C 4.47 g/m*3 -1.16 C 8.2 km/h
110 22-01-2015 13:00:00 1.525 C 4.48 g/m*3 -0.33 C 6.16667 km/h
111 22-01-2015 14:00:00 1.80833 C 4.52 g/m*3 0.31 C 5.35833 km/h
112 22-01-2015 15:00:00 1.9 C 4.53 g/m*3 1.9 C 4.81667 km/h
113 22-01-2015 16:00:00 1.9 C 4.55 g/m*3 1.9 C 0.8 km/h
114 22-01-2015 17:00:00 1.78333 C 4.6 g/m*3 1.78 C 1.06667 km/h
115 22-01-2015 18:00:00 1.8 C 4.64 g/m*3 1.8 C 1.46667 km/h
116 22-01-2015 19:00:00 1.8 C 4.61 g/m*3 1.8 C 1.2 km/h
117 22-01-2015 20:00:00 1.775 C 4.62 g/m*3 1.78 C 0.8 km/h
118 22-01-2015 21:00:00 1.63333 C 4.69 g/m*3 1.63 C 0 km/h
119 22-01-2015 22:00:00 1.6 C 4.73 g/m*3 1.6 C 0 km/h
120 22-01-2015 23:00:00 1.71667 C 4.76 g/m*3 1.72 C 2.95 km/h
121 23-01-2015 00:00:00 1.7 C 4.75 g/m*3 -0.08 C 6.025 km/h
122 23-01-2015 01:00:00 1.675 C 4.81 g/m*3 1.68 C 4.14167 km/h
123 23-01-2015 02:00:00 1.6 C 4.84 g/m*3 1.6 C 1.33333 km/h
124 23-01-2015 03:00:00 1.63333 C 4.88 g/m*3 1.63 C 2.13333 km/h
125 23-01-2015 04:00:00 1.65833 C 4.91 g/m*3 1.66 C 3.34167 km/h
Sensor: Nr:Datum:Temp:Abs-Feuchte:Windchill:Wind:
Aussen-T/F 126 23-01-2015 05:00:00 1.6 C 4.91 g/m*3 1.6 C 1.73333 km/h
127 23-01-2015 06:00:00 1.6 C 4.88 g/m*3 1.6 C 1.2 km/h
128 23-01-2015 07:00:00 1.60833 C 4.86 g/m*3 1.61 C 1.6 km/h
129 23-01-2015 08:00:00 1.6 C 4.84 g/m*3 1.6 C 2.93333 km/h
130 23-01-2015 09:00:00 1.51667 C 4.81 g/m*3 1.52 C 1.06667 km/h
131 23-01-2015 10:00:00 1.525 C 4.86 g/m*3 1.53 C 3.075 km/h
132 23-01-2015 11:00:00 2.35833 C 5.02 g/m*3 2.36 C 2.66667 km/h
133 23-01-2015 12:00:00 2.875 C 5.04 g/m*3 1.27 C 6.025 km/h
134 23-01-2015 13:00:00 3.18333 C 5.08 g/m*3 1.58 C 6.16667 km/h
135 23-01-2015 14:00:00 2.91667 C 5.01 g/m*3 1.42 C 5.75 km/h
136 23-01-2015 15:00:00 2.725 C 4.96 g/m*3 1.09 C 6.05 km/h
137 23-01-2015 16:00:00 2.09167 C 4.82 g/m*3 2.09 C 4.14167 km/h
138 23-01-2015 17:00:00 0.54167 C 4.54 g/m*3 0.54 C 3.33333 km/h
139 23-01-2015 18:00:00 -0.05833 C 4.45 g/m*3 -0.06 C 2.4 km/h
140 23-01-2015 19:00:00 -0.225 C 4.44 g/m*3 -0.23 C 0.93333 km/h
141 23-01-2015 20:00:00 -0.46667 C 4.4 g/m*3 -0.47 C 0.13333 km/h
142 23-01-2015 21:00:00 -0.69167 C 4.37 g/m*3 -0.69 C 0.4 km/h
143 23-01-2015 22:00:00 -0.425 C 4.43 g/m*3 -0.43 C 0.4 km/h
144 23-01-2015 23:00:00 -0.55 C 4.38 g/m*3 -0.55 C 0.26667 km/h
145 24-01-2015 00:00:00 -0.49167 C 4.4 g/m*3 -0.49 C 1.2 km/h
146 24-01-2015 01:00:00 -0.68333 C 4.31 g/m*3 -0.68 C 4.68333 km/h
147 24-01-2015 02:00:00 -1.2 C 4.16 g/m*3 -1.2 C 0.53333 km/h
148 24-01-2015 03:00:00 -0.69167 C 4.31 g/m*3 -2.55 C 5.36667 km/h
149 24-01-2015 04:00:00 0.24167 C 4.44 g/m*3 -1.91 C 6.425 km/h
150 24-01-2015 05:00:00 0.45833 C 4.45 g/m*3 -2.3 C 8.34167 km/h
Sensor: Nr:Datum:Temp:Abs-Feuchte:Windchill:Wind:
Aussen-T/F 151 24-01-2015 06:00:00 0.45 C 4.44 g/m*3 -1.83 C 6.85 km/h
152 24-01-2015 07:00:00 0.625 C 4.45 g/m*3 0.63 C 4.41667 km/h
153 24-01-2015 08:00:00 0.98333 C 4.5 g/m*3 -1.48 C 7.66667 km/h
154 24-01-2015 09:00:00 1.34167 C 4.53 g/m*3 -1.41 C 8.86667 km/h
155 24-01-2015 10:00:00 1.78333 C 4.55 g/m*3 -1.8 C 12.76667 km/h
156 24-01-2015 11:00:00 1.125 C 4.79 g/m*3 -0.52 C 5.48333 km/h
157 24-01-2015 12:00:00 0.94167 C 4.83 g/m*3 -0.56 C 5.075 km/h
158 24-01-2015 13:00:00 0.9 C 4.85 g/m*3 0.9 C 0.8 km/h
159 24-01-2015 14:00:00 1.09167 C 4.91 g/m*3 -0.83 C 6.15833 km/h
160 24-01-2015 15:00:00 0.94 C 4.91 g/m*3 -1.1 C 6.42 km/h
161 24-01-2015 17:00:00 1.7 C 5.23 g/m*3 -0.51 C 7.25 km/h
162 24-01-2015 18:00:00 1.875 C 5.3 g/m*3 0.44 C 5.21667 km/h
163 24-01-2015 19:00:00 2.36667 C 5.45 g/m*3 0.89 C 5.48333 km/h
164 24-01-2015 20:00:00 2.69167 C 5.5 g/m*3 1.26 C 5.5 km/h
165 24-01-2015 21:00:00 2.60833 C 5.45 g/m*3 2.61 C 3.20833 km/h
166 24-01-2015 22:00:00 2.6 C 5.44 g/m*3 2.6 C 4.55 km/h
167 24-01-2015 23:00:00 2.65 C 5.41 g/m*3 0.56 C 7.36667 km/h
168 25-01-2015 00:00:00 2.49167 C 5.33 g/m*3 1.21 C 5.075 km/h
169 25-01-2015 01:00:00 2.425 C 5.32 g/m*3 2.42 C 4.275 km/h
170 25-01-2015 02:00:00 2.425 C 5.28 g/m*3 0.75 C 6.03333 km/h
171 25-01-2015 03:00:00 2.18333 C 5.26 g/m*3 2.18 C 3.06667 km/h
172 25-01-2015 04:00:00 1.9 C 5.22 g/m*3 1.9 C 4 km/h
173 25-01-2015 05:00:00 1.85833 C 5.18 g/m*3 1.86 C 3.73333 km/h
174 25-01-2015 06:00:00 1.13333 C 4.98 g/m*3 1.13 C 0.8 km/h
175 25-01-2015 07:00:00 0.825 C 4.92 g/m*3 0.83 C 1.6 km/h
Sensor: Nr:Datum:Temp:Abs-Feuchte:Windchill:Wind:
Aussen-T/F 176 25-01-2015 08:00:00 1.21667 C 5.07 g/m*3 1.22 C 0.93333 km/h
177 25-01-2015 09:00:00 1.68333 C 5.2 g/m*3 1.68 C 4.825 km/h
178 25-01-2015 10:00:00 2.15833 C 5.23 g/m*3 0.21 C 6.7 km/h
179 25-01-2015 11:00:00 2.36667 C 5.24 g/m*3 0.27 C 7.25 km/h
180 25-01-2015 12:00:00 2.16667 C 5.28 g/m*3 2.17 C 4.13333 km/h
181 25-01-2015 13:00:00 2.38333 C 5.4 g/m*3 2.38 C 3.73333 km/h
182 25-01-2015 14:00:00 2.79167 C 5.46 g/m*3 1.49 C 5.2 km/h
183 25-01-2015 15:00:00 3.05833 C 5.5 g/m*3 1.68 C 5.49167 km/h
184 25-01-2015 16:00:00 3.075 C 5.52 g/m*3 3.08 C 4.53333 km/h
185 25-01-2015 17:00:00 2.79167 C 5.53 g/m*3 2.79 C 3.06667 km/h
186 25-01-2015 18:00:00 2.7 C 5.49 g/m*3 1.28 C 5.46667 km/h
187 25-01-2015 19:00:00 2.6 C 5.5 g/m*3 2.6 C 2 km/h
188 25-01-2015 20:00:00 2.34167 C 5.46 g/m*3 2.34 C 2.53333 km/h
189 25-01-2015 21:00:00 2.20833 C 5.41 g/m*3 0.77 C 5.34167 km/h
190 25-01-2015 22:00:00 2.01667 C 5.34 g/m*3 0.23 C 6.16667 km/h
191 25-01-2015 23:00:00 1.86667 C 5.29 g/m*3 0.39 C 5.33333 km/h
192 26-01-2015 00:00:00 1.875 C 5.33 g/m*3 1.88 C 2.93333 km/h
193 26-01-2015 01:00:00 1.85833 C 5.34 g/m*3 1.86 C 2.53333 km/h
194 26-01-2015 02:00:00 1.85833 C 5.34 g/m*3 1.86 C 3.06667 km/h
195 26-01-2015 03:00:00 2.175 C 5.43 g/m*3 0.74 C 5.33333 km/h
196 26-01-2015 04:00:00 2.35 C 5.41 g/m*3 0.53 C 6.41667 km/h
197 26-01-2015 05:00:00 2.4 C 5.4 g/m*3 0.73 C 6.025 km/h
198 26-01-2015 06:00:00 2.53333 C 5.43 g/m*3 0.6 C 6.83333 km/h
199 26-01-2015 07:00:00 2.48333 C 5.45 g/m*3 2.48 C 4.8 km/h
200 26-01-2015 08:00:00 2.475 C 5.48 g/m*3 1.02 C 5.48333 km/h
Sensor: Nr:Datum:Temp:Abs-Feuchte:Windchill:Wind:
Aussen-T/F 201 26-01-2015 09:00:00 2.73333 C 5.55 g/m*3 0.87 C 6.70833 km/h
202 26-01-2015 10:00:00 2.65833 C 5.52 g/m*3 1.12 C 5.75 km/h
203 26-01-2015 11:00:00 2.86667 C 5.6 g/m*3 0.36 C 9.00833 km/h
204 26-01-2015 12:00:00 3.1 C 5.69 g/m*3 0.02 C 11.7 km/h
205 26-01-2015 13:00:00 3.3 C 5.73 g/m*3 0.57 C 10.23333 km/h
206 26-01-2015 14:00:00 3.44167 C 5.76 g/m*3 0.22 C 12.76667 km/h
207 26-01-2015 15:00:00 3.24167 C 5.74 g/m*3 0.36 C 10.89167 km/h
208 26-01-2015 16:00:00 3.26667 C 5.74 g/m*3 0.33 C 11.16667 km/h
209 26-01-2015 17:00:00 3.20833 C 5.73 g/m*3 0.09 C 11.96667 km/h
210 26-01-2015 18:00:00 3.30833 C 5.77 g/m*3 -0.11 C 13.7 km/h
211 26-01-2015 19:00:00 3.725 C 5.94 g/m*3 1.18 C 9.80833 km/h
212 26-01-2015 20:00:00 4.06667 C 6.14 g/m*3 4.07 C 4.40833 km/h
213 26-01-2015 21:00:00 4.5 C 6.35 g/m*3 3.09 C 6.16667 km/h
214 26-01-2015 22:00:00 5.13333 C 6.32 g/m*3 3.42 C 7.525 km/h
215 26-01-2015 23:00:00 4.80833 C 6.06 g/m*3 2.11 C 11.55833 km/h
216 27-01-2015 00:00:00 3.60833 C 5.76 g/m*3 1.75 C 7.125 km/h
217 27-01-2015 01:00:00 3.49167 C 5.8 g/m*3 3.49 C 4.275 km/h
218 27-01-2015 02:00:00 4.00833 C 5.93 g/m*3 2.77 C 5.49167 km/h
219 27-01-2015 03:00:00 3.90833 C 5.87 g/m*3 3.91 C 4.13333 km/h
220 27-01-2015 04:00:00 3.71667 C 5.85 g/m*3 3.72 C 4.69167 km/h
221 27-01-2015 05:00:00 3.25833 C 5.7 g/m*3 3.26 C 3.34167 km/h
222 27-01-2015 06:00:00 3.44167 C 5.75 g/m*3 3.44 C 4.00833 km/h
223 27-01-2015 07:00:00 3.44167 C 5.74 g/m*3 3.44 C 3.88333 km/h
224 27-01-2015 08:00:00 3.725 C 5.71 g/m*3 3.73 C 3.6 km/h
225 27-01-2015 09:00:00 3.84167 C 5.7 g/m*3 2.73 C 5.09167 km/h
Sensor: Nr:Datum:Temp:Abs-Feuchte:Windchill:Wind:
Aussen-T/F 226 27-01-2015 10:00:00 3.81667 C 5.76 g/m*3 2.55 C 5.49167 km/h
227 27-01-2015 11:00:00 4.01667 C 5.96 g/m*3 4.02 C 4.41667 km/h
228 27-01-2015 12:00:00 4.74167 C 6.18 g/m*3 3.71 C 5.21667 km/h
229 27-01-2015 13:00:00 4.76667 C 6.09 g/m*3 2.95 C 7.65833 km/h
230 27-01-2015 14:00:00 4.99167 C 6.17 g/m*3 3.58 C 6.425 km/h
231 27-01-2015 15:00:00 5.03333 C 6.09 g/m*3 2.8 C 9.55 km/h
232 27-01-2015 16:00:00 3.9 C 5.85 g/m*3 2.18 C 6.84167 km/h
233 27-01-2015 17:00:00 3.6 C 5.85 g/m*3 3.6 C 1.73333 km/h
234 27-01-2015 18:00:00 3.6 C 5.94 g/m*3 3.6 C 1.2 km/h
235 27-01-2015 19:00:00 3.60833 C 6 g/m*3 3.61 C 1.6 km/h
236 27-01-2015 20:00:00 3.6 C 6 g/m*3 3.6 C 0.93333 km/h
237 27-01-2015 21:00:00 3.44167 C 5.94 g/m*3 3.44 C 0.66667 km/h
238 27-01-2015 22:00:00 3.4 C 5.92 g/m*3 3.4 C 1.6 km/h
239 27-01-2015 23:00:00 3.49167 C 5.96 g/m*3 3.49 C 4.4 km/h
240 28-01-2015 00:00:00 3.43333 C 5.9 g/m*3 3.43 C 0.93333 km/h
241 28-01-2015 01:00:00 2.575 C 5.57 g/m*3 2.58 C 0.53333 km/h
242 28-01-2015 02:00:00 1.99167 C 5.39 g/m*3 1.99 C 1.73333 km/h
243 28-01-2015 03:00:00 1.875 C 5.34 g/m*3 1.88 C 1.86667 km/h
244 28-01-2015 04:00:00 2.08333 C 5.44 g/m*3 2.08 C 1.46667 km/h
245 28-01-2015 05:00:00 2.3 C 5.5 g/m*3 2.3 C 4.81667 km/h
246 28-01-2015 06:00:00 2.61667 C 5.58 g/m*3 0.74 C 6.7 km/h
247 28-01-2015 07:00:00 2.875 C 5.59 g/m*3 2.88 C 3.73333 km/h
248 28-01-2015 08:00:00 3.3 C 5.72 g/m*3 3.3 C 3.2 km/h
249 28-01-2015 09:00:00 3.69167 C 5.83 g/m*3 3.69 C 2.675 km/h
250 28-01-2015 10:00:00 4.26667 C 5.95 g/m*3 4.27 C 3.34167 km/h
Sensor: Nr:Datum:Temp:Abs-Feuchte:Windchill:Wind:
Aussen-T/F 251 28-01-2015 11:00:00 4.98333 C 6.05 g/m*3 3.25 C 7.50833 km/h
252 28-01-2015 12:00:00 5.64167 C 6.12 g/m*3 3.84 C 8.18333 km/h
253 28-01-2015 13:00:00 5.9 C 6.1 g/m*3 3.21 C 12.76667 km/h
254 28-01-2015 14:00:00 6.4 C 5.97 g/m*3 2.78 C 20.5 km/h
255 28-01-2015 15:00:00 6.24167 C 5.91 g/m*3 2.88 C 17.96667 km/h
256 28-01-2015 16:00:00 6.23333 C 5.99 g/m*3 2.45 C 21.575 km/h
257 28-01-2015 17:00:00 5.56667 C 6.2 g/m*3 3.35 C 9.925 km/h
258 28-01-2015 18:00:00 5.65 C 6.38 g/m*3 3.82 C 8.325 km/h
259 28-01-2015 19:00:00 5.9 C 6.44 g/m*3 2.66 C 16.35833 km/h
260 28-01-2015 20:00:00 5.41667 C 6.35 g/m*3 1.81 C 18.25 km/h
261 28-01-2015 21:00:00 3.68333 C 5.67 g/m*3 1.97 C 6.7 km/h
262 28-01-2015 22:00:00 3.45833 C 5.37 g/m*3 1.63 C 6.96667 km/h
263 28-01-2015 23:00:00 2.75833 C 5.14 g/m*3 1.04 C 6.28333 km/h
264 29-01-2015 00:00:00 2.39167 C 5.01 g/m*3 0.13 C 7.79167 km/h
265 29-01-2015 01:00:00 2.79167 C 4.92 g/m*3 -0.44 C 12.1 km/h
266 29-01-2015 02:00:00 2.18333 C 4.81 g/m*3 -0.27 C 8.31667 km/h
267 29-01-2015 03:00:00 2.05833 C 4.75 g/m*3 -0.85 C 9.95833 km/h
268 29-01-2015 04:00:00 1.99167 C 4.68 g/m*3 -1.08 C 10.625 km/h
269 29-01-2015 05:00:00 1.74167 C 4.71 g/m*3 -1.68 C 11.96667 km/h
270 29-01-2015 06:00:00 2.125 C 4.82 g/m*3 -2.02 C 16.36667 km/h
271 29-01-2015 07:00:00 2.41667 C 4.91 g/m*3 -0.32 C 9.55833 km/h
272 29-01-2015 08:00:00 2.54167 C 4.97 g/m*3 -0.63 C 11.56667 km/h
273 29-01-2015 09:00:00 2.70833 C 5.07 g/m*3 -0.8 C 13.43333 km/h
274 29-01-2015 10:00:00 3.16667 C 5.17 g/m*3 -0.04 C 12.36667 km/h
275 29-01-2015 11:00:00 3.38333 C 5.28 g/m*3 0.67 C 10.23333 km/h
Sensor: Nr:Datum:Temp:Abs-Feuchte:Windchill:Wind:
Aussen-T/F 276 29-01-2015 12:00:00 3.80833 C 5.38 g/m*3 0.64 C 12.89167 km/h
277 29-01-2015 13:00:00 4.11667 C 5.61 g/m*3 0.51 C 15.96667 km/h
278 29-01-2015 14:00:00 4.95 C 5.58 g/m*3 1.7 C 14.9 km/h
279 29-01-2015 15:00:00 5.13333 C 5.68 g/m*3 2.53 C 11.41667 km/h
280 29-01-2015 16:00:00 4.925 C 5.69 g/m*3 4.93 C 4.55833 km/h
281 29-01-2015 17:00:00 3.65 C 5.62 g/m*3 3.65 C 2.4 km/h
282 29-01-2015 18:00:00 2.94167 C 5.58 g/m*3 2.94 C 2.8 km/h
283 29-01-2015 19:00:00 3.025 C 5.67 g/m*3 3.03 C 1.46667 km/h
284 29-01-2015 20:00:00 2.86667 C 5.66 g/m*3 2.87 C 0 km/h
285 29-01-2015 21:00:00 2.66667 C 5.6 g/m*3 2.67 C 0.4 km/h
286 29-01-2015 22:00:00 2.675 C 5.62 g/m*3 2.68 C 2.26667 km/h
287 29-01-2015 23:00:00 2.63333 C 5.57 g/m*3 2.63 C 0.8 km/h
288 30-01-2015 00:00:00 2.45 C 5.51 g/m*3 2.45 C 0.4 km/h
289 30-01-2015 01:00:00 2.24167 C 5.44 g/m*3 2.24 C 1.6 km/h
290 30-01-2015 02:00:00 2.11667 C 5.41 g/m*3 2.12 C 4.03333 km/h
291 30-01-2015 03:00:00 1.59167 C 5.17 g/m*3 1.59 C 4.95 km/h
292 30-01-2015 04:00:00 1.71667 C 4.99 g/m*3 -0.26 C 6.575 km/h
293 30-01-2015 05:00:00 1.6 C 4.78 g/m*3 -0.83 C 7.90833 km/h
294 30-01-2015 06:00:00 1.66667 C 4.65 g/m*3 -1.41 C 10.35 km/h
295 30-01-2015 07:00:00 1.625 C 4.66 g/m*3 -1.49 C 10.5 km/h
296 30-01-2015 08:00:00 1.30833 C 4.78 g/m*3 -1.57 C 9.28333 km/h
297 30-01-2015 09:00:00 2 C 4.75 g/m*3 -1.74 C 13.83333 km/h
298 30-01-2015 10:00:00 2.25 C 4.85 g/m*3 -0.93 C 11.3 km/h
299 30-01-2015 11:00:00 2.80833 C 4.99 g/m*3 -0.65 C 13.3 km/h
300 30-01-2015 12:00:00 3.05833 C 5.04 g/m*3 0.26 C 10.35833 km/h
Sensor: Nr:Datum:Temp:Abs-Feuchte:Windchill:Wind:
Aussen-T/F 301 30-01-2015 13:00:00 3.21667 C 4.99 g/m*3 0.22 C 11.40833 km/h
302 30-01-2015 14:00:00 2.85 C 4.94 g/m*3 1.01 C 6.70833 km/h
303 30-01-2015 15:00:00 2.06667 C 5 g/m*3 2.07 C 3.6 km/h
304 30-01-2015 16:00:00 1.40833 C 4.93 g/m*3 1.41 C 3.06667 km/h
305 30-01-2015 17:00:00 1.10833 C 4.95 g/m*3 1.11 C 4 km/h
306 30-01-2015 18:00:00 1.26667 C 5.02 g/m*3 1.27 C 2.4 km/h
307 30-01-2015 19:00:00 1.6 C 5.09 g/m*3 1.6 C 1.46667 km/h
308 30-01-2015 20:00:00 1.46667 C 5.05 g/m*3 1.47 C 0.26667 km/h
309 30-01-2015 21:00:00 1.46667 C 5.04 g/m*3 1.47 C 0.8 km/h
310 30-01-2015 22:00:00 1.65 C 4.95 g/m*3 1.65 C 2.675 km/h
311 30-01-2015 23:00:00 1.68333 C 4.89 g/m*3 1.68 C 2.53333 km/h
312 31-01-2015 00:00:00 1.60833 C 4.77 g/m*3 -0.08 C 5.75833 km/h
313 31-01-2015 01:00:00 1.98333 C 4.75 g/m*3 -1.21 C 11.15 km/h
314 31-01-2015 02:00:00 2.05833 C 4.68 g/m*3 -1.38 C 12.36667 km/h
315 31-01-2015 03:00:00 1.91667 C 4.76 g/m*3 -2.06 C 15.03333 km/h
316 31-01-2015 04:00:00 1.90833 C 4.86 g/m*3 -1.85 C 13.83333 km/h
317 31-01-2015 05:00:00 1.775 C 4.89 g/m*3 -1.28 C 10.35 km/h
318 31-01-2015 06:00:00 1.84167 C 4.93 g/m*3 -0.93 C 9.275 km/h
319 31-01-2015 07:00:00 1.35833 C 4.8 g/m*3 -0.81 C 6.96667 km/h
320 31-01-2015 08:00:00 1.34167 C 4.82 g/m*3 -0.55 C 6.16667 km/h
321 31-01-2015 09:00:00 1.68333 C 4.88 g/m*3 0.17 C 5.35833 km/h
322 31-01-2015 10:00:00 2.28333 C 4.88 g/m*3 -0.97 C 11.7 km/h
323 31-01-2015 11:00:00 2.88333 C 4.89 g/m*3 -0.63 C 13.7 km/h
324 31-01-2015 12:00:00 3.59167 C 4.89 g/m*3 0.45 C 12.5 km/h
325 31-01-2015 13:00:00 3.75 C 5.09 g/m*3 1.28 C 9.4875 km/h
Sensor: Nr:Datum:Temp:Abs-Feuchte:Windchill:Wind:
Aussen-T/F 326 31-01-2015 14:00:00 4 C 6.36 g/m*3 1.44 C 10.1 km/h
327 31-01-2015 15:00:00 4 C 5.07 g/m*3 1.43 C 10.17 km/h
328 31-01-2015 16:00:00 3.36667 C 4.97 g/m*3 1.69 C 6.44167 km/h
329 31-01-2015 17:00:00 1.575 C 4.77 g/m*3 1.58 C 3.73333 km/h
330 31-01-2015 18:00:00 1 C 4.81 g/m*3 1 C 1.92 km/h
331 31-01-2015 19:00:00 1.40833 C 4.9 g/m*3 1.41 C 2.26667 km/h
332 31-01-2015 20:00:00 1.775 C 4.99 g/m*3 1.78 C 1.2 km/h
333 31-01-2015 21:00:00 0.975 C 4.81 g/m*3 0.98 C 2.13333 km/h
334 31-01-2015 22:00:00 0.77778 C 4.81 g/m*3 0.78 C 1.77778 km/h
335 01-02-2015 08:00:00 0.65 C 4.54 g/m*3 0.65 C 2.4 km/h
336 01-02-2015 09:00:00 0.47143 C 4.55 g/m*3 0.47 C 2.28571 km/h
337 01-02-2015 10:00:00 1.55 C 4.75 g/m*3 -1.09 C 8.60833 km/h
338 01-02-2015 11:00:00 1.84167 C 4.92 g/m*3 -0.39 C 7.38333 km/h
339 01-02-2015 12:00:00 1.35833 C 5.05 g/m*3 1.36 C 3.06667 km/h
340 01-02-2015 13:00:00 2.3 C 5.4 g/m*3 0.88 C 5.34167 km/h
341 01-02-2015 14:00:00 3.26667 C 5.65 g/m*3 1.98 C 5.33333 km/h
342 01-02-2015 15:00:00 3.87143 C 5.8 g/m*3 3.87 C 3.2 km/h
343 01-02-2015 16:00:00 3.71667 C 5.5 g/m*3 3.72 C 3.60833 km/h
344 01-02-2015 17:00:00 3.24 C 5.44 g/m*3 3.24 C 4.18 km/h
345 01-02-2015 20:00:00 1.63636 C 5.24 g/m*3 1.64 C 0 km/h
346 01-02-2015 21:00:00 1.38 C 5.16 g/m*3 1.38 C 2.56 km/h
347 01-02-2015 22:00:00 1.66667 C 5.27 g/m*3 0.27 C 5.075 km/h
348 01-02-2015 23:00:00 1.79167 C 5.31 g/m*3 1.79 C 2.13333 km/h
349 02-02-2015 00:00:00 1.9 C 5.35 g/m*3 1.9 C 2.675 km/h
350 02-02-2015 01:00:00 2.03333 C 5.4 g/m*3 2.03 C 2.13333 km/h
Sensor: Nr:Datum:Temp:Abs-Feuchte:Windchill:Wind:
Aussen-T/F 351 02-02-2015 02:00:00 2 C 5.39 g/m*3 2 C 3.2 km/h
352 02-02-2015 03:00:00 2.125 C 5.44 g/m*3 2.13 C 2.4 km/h
353 02-02-2015 04:00:00 2.25 C 5.44 g/m*3 2.25 C 2.66667 km/h
354 02-02-2015 05:00:00 2.19167 C 5.4 g/m*3 2.19 C 0.93333 km/h
355 02-02-2015 06:00:00 2.08333 C 5.29 g/m*3 2.08 C 3.475 km/h
356 02-02-2015 07:00:00 1.9 C 5.19 g/m*3 1.9 C 3.86667 km/h
357 02-02-2015 08:00:00 1.83333 C 5.21 g/m*3 1.83 C 3.475 km/h
358 02-02-2015 09:00:00 1.9875 C 5.16 g/m*3 0.17 C 6.25 km/h
359 02-02-2015 11:00:00 2.7 C 5.1 g/m*3 0.33 C 8.38 km/h
360 02-02-2015 12:00:00 2.53333 C 5.18 g/m*3 0.34 C 7.65 km/h
361 02-02-2015 13:00:00 3.50833 C 5.11 g/m*3 0.68 C 10.89167 km/h
362 02-02-2015 14:00:00 3.83333 C 5 g/m*3 0.46 C 14.1 km/h
363 02-02-2015 15:00:00 3.375 C 4.89 g/m*3 0.22 C 12.35833 km/h
364 02-02-2015 16:00:00 3.05 C 4.76 g/m*3 -0.77 C 15.7 km/h
365 02-02-2015 17:00:00 2.61 C 4.77 g/m*3 -0.46 C 11.14 km/h
366 02-02-2015 18:00:00 2.40909 C 4.73 g/m*3 0.16 C 7.76364 km/h
367 02-02-2015 19:00:00 2.225 C 4.74 g/m*3 0.11 C 7.23333 km/h
368 02-02-2015 20:00:00 2.15833 C 4.73 g/m*3 -0.14 C 7.79167 km/h
369 02-02-2015 21:00:00 1.925 C 4.68 g/m*3 -0.37 C 7.65833 km/h
370 02-02-2015 22:00:00 1.4 C 4.53 g/m*3 -0.56 C 6.4 km/h
371 02-02-2015 23:00:00 1.525 C 4.52 g/m*3 -0.38 C 6.29167 km/h
372 03-02-2015 00:00:00 1.625 C 4.55 g/m*3 1.63 C 4.14167 km/h
373 03-02-2015 01:00:00 1.38333 C 4.57 g/m*3 1.38 C 2.53333 km/h
374 03-02-2015 02:00:00 1.04167 C 4.54 g/m*3 1.04 C 2 km/h
375 03-02-2015 03:00:00 0.71667 C 4.49 g/m*3 0.72 C 2.26667 km/h
Sensor: Nr:Datum:Temp:Abs-Feuchte:Windchill:Wind:
Aussen-T/F 376 03-02-2015 04:00:00 0.56667 C 4.5 g/m*3 0.57 C 1.06667 km/h
377 03-02-2015 05:00:00 0.61667 C 4.5 g/m*3 0.62 C 0.53333 km/h
378 03-02-2015 06:00:00 0.59167 C 4.48 g/m*3 0.59 C 0.8 km/h
379 03-02-2015 07:00:00 0.60833 C 4.45 g/m*3 0.61 C 1.73333 km/h
380 03-02-2015 08:00:00 0.4 C 4.43 g/m*3 0.4 C 0 km/h
381 03-02-2015 12:00:00 2.5 C 5.75 g/m*3 0.06 C 8.475 km/h
382 03-02-2015 16:00:00 2.89091 C 5.16 g/m*3 2.89 C 1.6 km/h
383 03-02-2015 17:00:00 1.11111 C 4.8 g/m*3 1.11 C 3.2 km/h
384 03-02-2015 18:00:00 0.7 C 4.75 g/m*3 0.7 C 3.46667 km/h
385 03-02-2015 19:00:00 0.65833 C 4.81 g/m*3 0.66 C 1.6 km/h
386 03-02-2015 20:00:00 0.89167 C 4.89 g/m*3 0.89 C 0.53333 km/h
387 03-02-2015 21:00:00 1.025 C 4.92 g/m*3 1.02 C 1.46667 km/h
388 03-02-2015 22:00:00 0.09167 C 4.61 g/m*3 0.09 C 1.33333 km/h
389 03-02-2015 23:00:00 -0.50833 C 4.46 g/m*3 -0.51 C 0.66667 km/h
390 04-02-2015 00:00:00 -0.4 C 4.52 g/m*3 -0.4 C 0.26667 km/h
391 04-02-2015 01:00:00 -0.08333 C 4.65 g/m*3 -0.08 C 1.73333 km/h
392 04-02-2015 02:00:00 0.31667 C 4.78 g/m*3 0.32 C 1.06667 km/h
393 04-02-2015 03:00:00 0.25833 C 4.73 g/m*3 0.26 C 1.33333 km/h
394 04-02-2015 04:00:00 0.46667 C 4.64 g/m*3 0.47 C 4.025 km/h
395 04-02-2015 05:00:00 0.5 C 4.54 g/m*3 0.5 C 3.73333 km/h
396 04-02-2015 06:00:00 0.1 C 4.32 g/m*3 0.1 C 4.15 km/h
397 04-02-2015 07:00:00 -0.56667 C 4.16 g/m*3 -0.57 C 2.13333 km/h
398 04-02-2015 08:00:00 -0.7 C 4.06 g/m*3 -0.7 C 1.06667 km/h
399 04-02-2015 10:00:00 -0.03333 C 4.04 g/m*3 -4.36 C 14.5 km/h
400 04-02-2015 11:00:00 0.50833 C 3.91 g/m*3 -3.27 C 12.36667 km/h
Sensor: Nr:Datum:Temp:Abs-Feuchte:Windchill:Wind:
Aussen-T/F 401 04-02-2015 12:00:00 0.94167 C 3.92 g/m*3 -2.74 C 12.36667 km/h
402 04-02-2015 13:00:00 1.41667 C 4.01 g/m*3 -1.5 C 9.53333 km/h
403 04-02-2015 14:00:00 2.36667 C 4.2 g/m*3 -0.06 C 8.34167 km/h
404 04-02-2015 15:00:00 3.15 C 4.26 g/m*3 0.65 C 9.15 km/h
405 04-02-2015 16:00:00 2.15833 C 4.2 g/m*3 -0.22 C 8.05833 km/h
406 04-02-2015 17:00:00 0.44167 C 4.18 g/m*3 0.44 C 1.33333 km/h
407 04-02-2015 18:00:00 -0.425 C 4.13 g/m*3 -0.43 C 4.4 km/h
408 04-02-2015 19:00:00 -1.10833 C 4.06 g/m*3 -1.11 C 1.73333 km/h
409 04-02-2015 20:00:00 -1.63333 C 4 g/m*3 -1.63 C 0 km/h
410 04-02-2015 21:00:00 -2.05833 C 3.91 g/m*3 -2.06 C 0 km/h
411 04-02-2015 22:00:00 -2.45833 C 3.84 g/m*3 -2.46 C 0.13333 km/h
412 04-02-2015 23:00:00 -2.625 C 3.8 g/m*3 -2.63 C 0.93333 km/h
413 05-02-2015 00:00:00 -2.86667 C 3.73 g/m*3 -2.87 C 1.46667 km/h
414 05-02-2015 01:00:00 -3.39167 C 3.62 g/m*3 -3.39 C 0.26667 km/h
415 05-02-2015 02:00:00 -3.70833 C 3.55 g/m*3 -3.71 C 1.46667 km/h
416 05-02-2015 03:00:00 -3.76667 C 3.49 g/m*3 -3.77 C 2.8 km/h
417 05-02-2015 04:00:00 -4.19167 C 3.38 g/m*3 -4.19 C 2.53333 km/h
418 05-02-2015 05:00:00 -4.35 C 3.33 g/m*3 -4.35 C 1.2 km/h
419 05-02-2015 06:00:00 -4.56667 C 3.29 g/m*3 -4.57 C 0.13333 km/h
420 05-02-2015 07:00:00 -3.9 C 3.48 g/m*3 -3.9 C 0.66667 km/h
421 05-02-2015 17:00:00 0.81667 C 3.63 g/m*3 -3.32 C 14.5 km/h
422 05-02-2015 18:00:00 0.65833 C 3.67 g/m*3 -3.38 C 13.83333 km/h
423 05-02-2015 19:00:00 0.49167 C 3.7 g/m*3 -3.2 C 11.96667 km/h
424 05-02-2015 20:00:00 0.625 C 3.57 g/m*3 -3.4 C 13.7 km/h
425 05-02-2015 21:00:00 0.325 C 3.49 g/m*3 -3.71 C 13.43333 km/h
Sensor: Nr:Datum:Temp:Abs-Feuchte:Windchill:Wind:
Aussen-T/F 426 05-02-2015 22:00:00 0.00833 C 3.47 g/m*3 -3.56 C 11.025 km/h
427 05-02-2015 23:00:00 -0.2 C 3.53 g/m*3 -3.36 C 9.275 km/h
428 06-02-2015 00:00:00 -0.08333 C 3.56 g/m*3 -3.29 C 9.55 km/h
429 06-02-2015 01:00:00 -0.06667 C 3.57 g/m*3 -4.32 C 14.09167 km/h
430 06-02-2015 02:00:00 -0.10833 C 3.59 g/m*3 -3.6 C 10.625 km/h
431 06-02-2015 03:00:00 -0.55 C 3.46 g/m*3 -4.02 C 10.19167 km/h
432 06-02-2015 04:00:00 -0.55833 C 3.47 g/m*3 -3.49 C 8.31667 km/h
433 06-02-2015 05:00:00 -0.40833 C 3.49 g/m*3 -3.71 C 9.66667 km/h
434 06-02-2015 06:00:00 -0.63333 C 3.45 g/m*3 -3.91 C 9.41667 km/h
435 06-02-2015 07:00:00 -0.64167 C 3.46 g/m*3 -3.96 C 9.55 km/h
436 06-02-2015 08:00:00 -0.25833 C 3.5 g/m*3 -4.2 C 12.36667 km/h
437 06-02-2015 09:00:00 0.06667 C 3.53 g/m*3 -3.8 C 12.35833 km/h
438 06-02-2015 10:00:00 0.28333 C 3.51 g/m*3 -4.05 C 14.90833 km/h
439 06-02-2015 11:00:00 0.61667 C 3.53 g/m*3 -3.78 C 15.7 km/h
440 06-02-2015 12:00:00 1.50833 C 3.54 g/m*3 -2.42 C 14.23333 km/h
441 06-02-2015 13:00:00 2.51667 C 3.55 g/m*3 -1.76 C 17.83333 km/h
442 06-02-2015 14:00:00 3.35 C 3.55 g/m*3 -0.67 C 17.45 km/h
443 06-02-2015 15:00:00 3.75833 C 3.41 g/m*3 1.41 C 9 km/h
444 06-02-2015 16:00:00 2.95 C 3.29 g/m*3 -0.27 C 12.2 km/h
445 06-02-2015 17:00:00 1.41667 C 3.34 g/m*3 -0.88 C 7.38333 km/h
446 06-02-2015 18:00:00 0.20833 C 3.35 g/m*3 -1.4 C 5.09167 km/h
447 06-02-2015 19:00:00 -0.35 C 3.39 g/m*3 -0.35 C 2.8 km/h
448 06-02-2015 20:00:00 -0.45833 C 3.42 g/m*3 -0.46 C 4.00833 km/h
449 06-02-2015 21:00:00 -0.46667 C 3.41 g/m*3 -0.47 C 4.69167 km/h
450 06-02-2015 22:00:00 -0.88333 C 3.41 g/m*3 -3.06 C 6.04167 km/h
Sensor: Nr:Datum:Temp:Abs-Feuchte:Windchill:Wind:
Aussen-T/F 451 06-02-2015 23:00:00 -1.09167 C 3.31 g/m*3 -4 C 7.925 km/h
452 07-02-2015 00:00:00 -1.31667 C 3.26 g/m*3 -4.91 C 10.08333 km/h
453 07-02-2015 01:00:00 -1.71667 C 3.21 g/m*3 -3.71 C 5.35833 km/h
454 07-02-2015 02:00:00 -3.00833 C 3.18 g/m*3 -3.01 C 4.13333 km/h
455 07-02-2015 03:00:00 -3.43333 C 3.17 g/m*3 -3.43 C 4.8 km/h
456 07-02-2015 04:00:00 -3.65 C 3.1 g/m*3 -3.65 C 4.26667 km/h
457 07-02-2015 05:00:00 -3.81667 C 3.1 g/m*3 -3.82 C 4.93333 km/h
458 07-02-2015 06:00:00 -3.89167 C 3.07 g/m*3 -3.89 C 4.53333 km/h
459 07-02-2015 07:00:00 -4.63333 C 3.01 g/m*3 -4.63 C 0 km/h
460 07-02-2015 08:00:00 -4.95 C 3.01 g/m*3 -4.95 C 0.4 km/h
461 07-02-2015 09:00:00 -4.40833 C 3.12 g/m*3 -4.41 C 1.2 km/h
462 07-02-2015 10:00:00 -3.25833 C 3.27 g/m*3 -3.26 C 2.66667 km/h
463 07-02-2015 11:00:00 -2.2 C 3.46 g/m*3 -2.2 C 4.00833 km/h
464 07-02-2015 12:00:00 -0.93333 C 3.61 g/m*3 -0.93 C 3.06667 km/h
465 07-02-2015 13:00:00 -0.04167 C 3.8 g/m*3 -0.04 C 3.6 km/h
466 07-02-2015 14:00:00 1.73333 C 4.05 g/m*3 1.73 C 4 km/h
467 07-02-2015 15:00:00 2.48333 C 4.09 g/m*3 2.48 C 4.13333 km/h
468 07-02-2015 16:00:00 3.525 C 3.74 g/m*3 0.64 C 11.15 km/h
469 07-02-2015 17:00:00 2.38333 C 3.83 g/m*3 2.38 C 4.28333 km/h
470 07-02-2015 18:00:00 2.01667 C 4.2 g/m*3 2.02 C 3.06667 km/h
471 07-02-2015 19:00:00 2.69167 C 4.42 g/m*3 2.69 C 4.675 km/h
472 07-02-2015 20:00:00 2.675 C 4.88 g/m*3 0.85 C 6.575 km/h
473 07-02-2015 21:00:00 2.64167 C 5.29 g/m*3 1.26 C 5.35 km/h
474 07-02-2015 22:00:00 2.75833 C 5.49 g/m*3 1.34 C 5.48333 km/h
475 07-02-2015 23:00:00 3.19167 C 5.68 g/m*3 0.41 C 10.36667 km/h
Sensor: Nr:Datum:Temp:Abs-Feuchte:Windchill:Wind:
Aussen-T/F 476 08-02-2015 00:00:00 3.48333 C 5.77 g/m*3 1.23 C 8.45833 km/h
477 08-02-2015 01:00:00 3.875 C 5.87 g/m*3 1.21 C 10.48333 km/h
478 08-02-2015 02:00:00 3.96667 C 5.85 g/m*3 1.9 C 8.06667 km/h
479 08-02-2015 03:00:00 3.68333 C 5.8 g/m*3 1.85 C 7.10833 km/h
480 08-02-2015 04:00:00 4.15 C 5.71 g/m*3 1.08 C 12.76667 km/h
481 08-02-2015 05:00:00 4.29167 C 5.53 g/m*3 1 C 14.23333 km/h
482 08-02-2015 06:00:00 4.25833 C 5.39 g/m*3 1.44 C 11.55833 km/h
483 08-02-2015 07:00:00 3.625 C 5.38 g/m*3 0.68 C 11.55 km/h
484 08-02-2015 08:00:00 3.26667 C 5.17 g/m*3 0.64 C 9.79167 km/h
485 08-02-2015 09:00:00 3.55833 C 5.07 g/m*3 0.83 C 10.475 km/h
486 08-02-2015 10:00:00 3.325 C 5.27 g/m*3 -0.19 C 14.23333 km/h
487 08-02-2015 11:00:00 3.93333 C 5.07 g/m*3 -0.24 C 19.7 km/h
488 08-02-2015 12:00:00 4.11667 C 4.85 g/m*3 0.31 C 17.3 km/h
489 08-02-2015 13:00:00 4.71667 C 4.52 g/m*3 0.95 C 18.1 km/h
490 08-02-2015 14:00:00 4.89167 C 4.42 g/m*3 1.02 C 19.3 km/h
491 08-02-2015 15:00:00 4.80833 C 4.13 g/m*3 1.14 C 17.56667 km/h
492 08-02-2015 16:00:00 4.225 C 3.91 g/m*3 0.96 C 13.95833 km/h
493 08-02-2015 17:00:00 3.125 C 4.17 g/m*3 3.13 C 4.95 km/h
494 08-02-2015 18:00:00 1.46667 C 4.25 g/m*3 1.47 C 3.06667 km/h
495 08-02-2015 19:00:00 1.19167 C 4.26 g/m*3 1.19 C 3.46667 km/h
496 08-02-2015 20:00:00 0.65 C 4.23 g/m*3 0.65 C 2.8 km/h
497 08-02-2015 21:00:00 0.13333 C 4.3 g/m*3 0.13 C 2.4 km/h
498 08-02-2015 22:00:00 0.65 C 4.47 g/m*3 0.65 C 2.13333 km/h
499 08-02-2015 23:00:00 1.275 C 4.65 g/m*3 1.27 C 3.46667 km/h
500 09-02-2015 00:00:00 1.425 C 4.68 g/m*3 1.43 C 1.46667 km/h
Sensor: Nr:Datum:Temp:Abs-Feuchte:Windchill:Wind:
Aussen-T/F 501 09-02-2015 01:00:00 1.50833 C 4.8 g/m*3 1.51 C 1.33333 km/h
502 09-02-2015 02:00:00 1.7 C 4.9 g/m*3 1.7 C 1.2 km/h
503 09-02-2015 03:00:00 1.825 C 4.96 g/m*3 1.83 C 2.4 km/h
504 09-02-2015 04:00:00 2.41667 C 5.23 g/m*3 2.42 C 3.46667 km/h
505 09-02-2015 05:00:00 2.35833 C 5.27 g/m*3 2.36 C 2.53333 km/h
506 09-02-2015 06:00:00 2.725 C 5.34 g/m*3 2.73 C 2.8 km/h
507 09-02-2015 07:00:00 3.375 C 5.51 g/m*3 1.66 C 6.58333 km/h
508 09-02-2015 08:00:00 4.30833 C 5.7 g/m*3 1.7 C 10.61667 km/h
509 09-02-2015 09:00:00 4.65833 C 5.61 g/m*3 2.64 C 8.34167 km/h
510 09-02-2015 10:00:00 4.84167 C 5.8 g/m*3 2.97 C 7.925 km/h
511 09-02-2015 11:00:00 4.75 C 6.03 g/m*3 3.13 C 6.975 km/h
512 09-02-2015 12:00:00 5.54167 C 6.24 g/m*3 3.62 C 8.59167 km/h
513 09-02-2015 13:00:00 5.825 C 6.36 g/m*3 3.54 C 10.48333 km/h
514 09-02-2015 14:00:00 5.53333 C 6.34 g/m*3 4.04 C 6.98333 km/h
515 09-02-2015 15:00:00 5.25 C 6.33 g/m*3 3.96 C 6.16667 km/h
516 09-02-2015 16:00:00 5.09167 C 6.36 g/m*3 5.09 C 4.54167 km/h
517 09-02-2015 17:00:00 4.91667 C 6.3 g/m*3 4.92 C 3.73333 km/h
518 09-02-2015 18:00:00 5.075 C 6.35 g/m*3 5.08 C 4.81667 km/h
519 09-02-2015 19:00:00 5.075 C 6.38 g/m*3 5.08 C 3.60833 km/h
520 09-02-2015 20:00:00 5 C 6.35 g/m*3 5 C 1.86667 km/h
521 09-02-2015 21:00:00 4.98333 C 6.4 g/m*3 4.98 C 2 km/h
522 09-02-2015 22:00:00 4.7 C 6.37 g/m*3 4.7 C 1.73333 km/h
523 09-02-2015 23:00:00 4.7 C 6.39 g/m*3 4.7 C 2.66667 km/h
524 10-02-2015 00:00:00 4.51667 C 6.28 g/m*3 4.52 C 1.06667 km/h
525 10-02-2015 01:00:00 4.24167 C 6.21 g/m*3 4.24 C 0.8 km/h
Sensor: Nr:Datum:Temp:Abs-Feuchte:Windchill:Wind:
Aussen-T/F 526 10-02-2015 02:00:00 4.2 C 6.2 g/m*3 4.2 C 2.13333 km/h
527 10-02-2015 03:00:00 4.28333 C 6.23 g/m*3 4.28 C 1.33333 km/h
528 10-02-2015 04:00:00 4.26667 C 6.26 g/m*3 4.27 C 0.8 km/h
529 10-02-2015 05:00:00 4.275 C 6.28 g/m*3 4.28 C 0.26667 km/h
530 10-02-2015 06:00:00 4.23333 C 6.26 g/m*3 4.23 C 0.13333 km/h
531 10-02-2015 07:00:00 4.39167 C 6.33 g/m*3 4.39 C 0.93333 km/h
532 10-02-2015 08:00:00 4.41667 C 6.34 g/m*3 4.42 C 1.06667 km/h
533 10-02-2015 09:00:00 4.66667 C 6.45 g/m*3 4.67 C 0.13333 km/h
534 10-02-2015 10:00:00 5.10833 C 6.63 g/m*3 5.11 C 1.46667 km/h
535 10-02-2015 11:00:00 5.70833 C 6.72 g/m*3 5.71 C 1.6 km/h
536 10-02-2015 12:00:00 6.05 C 6.44 g/m*3 3.92 C 9.95 km/h
537 10-02-2015 13:00:00 6.31667 C 6.33 g/m*3 4.73 C 7.8 km/h
538 10-02-2015 14:00:00 6.2 C 6.31 g/m*3 6.2 C 4.53333 km/h
539 10-02-2015 15:00:00 6.10833 C 6.21 g/m*3 6.11 C 4.80833 km/h
540 10-02-2015 16:00:00 5.85 C 6.07 g/m*3 4.48 C 6.70833 km/h
541 10-02-2015 17:00:00 5.65 C 6.01 g/m*3 4.64 C 5.49167 km/h
542 10-02-2015 18:00:00 5.45 C 6 g/m*3 5.45 C 4.00833 km/h
543 10-02-2015 19:00:00 5.23333 C 6 g/m*3 5.23 C 2.675 km/h
544 10-02-2015 20:00:00 4.94167 C 5.87 g/m*3 4.94 C 2.4 km/h
545 10-02-2015 21:00:00 4.675 C 5.86 g/m*3 4.68 C 0.53333 km/h
546 10-02-2015 22:00:00 4.28333 C 5.92 g/m*3 4.28 C 0 km/h
547 10-02-2015 23:00:00 4.1 C 5.89 g/m*3 4.1 C 0 km/h
548 11-02-2015 00:00:00 3.95 C 5.88 g/m*3 3.95 C 0 km/h
549 11-02-2015 01:00:00 3.9 C 5.86 g/m*3 3.9 C 0.4 km/h
550 11-02-2015 02:00:00 3.9 C 5.8 g/m*3 3.9 C 0.4 km/h
Sensor: Nr:Datum:Temp:Abs-Feuchte:Windchill:Wind:
Aussen-T/F 551 11-02-2015 03:00:00 3.85833 C 5.71 g/m*3 3.86 C 0.4 km/h
552 11-02-2015 04:00:00 3.825 C 5.6 g/m*3 3.83 C 1.46667 km/h
553 11-02-2015 05:00:00 3.74167 C 5.58 g/m*3 3.74 C 0.8 km/h
554 11-02-2015 06:00:00 3.68333 C 5.49 g/m*3 3.68 C 3.6 km/h
555 11-02-2015 07:00:00 3.475 C 5.38 g/m*3 3.48 C 2.66667 km/h
556 11-02-2015 08:00:00 3.4 C 5.37 g/m*3 3.4 C 1.86667 km/h
557 11-02-2015 09:00:00 3.50833 C 5.4 g/m*3 3.51 C 2.8 km/h
558 11-02-2015 10:00:00 3.675 C 5.37 g/m*3 3.68 C 4.28333 km/h
559 11-02-2015 11:00:00 4.03333 C 5.42 g/m*3 2.9 C 5.21667 km/h
560 11-02-2015 12:00:00 4.33333 C 5.44 g/m*3 3.14 C 5.48333 km/h
561 11-02-2015 13:00:00 4.775 C 5.55 g/m*3 3 C 7.525 km/h
562 11-02-2015 14:00:00 5.26667 C 5.61 g/m*3 3.77 C 6.85 km/h
563 11-02-2015 15:00:00 5.29167 C 5.62 g/m*3 4.29 C 5.33333 km/h
564 11-02-2015 16:00:00 4.825 C 5.53 g/m*3 4.83 C 3.475 km/h
565 11-02-2015 17:00:00 4.03333 C 5.42 g/m*3 4.03 C 1.6 km/h
566 11-02-2015 18:00:00 3.34167 C 5.32 g/m*3 3.34 C 2.13333 km/h
567 11-02-2015 19:00:00 3.15833 C 5.24 g/m*3 3.16 C 3.60833 km/h
568 11-02-2015 20:00:00 3.10833 C 5.24 g/m*3 3.11 C 1.6 km/h
569 11-02-2015 21:00:00 3.05 C 5.23 g/m*3 3.05 C 3.60833 km/h
570 11-02-2015 22:00:00 2.95 C 5.2 g/m*3 2.95 C 2.94167 km/h
571 11-02-2015 23:00:00 2.81667 C 5.22 g/m*3 2.82 C 1.2 km/h
572 12-02-2015 00:00:00 2.8 C 5.26 g/m*3 2.8 C 1.06667 km/h
573 12-02-2015 01:00:00 2.86667 C 5.3 g/m*3 2.87 C 0.53333 km/h
574 12-02-2015 02:00:00 2.84167 C 5.29 g/m*3 2.84 C 0.26667 km/h
575 12-02-2015 03:00:00 2.8 C 5.27 g/m*3 2.8 C 0.66667 km/h
Sensor: Nr:Datum:Temp:Abs-Feuchte:Windchill:Wind:
Aussen-T/F 576 12-02-2015 04:00:00 2.775 C 5.26 g/m*3 2.78 C 1.86667 km/h
577 12-02-2015 05:00:00 2.69167 C 5.23 g/m*3 2.69 C 1.46667 km/h
578 12-02-2015 06:00:00 2.58333 C 5.18 g/m*3 2.58 C 1.46667 km/h
579 12-02-2015 07:00:00 2.44167 C 5.14 g/m*3 2.44 C 0.53333 km/h
580 12-02-2015 08:00:00 2.4 C 5.14 g/m*3 2.4 C 0.93333 km/h
581 12-02-2015 09:00:00 2.525 C 5.18 g/m*3 2.53 C 2.26667 km/h
582 12-02-2015 10:00:00 2.65833 C 5.22 g/m*3 2.66 C 4.14167 km/h
583 12-02-2015 11:00:00 2.93333 C 5.26 g/m*3 1.7 C 5.08333 km/h
584 12-02-2015 12:00:00 3.30833 C 5.33 g/m*3 2.07 C 5.225 km/h
585 12-02-2015 13:00:00 3.89167 C 5.45 g/m*3 2.79 C 5.08333 km/h
586 12-02-2015 14:00:00 4.98333 C 5.68 g/m*3 3.88 C 5.49167 km/h
587 12-02-2015 15:00:00 5.3 C 5.67 g/m*3 3.58 C 7.65 km/h
588 12-02-2015 16:00:00 4.64167 C 5.54 g/m*3 4.64 C 4.4 km/h
589 12-02-2015 17:00:00 3.44167 C 5.31 g/m*3 1.44 C 7.50833 km/h
590 12-02-2015 18:00:00 2.30833 C 5.11 g/m*3 0.93 C 5.225 km/h
591 12-02-2015 19:00:00 1.35833 C 4.87 g/m*3 1.36 C 1.46667 km/h
592 12-02-2015 20:00:00 0.73333 C 4.79 g/m*3 0.73 C 0.8 km/h
593 12-02-2015 21:00:00 1.1 C 4.92 g/m*3 1.1 C 0.13333 km/h
594 12-02-2015 22:00:00 1.2 C 4.96 g/m*3 1.2 C 0.53333 km/h
595 12-02-2015 23:00:00 1.55 C 5.08 g/m*3 1.55 C 0.26667 km/h
596 13-02-2015 00:00:00 1.73333 C 5.07 g/m*3 1.73 C 0.13333 km/h
597 13-02-2015 01:00:00 1.675 C 5.05 g/m*3 1.68 C 0 km/h
598 13-02-2015 02:00:00 1.675 C 5.05 g/m*3 1.68 C 0.4 km/h
599 13-02-2015 03:00:00 1.8 C 5.07 g/m*3 1.8 C 1.6 km/h
600 13-02-2015 04:00:00 1.78333 C 5.04 g/m*3 1.78 C 2.00833 km/h
Sensor: Nr:Datum:Temp:Abs-Feuchte:Windchill:Wind:
Aussen-T/F 601 13-02-2015 05:00:00 1.675 C 4.96 g/m*3 1.68 C 1.46667 km/h
602 13-02-2015 06:00:00 1.6 C 4.94 g/m*3 1.6 C 3.73333 km/h
603 13-02-2015 07:00:00 1.53333 C 4.95 g/m*3 1.53 C 2.14167 km/h
604 13-02-2015 08:00:00 1.55 C 4.93 g/m*3 1.55 C 2.80833 km/h
605 13-02-2015 09:00:00 1.80833 C 4.99 g/m*3 1.81 C 3.33333 km/h
606 13-02-2015 10:00:00 2.225 C 5.04 g/m*3 2.23 C 4.94167 km/h
607 13-02-2015 11:00:00 2.45833 C 5 g/m*3 0.84 C 5.89167 km/h
608 13-02-2015 12:00:00 3.31667 C 5.18 g/m*3 3.32 C 4.53333 km/h
609 13-02-2015 13:00:00 4.9 C 5.51 g/m*3 3.6 C 6.025 km/h
610 13-02-2015 14:00:00 5.80833 C 5.68 g/m*3 4.56 C 6.29167 km/h
611 13-02-2015 15:00:00 5.73333 C 5.61 g/m*3 4.47 C 6.30833 km/h
612 13-02-2015 16:00:00 4.825 C 5.41 g/m*3 3.34 C 6.55 km/h
613 13-02-2015 17:00:00 3.54167 C 5.16 g/m*3 1.72 C 6.975 km/h
614 13-02-2015 18:00:00 1.78333 C 4.87 g/m*3 1.78 C 1.6 km/h
615 13-02-2015 19:00:00 0.80833 C 4.73 g/m*3 0.81 C 1.6 km/h
616 13-02-2015 20:00:00 0.95833 C 4.81 g/m*3 0.96 C 2.675 km/h
617 13-02-2015 21:00:00 0.73333 C 4.73 g/m*3 0.73 C 3.46667 km/h
618 13-02-2015 22:00:00 0.39167 C 4.68 g/m*3 0.39 C 2.66667 km/h
619 13-02-2015 23:00:00 0.25833 C 4.67 g/m*3 0.26 C 2.4 km/h
620 14-02-2015 00:00:00 0.18333 C 4.66 g/m*3 0.18 C 3.73333 km/h
621 14-02-2015 01:00:00 0.4 C 4.73 g/m*3 0.4 C 2.26667 km/h
622 14-02-2015 02:00:00 0.05 C 4.62 g/m*3 0.05 C 3.33333 km/h
623 14-02-2015 03:00:00 -0.19167 C 4.54 g/m*3 -0.19 C 2.13333 km/h
624 14-02-2015 04:00:00 -0.13333 C 4.58 g/m*3 -0.13 C 3.34167 km/h
625 14-02-2015 05:00:00 1.075 C 4.9 g/m*3 1.08 C 2.93333 km/h
Sensor: Nr:Datum:Temp:Abs-Feuchte:Windchill:Wind:
Aussen-T/F 626 14-02-2015 06:00:00 2.46667 C 5.09 g/m*3 0.61 C 6.55833 km/h
627 14-02-2015 07:00:00 2.6 C 5.03 g/m*3 1.06 C 5.74167 km/h
628 14-02-2015 08:00:00 2.725 C 5.06 g/m*3 1.15 C 5.88333 km/h
629 14-02-2015 09:00:00 3.575 C 5.13 g/m*3 1.81 C 6.825 km/h
630 14-02-2015 10:00:00 4.275 C 5.31 g/m*3 1.93 C 9.40833 km/h
631 14-02-2015 11:00:00 5.19167 C 5.57 g/m*3 5.19 C 3.86667 km/h
632 14-02-2015 12:00:00 6.43333 C 5.87 g/m*3 4.87 C 7.78333 km/h
633 14-02-2015 13:00:00 6.875 C 5.85 g/m*3 5.75 C 6.43333 km/h
634 14-02-2015 14:00:00 7.925 C 6.12 g/m*3 7.93 C 4.26667 km/h
635 14-02-2015 15:00:00 9.00833 C 6.27 g/m*3 8.04 C 7.11667 km/h
636 14-02-2015 16:00:00 8.59167 C 6.4 g/m*3 8.59 C 3.46667 km/h
637 14-02-2015 17:00:00 5.94167 C 6.06 g/m*3 5.94 C 4.4 km/h
638 14-02-2015 18:00:00 4.50833 C 5.85 g/m*3 4.51 C 3.2 km/h
639 14-02-2015 19:00:00 4.68333 C 5.91 g/m*3 4.68 C 2.93333 km/h
640 14-02-2015 20:00:00 4.1 C 5.67 g/m*3 4.1 C 4.8 km/h
641 14-02-2015 21:00:00 2.825 C 5.36 g/m*3 2.83 C 4.8 km/h
642 14-02-2015 22:00:00 3.175 C 5.5 g/m*3 3.18 C 1.73333 km/h
643 14-02-2015 23:00:00 3.34167 C 5.59 g/m*3 3.34 C 0.8 km/h
644 15-02-2015 00:00:00 2.26667 C 5.15 g/m*3 2.27 C 2.66667 km/h
645 15-02-2015 01:00:00 1.64167 C 4.91 g/m*3 1.64 C 4.53333 km/h
646 15-02-2015 02:00:00 0.36667 C 4.62 g/m*3 0.37 C 3.46667 km/h
647 15-02-2015 03:00:00 -0.10833 C 4.52 g/m*3 -0.11 C 3.2 km/h
648 15-02-2015 04:00:00 -0.525 C 4.42 g/m*3 -0.53 C 3.46667 km/h
649 15-02-2015 05:00:00 -0.78333 C 4.34 g/m*3 -0.78 C 1.73333 km/h
650 15-02-2015 06:00:00 -1.20833 C 4.21 g/m*3 -1.21 C 0.53333 km/h
Sensor: Nr:Datum:Temp:Abs-Feuchte:Windchill:Wind:
Aussen-T/F 651 15-02-2015 07:00:00 -1.475 C 4.15 g/m*3 -1.48 C 0.13333 km/h
652 15-02-2015 08:00:00 -1.425 C 4.18 g/m*3 -1.43 C 0 km/h
653 15-02-2015 09:00:00 -0.99167 C 4.34 g/m*3 -0.99 C 0 km/h
654 15-02-2015 10:00:00 0.05 C 4.63 g/m*3 0.05 C 2 km/h
655 15-02-2015 11:00:00 1.45833 C 4.9 g/m*3 1.46 C 2.53333 km/h
656 15-02-2015 12:00:00 2.775 C 5.18 g/m*3 2.78 C 2.4 km/h
657 15-02-2015 13:00:00 5.70833 C 5.46 g/m*3 5.71 C 4.95833 km/h
658 15-02-2015 14:00:00 6.75 C 5.71 g/m*3 6.75 C 4.66667 km/h
659 15-02-2015 15:00:00 6.81667 C 5.92 g/m*3 6.82 C 1.06667 km/h
660 15-02-2015 16:00:00 5.98333 C 5.84 g/m*3 5.98 C 4.4 km/h
661 15-02-2015 17:00:00 4.88333 C 5.49 g/m*3 3.54 C 6.13333 km/h
662 15-02-2015 18:00:00 3.33333 C 5.15 g/m*3 1.53 C 6.83333 km/h
663 15-02-2015 19:00:00 2.65 C 5.1 g/m*3 1.17 C 5.6 km/h
664 15-02-2015 20:00:00 1.95833 C 5 g/m*3 1.96 C 4.26667 km/h
665 15-02-2015 21:00:00 1.15833 C 4.78 g/m*3 1.16 C 4 km/h
666 15-02-2015 22:00:00 0.33333 C 4.59 g/m*3 0.33 C 1.2 km/h
667 15-02-2015 23:00:00 -0.15 C 4.5 g/m*3 -0.15 C 2.13333 km/h
668 16-02-2015 00:00:00 -0.64167 C 4.36 g/m*3 -0.64 C 1.46667 km/h
669 16-02-2015 01:00:00 -0.9 C 4.3 g/m*3 -0.9 C 0.13333 km/h
670 16-02-2015 02:00:00 -0.70833 C 4.38 g/m*3 -0.71 C 0.13333 km/h
671 16-02-2015 03:00:00 -0.49167 C 4.45 g/m*3 -0.49 C 0 km/h
672 16-02-2015 04:00:00 -0.19167 C 4.54 g/m*3 -0.19 C 0 km/h
673 16-02-2015 05:00:00 0.15 C 4.65 g/m*3 0.15 C 0 km/h
674 16-02-2015 06:00:00 0.55 C 4.75 g/m*3 0.55 C 0.4 km/h
675 16-02-2015 07:00:00 0.875 C 4.85 g/m*3 0.88 C 0.53333 km/h
Sensor: Nr:Datum:Temp:Abs-Feuchte:Windchill:Wind:
Aussen-T/F 676 16-02-2015 08:00:00 1.3 C 4.92 g/m*3 1.3 C 0.4 km/h
677 16-02-2015 09:00:00 2 C 4.94 g/m*3 2 C 1.06667 km/h
678 16-02-2015 10:00:00 2.53333 C 4.95 g/m*3 2.53 C 3.33333 km/h
679 16-02-2015 11:00:00 2.9 C 5 g/m*3 1.3 C 6.025 km/h
680 16-02-2015 12:00:00 3.18333 C 5.05 g/m*3 1.1 C 7.65833 km/h
681 16-02-2015 13:00:00 3.60833 C 5.15 g/m*3 1.8 C 6.975 km/h
682 16-02-2015 14:00:00 4.15833 C 5.25 g/m*3 2.66 C 6.29167 km/h
683 16-02-2015 15:00:00 4.00833 C 5.19 g/m*3 4.01 C 4.66667 km/h
684 16-02-2015 16:00:00 3.86667 C 5.17 g/m*3 3.87 C 4.4 km/h
685 16-02-2015 17:00:00 3.45 C 5.07 g/m*3 3.45 C 4.14167 km/h
686 16-02-2015 18:00:00 2.775 C 5 g/m*3 2.78 C 3.075 km/h
687 16-02-2015 19:00:00 2.50833 C 4.93 g/m*3 2.51 C 1.86667 km/h
688 16-02-2015 20:00:00 2.4 C 4.91 g/m*3 2.4 C 1.33333 km/h
689 16-02-2015 21:00:00 2.4 C 4.92 g/m*3 2.4 C 0.68571 km/h
690 16-02-2015 22:00:00 2.35 C 4.93 g/m*3 2.35 C 2.26667 km/h
691 16-02-2015 23:00:00 2.3 C 4.93 g/m*3 2.3 C 1.86667 km/h
692 17-02-2015 00:00:00 2.30833 C 4.94 g/m*3 2.31 C 1.6 km/h
693 17-02-2015 01:00:00 2.40833 C 4.99 g/m*3 2.41 C 0.8 km/h
694 17-02-2015 02:00:00 2.38333 C 5.03 g/m*3 2.38 C 0.53333 km/h
695 17-02-2015 03:00:00 2.3 C 4.93 g/m*3 2.3 C 2.14167 km/h
696 17-02-2015 04:00:00 2.125 C 4.89 g/m*3 2.13 C 3.075 km/h
697 17-02-2015 05:00:00 1.93333 C 4.9 g/m*3 1.93 C 4.26667 km/h
698 17-02-2015 06:00:00 1.9 C 4.95 g/m*3 1.9 C 4.13333 km/h
699 17-02-2015 07:00:00 1.9 C 4.95 g/m*3 1.9 C 4.80833 km/h
700 17-02-2015 08:00:00 1.95 C 4.93 g/m*3 0.58 C 5.09167 km/h
Sensor: Nr:Datum:Temp:Abs-Feuchte:Windchill:Wind:
Aussen-T/F 701 17-02-2015 09:00:00 2.15833 C 5 g/m*3 0.5 C 5.88333 km/h
702 17-02-2015 10:00:00 2.48333 C 5.11 g/m*3 2.48 C 3.46667 km/h
703 17-02-2015 11:00:00 2.925 C 5.25 g/m*3 2.93 C 3.6 km/h
704 17-02-2015 12:00:00 3.475 C 5.43 g/m*3 3.48 C 3.46667 km/h
705 17-02-2015 13:00:00 4.475 C 5.58 g/m*3 4.47 C 2.53333 km/h
706 17-02-2015 14:00:00 4.75833 C 5.59 g/m*3 4.76 C 4.41667 km/h
707 17-02-2015 15:00:00 4.86667 C 5.66 g/m*3 4.87 C 2.8 km/h
708 17-02-2015 16:00:00 4.875 C 5.68 g/m*3 4.88 C 1.86667 km/h
709 17-02-2015 17:00:00 4.68333 C 5.72 g/m*3 4.68 C 0 km/h
710 17-02-2015 18:00:00 4.33333 C 5.8 g/m*3 4.33 C 0.4 km/h
711 17-02-2015 19:00:00 4.2 C 5.83 g/m*3 4.2 C 0 km/h
712 17-02-2015 20:00:00 4.3 C 5.91 g/m*3 4.3 C 0.13333 km/h
713 17-02-2015 21:00:00 4.24167 C 5.95 g/m*3 4.24 C 0.13333 km/h
714 17-02-2015 22:00:00 4.23333 C 6.01 g/m*3 4.23 C 0.13333 km/h
715 17-02-2015 23:00:00 4.25833 C 6.02 g/m*3 4.26 C 0.13333 km/h
716 18-02-2015 00:00:00 4.25 C 5.93 g/m*3 4.25 C 2 km/h
717 18-02-2015 01:00:00 4.18333 C 5.88 g/m*3 4.18 C 0.26667 km/h
718 18-02-2015 02:00:00 4.1 C 5.89 g/m*3 4.1 C 2.26667 km/h
719 18-02-2015 03:00:00 4.1 C 5.95 g/m*3 4.1 C 0.4 km/h
720 18-02-2015 04:00:00 4.1 C 5.95 g/m*3 4.1 C 0.13333 km/h
721 18-02-2015 05:00:00 4 C 5.94 g/m*3 4 C 0 km/h
722 18-02-2015 06:00:00 3.63333 C 5.82 g/m*3 3.63 C 0 km/h
723 18-02-2015 07:00:00 3.71667 C 5.93 g/m*3 3.72 C 0 km/h
724 18-02-2015 08:00:00 3.9 C 6 g/m*3 3.9 C 1.33333 km/h
725 18-02-2015 09:00:00 4.14167 C 6.04 g/m*3 4.14 C 0.13333 km/h
Sensor: Nr:Datum:Temp:Abs-Feuchte:Windchill:Wind:
Aussen-T/F 726 18-02-2015 10:00:00 5.01667 C 6.25 g/m*3 5.02 C 2.13333 km/h
727 18-02-2015 11:00:00 5.73333 C 6.34 g/m*3 5.73 C 2.8 km/h
728 18-02-2015 12:00:00 6.01667 C 6.31 g/m*3 6.02 C 3.06667 km/h
729 18-02-2015 13:00:00 6.74167 C 6.29 g/m*3 6.74 C 4.53333 km/h
730 18-02-2015 14:00:00 6.83333 C 6.13 g/m*3 6.83 C 4 km/h
731 18-02-2015 15:00:00 6.88333 C 6.07 g/m*3 6.88 C 2.13333 km/h
732 18-02-2015 16:00:00 6.70833 C 5.92 g/m*3 6.71 C 1.33333 km/h
733 18-02-2015 17:00:00 6.13333 C 5.57 g/m*3 6.13 C 1.86667 km/h
734 18-02-2015 18:00:00 3.9 C 5.38 g/m*3 3.9 C 3.06667 km/h
735 18-02-2015 19:00:00 1.90833 C 4.96 g/m*3 1.91 C 3.86667 km/h
736 18-02-2015 20:00:00 1.29167 C 4.83 g/m*3 1.29 C 4.66667 km/h
737 18-02-2015 21:00:00 0.64167 C 4.69 g/m*3 0.64 C 2.8 km/h
738 18-02-2015 22:00:00 0.54167 C 4.65 g/m*3 0.54 C 3.46667 km/h
739 18-02-2015 23:00:00 -0.2 C 4.43 g/m*3 -0.2 C 0.66667 km/h
740 19-02-2015 00:00:00 -0.76667 C 4.32 g/m*3 -0.77 C 1.33333 km/h
741 19-02-2015 01:00:00 -1.24167 C 4.21 g/m*3 -1.24 C 0.66667 km/h
742 19-02-2015 02:00:00 -1.45 C 4.16 g/m*3 -1.45 C 0.26667 km/h
743 19-02-2015 03:00:00 -1.65833 C 4.12 g/m*3 -1.66 C 0.13333 km/h
744 19-02-2015 04:00:00 -1.18333 C 4.28 g/m*3 -1.18 C 0 km/h
745 19-02-2015 05:00:00 -0.38333 C 4.53 g/m*3 -0.38 C 1.6 km/h
746 19-02-2015 06:00:00 0.29167 C 4.7 g/m*3 0.29 C 2.14167 km/h
747 19-02-2015 07:00:00 0.64167 C 4.66 g/m*3 0.64 C 1.86667 km/h
748 19-02-2015 08:00:00 0.64167 C 4.58 g/m*3 0.64 C 4.675 km/h
749 19-02-2015 09:00:00 0.7 C 4.55 g/m*3 -0.95 C 5.35 km/h
750 19-02-2015 10:00:00 0.83333 C 4.5 g/m*3 -1.74 C 7.93333 km/h
Sensor: Nr:Datum:Temp:Abs-Feuchte:Windchill:Wind:
Aussen-T/F 751 19-02-2015 11:00:00 1.36667 C 4.57 g/m*3 -1.27 C 8.46667 km/h
752 19-02-2015 12:00:00 2.025 C 4.7 g/m*3 -0.49 C 8.46667 km/h
753 19-02-2015 13:00:00 2.20833 C 4.71 g/m*3 -0.12 C 7.91667 km/h
754 19-02-2015 14:00:00 2.53333 C 4.73 g/m*3 0.46 C 7.25833 km/h
755 19-02-2015 15:00:00 2.75833 C 4.74 g/m*3 0.34 C 8.59167 km/h
756 19-02-2015 16:00:00 2.55833 C 4.72 g/m*3 0.17 C 8.325 km/h
757 19-02-2015 17:00:00 2.575 C 4.77 g/m*3 2.58 C 4.54167 km/h
758 19-02-2015 18:00:00 2.33333 C 4.72 g/m*3 2.33 C 3.06667 km/h
759 19-02-2015 19:00:00 2.2 C 4.67 g/m*3 2.2 C 4.55 km/h
760 19-02-2015 20:00:00 1.94167 C 4.59 g/m*3 1.94 C 3.475 km/h
761 19-02-2015 21:00:00 1.45833 C 4.54 g/m*3 1.46 C 1.875 km/h
762 19-02-2015 22:00:00 1.1 C 4.53 g/m*3 1.1 C 2.66667 km/h
763 19-02-2015 23:00:00 1.28333 C 4.6 g/m*3 1.28 C 0.53333 km/h
764 20-02-2015 00:00:00 0.85 C 4.62 g/m*3 0.85 C 0 km/h
765 20-02-2015 01:00:00 1.375 C 4.73 g/m*3 1.38 C 0.66667 km/h
766 20-02-2015 02:00:00 1.79167 C 4.88 g/m*3 1.79 C 0.8 km/h
767 20-02-2015 03:00:00 3.825 C 5.35 g/m*3 1.7 C 8.20833 km/h
768 20-02-2015 04:00:00 4.43333 C 5.37 g/m*3 3.2 C 5.63333 km/h
769 20-02-2015 05:00:00 3.875 C 5.37 g/m*3 3.88 C 2.66667 km/h
770 20-02-2015 06:00:00 3.475 C 5.45 g/m*3 3.48 C 1.46667 km/h
771 20-02-2015 07:00:00 3.31667 C 5.47 g/m*3 3.32 C 1.06667 km/h
772 20-02-2015 08:00:00 4.61667 C 5.8 g/m*3 4.62 C 2.53333 km/h
773 20-02-2015 09:00:00 6.65 C 6.09 g/m*3 5.49 C 6.425 km/h
774 20-02-2015 10:00:00 7.375 C 6.27 g/m*3 6.75 C 5.08333 km/h
775 20-02-2015 11:00:00 8.90833 C 6.56 g/m*3 6.67 C 14.225 km/h
Sensor: Nr:Datum:Temp:Abs-Feuchte:Windchill:Wind:
Aussen-T/F 776 20-02-2015 12:00:00 9.54167 C 6.56 g/m*3 7.28 C 15.56667 km/h
777 20-02-2015 13:00:00 9.81667 C 6.48 g/m*3 7.32 C 18.25 km/h
778 20-02-2015 14:00:00 9.80833 C 6.5 g/m*3 8.66 C 8.6 km/h
779 20-02-2015 15:00:00 10.55833 C 6.46 g/m*3 9.62 C 8.19167 km/h
780 20-02-2015 16:00:00 11.60833 C 6.24 g/m*3 11.61 C 10.225 km/h
781 20-02-2015 17:00:00 11.21667 C 6.22 g/m*3 11.22 C 4.41667 km/h
782 20-02-2015 18:00:00 9.45 C 6.45 g/m*3 9.45 C 2.66667 km/h
783 20-02-2015 19:00:00 9.11667 C 6.39 g/m*3 9.12 C 2.94167 km/h
784 20-02-2015 20:00:00 9.78333 C 6.33 g/m*3 8.83 C 7.64167 km/h
785 20-02-2015 21:00:00 9.49167 C 6.63 g/m*3 8.71 C 6.7 km/h
786 20-02-2015 22:00:00 8.31667 C 6.78 g/m*3 8.32 C 4.68333 km/h
787 20-02-2015 23:00:00 7.93333 C 6.69 g/m*3 7.93 C 2.53333 km/h
788 21-02-2015 00:00:00 7.21667 C 6.73 g/m*3 7.22 C 2.53333 km/h
789 21-02-2015 01:00:00 7.44167 C 6.67 g/m*3 7.44 C 3.6 km/h
790 21-02-2015 02:00:00 7.425 C 6.57 g/m*3 6.76 C 5.21667 km/h
791 21-02-2015 03:00:00 6.94167 C 6.59 g/m*3 6.94 C 3.34167 km/h
792 21-02-2015 04:00:00 7.325 C 6.57 g/m*3 6.05 C 7.24167 km/h
793 21-02-2015 05:00:00 6.71667 C 6.63 g/m*3 5.69 C 6.025 km/h
794 21-02-2015 06:00:00 6.5 C 6.67 g/m*3 5.12 C 7.11667 km/h
795 21-02-2015 07:00:00 6.36667 C 6.55 g/m*3 4.22 C 10.35 km/h
796 21-02-2015 08:00:00 5.29167 C 5.8 g/m*3 2.91 C 10.475 km/h
797 21-02-2015 09:00:00 4.66667 C 5.76 g/m*3 3.67 C 5.08333 km/h
798 21-02-2015 10:00:00 4.85833 C 5.87 g/m*3 3.84 C 5.225 km/h
799 21-02-2015 11:00:00 5.28333 C 5.97 g/m*3 5.28 C 4.81667 km/h
800 21-02-2015 12:00:00 5.7 C 6.04 g/m*3 4.15 C 7.25833 km/h
Sensor: Nr:Datum:Temp:Abs-Feuchte:Windchill:Wind:
Aussen-T/F 801 21-02-2015 13:00:00 5.8 C 6.2 g/m*3 4.91 C 5.20833 km/h
802 21-02-2015 14:00:00 6.73333 C 6.14 g/m*3 4.79 C 9.68333 km/h
803 21-02-2015 15:00:00 6.33333 C 5.8 g/m*3 4.38 C 9.39167 km/h
804 21-02-2015 16:00:00 6.28333 C 5.52 g/m*3 4.73 C 7.65 km/h
805 21-02-2015 17:00:00 5.55833 C 5.41 g/m*3 5.56 C 4.275 km/h
806 21-02-2015 18:00:00 4.33333 C 5.41 g/m*3 4.33 C 3.86667 km/h
807 21-02-2015 19:00:00 3.1 C 5.31 g/m*3 3.1 C 3.06667 km/h
808 21-02-2015 20:00:00 2.35 C 5.22 g/m*3 2.35 C 1.46667 km/h
809 21-02-2015 21:00:00 1.75 C 5.08 g/m*3 1.75 C 0.26667 km/h
810 21-02-2015 22:00:00 1.3 C 4.96 g/m*3 1.3 C 0 km/h
811 21-02-2015 23:00:00 1.33333 C 5.01 g/m*3 1.33 C 0 km/h
812 22-02-2015 00:00:00 1.61667 C 5.13 g/m*3 1.62 C 1.33333 km/h
813 22-02-2015 01:00:00 1.68333 C 5.17 g/m*3 1.68 C 0 km/h
814 22-02-2015 02:00:00 2.10833 C 5.33 g/m*3 2.11 C 0.13333 km/h
815 22-02-2015 03:00:00 2.38333 C 5.46 g/m*3 2.38 C 0 km/h
816 22-02-2015 04:00:00 2.55 C 5.48 g/m*3 2.55 C 0.53333 km/h
817 22-02-2015 05:00:00 2.73333 C 5.53 g/m*3 2.73 C 0 km/h
818 22-02-2015 06:00:00 2.8 C 5.57 g/m*3 2.8 C 0.66667 km/h
819 22-02-2015 07:00:00 2.94167 C 5.54 g/m*3 2.94 C 2.4 km/h
820 22-02-2015 08:00:00 3.09167 C 5.5 g/m*3 3.09 C 2 km/h
821 22-02-2015 09:00:00 3.66667 C 5.51 g/m*3 3.67 C 0.8 km/h
822 22-02-2015 10:00:00 4.45 C 5.57 g/m*3 4.45 C 3.33333 km/h
823 22-02-2015 11:00:00 5.05 C 5.44 g/m*3 5.05 C 1.86667 km/h
824 22-02-2015 12:00:00 6.16667 C 5.25 g/m*3 6.17 C 4.54167 km/h
825 22-02-2015 13:00:00 7.73333 C 5.09 g/m*3 6.7 C 6.575 km/h
Sensor: Nr:Datum:Temp:Abs-Feuchte:Windchill:Wind:
Aussen-T/F 826 22-02-2015 14:00:00 7.525 C 4.62 g/m*3 6.36 C 6.96667 km/h
827 22-02-2015 15:00:00 7.70833 C 4.64 g/m*3 6.95 C 5.63333 km/h
828 22-02-2015 16:00:00 7.51667 C 4.71 g/m*3 6.53 C 6.30833 km/h
829 22-02-2015 17:00:00 6.39167 C 4.83 g/m*3 5.31 C 6.03333 km/h
830 22-02-2015 18:00:00 3.13333 C 4.78 g/m*3 3.13 C 2.53333 km/h
831 22-02-2015 19:00:00 1.95833 C 4.67 g/m*3 1.96 C 4 km/h
832 22-02-2015 20:00:00 1.51667 C 4.62 g/m*3 1.52 C 4.13333 km/h
833 22-02-2015 21:00:00 1.2 C 4.58 g/m*3 1.2 C 3.73333 km/h
834 22-02-2015 22:00:00 1.2 C 4.55 g/m*3 1.2 C 3.6 km/h
835 22-02-2015 23:00:00 2.175 C 4.66 g/m*3 0.67 C 5.49167 km/h
836 23-02-2015 00:00:00 2.96667 C 4.71 g/m*3 2.97 C 3.75 km/h
837 23-02-2015 01:00:00 3.675 C 4.63 g/m*3 2.49 C 5.225 km/h
838 23-02-2015 02:00:00 3.99167 C 4.67 g/m*3 3.99 C 4.275 km/h
839 23-02-2015 03:00:00 4.19167 C 4.63 g/m*3 4.19 C 2.94167 km/h
840 23-02-2015 04:00:00 4.36667 C 4.54 g/m*3 2.53 C 7.50833 km/h
841 23-02-2015 05:00:00 4.28333 C 4.62 g/m*3 2.07 C 8.86667 km/h
842 23-02-2015 06:00:00 3.59167 C 4.89 g/m*3 3.59 C 4.41667 km/h
843 23-02-2015 07:00:00 1.875 C 5.01 g/m*3 1.88 C 0.4 km/h
844 23-02-2015 08:00:00 1.13333 C 4.92 g/m*3 1.13 C 0 km/h
845 23-02-2015 09:00:00 1.075 C 4.96 g/m*3 1.08 C 0 km/h
846 23-02-2015 10:00:00 1.1 C 4.98 g/m*3 1.1 C 0.13333 km/h
847 23-02-2015 11:00:00 1.24167 C 5.07 g/m*3 1.24 C 0 km/h
848 23-02-2015 12:00:00 1.83333 C 5.3 g/m*3 1.83 C 0.26667 km/h
849 23-02-2015 13:00:00 3.01667 C 5.77 g/m*3 3.02 C 2.40833 km/h
850 23-02-2015 14:00:00 4.21667 C 6.22 g/m*3 4.22 C 3.08333 km/h
Sensor: Nr:Datum:Temp:Abs-Feuchte:Windchill:Wind:
Aussen-T/F 851 23-02-2015 15:00:00 5.075 C 6.5 g/m*3 3.79 C 6.05 km/h
852 23-02-2015 16:00:00 5.61667 C 6.58 g/m*3 3.91 C 7.79167 km/h
853 23-02-2015 17:00:00 5.55 C 6.61 g/m*3 5.55 C 3.60833 km/h
854 23-02-2015 18:00:00 4.74167 C 6.32 g/m*3 4.74 C 3.2 km/h
855 23-02-2015 19:00:00 4.74167 C 6.4 g/m*3 3.24 C 6.56667 km/h
856 23-02-2015 20:00:00 4.825 C 6.34 g/m*3 4.83 C 4 km/h
857 23-02-2015 21:00:00 3.74167 C 5.98 g/m*3 3.74 C 2.93333 km/h
858 23-02-2015 22:00:00 3.30833 C 5.84 g/m*3 3.31 C 2.93333 km/h
859 23-02-2015 23:00:00 3.10833 C 5.81 g/m*3 3.11 C 2 km/h
860 24-02-2015 00:00:00 2.96667 C 5.75 g/m*3 2.97 C 1.2 km/h
861 24-02-2015 01:00:00 2.4 C 5.54 g/m*3 2.4 C 1.46667 km/h
862 24-02-2015 02:00:00 2.01667 C 5.4 g/m*3 2.02 C 2.13333 km/h
863 24-02-2015 03:00:00 3.31667 C 5.76 g/m*3 1.98 C 5.475 km/h
864 24-02-2015 04:00:00 4.29167 C 5.59 g/m*3 1.77 C 10.20833 km/h
865 24-02-2015 05:00:00 3.975 C 5.42 g/m*3 1.85 C 8.31667 km/h
866 24-02-2015 06:00:00 3.74167 C 5.36 g/m*3 2.27 C 6.025 km/h
867 24-02-2015 07:00:00 4.075 C 5.37 g/m*3 2.14 C 7.65 km/h
868 24-02-2015 08:00:00 4.15 C 5.34 g/m*3 1.01 C 13.15 km/h
869 24-02-2015 09:00:00 4.475 C 5.44 g/m*3 0.82 C 16.9 km/h
870 24-02-2015 10:00:00 5.20833 C 5.65 g/m*3 1.64 C 17.56667 km/h
871 24-02-2015 11:00:00 5.81667 C 5.78 g/m*3 2.13 C 19.70833 km/h
872 24-02-2015 12:00:00 6.675 C 5.96 g/m*3 3.32 C 18.76667 km/h
873 24-02-2015 13:00:00 6.9 C 5.97 g/m*3 3.98 C 15.83333 km/h
874 24-02-2015 14:00:00 7.10833 C 6 g/m*3 4.66 C 12.9 km/h
875 24-02-2015 15:00:00 7.05 C 5.96 g/m*3 4.53 C 13.3 km/h
Sensor: Nr:Datum:Temp:Abs-Feuchte:Windchill:Wind:
Aussen-T/F 876 24-02-2015 16:00:00 7.175 C 6.06 g/m*3 5.32 C 9.68333 km/h
877 24-02-2015 17:00:00 6.85833 C 6.03 g/m*3 5.47 C 7.39167 km/h
878 24-02-2015 18:00:00 5.58333 C 5.91 g/m*3 4.62 C 5.34167 km/h
879 24-02-2015 19:00:00 5.225 C 5.91 g/m*3 4.26 C 5.20833 km/h
880 24-02-2015 20:00:00 5.575 C 5.89 g/m*3 4.25 C 6.43333 km/h
881 24-02-2015 21:00:00 5.275 C 5.9 g/m*3 3.66 C 7.25 km/h
882 24-02-2015 22:00:00 4.19167 C 5.69 g/m*3 3.08 C 5.21667 km/h
883 24-02-2015 23:00:00 3.21667 C 5.52 g/m*3 3.22 C 4.81667 km/h
884 25-02-2015 00:00:00 3.50833 C 5.62 g/m*3 3.51 C 4.40833 km/h
885 25-02-2015 01:00:00 2.93333 C 5.51 g/m*3 2.93 C 3.06667 km/h
886 25-02-2015 02:00:00 3.025 C 5.57 g/m*3 3.03 C 1.06667 km/h
887 25-02-2015 03:00:00 2.78333 C 5.53 g/m*3 2.78 C 1.33333 km/h
888 25-02-2015 04:00:00 2.58333 C 5.43 g/m*3 2.58 C 1.46667 km/h
889 25-02-2015 05:00:00 2.14167 C 5.3 g/m*3 2.14 C 2.13333 km/h
890 25-02-2015 06:00:00 1.4 C 5.05 g/m*3 1.4 C 1.2 km/h
891 25-02-2015 07:00:00 0.925 C 4.91 g/m*3 0.93 C 0.53333 km/h
892 25-02-2015 08:00:00 1.49167 C 5.16 g/m*3 1.49 C 2.8 km/h
893 25-02-2015 09:00:00 2.90833 C 5.52 g/m*3 0.27 C 9.55 km/h
894 25-02-2015 10:00:00 4.38333 C 5.69 g/m*3 1.37 C 12.76667 km/h
895 25-02-2015 11:00:00 5.25833 C 5.73 g/m*3 2.92 C 10.225 km/h
896 25-02-2015 12:00:00 7.00833 C 5.98 g/m*3 5.18 C 9.40833 km/h
897 25-02-2015 13:00:00 7.83333 C 5.99 g/m*3 5.72 C 11.83333 km/h
898 25-02-2015 14:00:00 7.925 C 5.88 g/m*3 5.68 C 12.76667 km/h
899 25-02-2015 15:00:00 7.89167 C 5.8 g/m*3 5.68 C 12.5 km/h
900 25-02-2015 16:00:00 7.25 C 5.77 g/m*3 5.41 C 9.68333 km/h
Sensor: Nr:Datum:Temp:Abs-Feuchte:Windchill:Wind:
Aussen-T/F 901 25-02-2015 17:00:00 5.99167 C 6.24 g/m*3 5.99 C 2.00833 km/h
902 25-02-2015 18:00:00 4.75 C 6.28 g/m*3 4.75 C 1.46667 km/h
903 25-02-2015 19:00:00 4.21667 C 6.17 g/m*3 4.22 C 0.13333 km/h
904 25-02-2015 20:00:00 4.10833 C 6.15 g/m*3 4.11 C 0 km/h
905 25-02-2015 21:00:00 4.14167 C 6.23 g/m*3 4.14 C 0.26667 km/h
906 25-02-2015 22:00:00 4.15833 C 6.23 g/m*3 4.16 C 0 km/h
907 25-02-2015 23:00:00 4.2 C 6.25 g/m*3 4.2 C 0 km/h
908 26-02-2015 00:00:00 4.2 C 6.25 g/m*3 4.2 C 0 km/h
909 26-02-2015 01:00:00 4.29167 C 6.29 g/m*3 4.29 C 1.33333 km/h
910 26-02-2015 02:00:00 4.19167 C 6.25 g/m*3 4.19 C 1.06667 km/h
911 26-02-2015 03:00:00 3.58333 C 6 g/m*3 3.58 C 0.8 km/h
912 26-02-2015 04:00:00 3.4 C 5.96 g/m*3 3.4 C 0 km/h
913 26-02-2015 05:00:00 3.5 C 6.01 g/m*3 3.5 C 0 km/h
914 26-02-2015 06:00:00 3.525 C 6.03 g/m*3 3.53 C 0 km/h
915 26-02-2015 07:00:00 3.25833 C 5.93 g/m*3 3.26 C 0 km/h
916 26-02-2015 08:00:00 3.35833 C 5.97 g/m*3 3.36 C 0.13333 km/h
917 26-02-2015 09:00:00 4.46667 C 6.43 g/m*3 4.47 C 3.46667 km/h
918 26-02-2015 10:00:00 6.40833 C 7.13 g/m*3 6.41 C 4.68333 km/h
919 26-02-2015 11:00:00 8.04167 C 7.12 g/m*3 8.04 C 4.14167 km/h
920 26-02-2015 12:00:00 8.45833 C 6.89 g/m*3 8.46 C 4.95 km/h
921 26-02-2015 13:00:00 8.85 C 6.85 g/m*3 8.85 C 4.54167 km/h
922 26-02-2015 14:00:00 9.225 C 6.83 g/m*3 9.23 C 4.26667 km/h
923 26-02-2015 15:00:00 9.575 C 6.66 g/m*3 8.74 C 6.975 km/h
924 26-02-2015 16:00:00 9.21667 C 6.59 g/m*3 8.42 C 6.58333 km/h
925 26-02-2015 17:00:00 8.45 C 6.65 g/m*3 8.45 C 1.73333 km/h
Sensor: Nr:Datum:Temp:Abs-Feuchte:Windchill:Wind:
Aussen-T/F 926 26-02-2015 18:00:00 7.1 C 6.77 g/m*3 7.1 C 0.66667 km/h
927 26-02-2015 19:00:00 6.49167 C 6.73 g/m*3 6.49 C 1.86667 km/h
928 26-02-2015 20:00:00 6.4 C 6.71 g/m*3 6.4 C 1.06667 km/h
929 26-02-2015 21:00:00 6.43333 C 6.73 g/m*3 6.43 C 0.8 km/h
930 26-02-2015 22:00:00 6.60833 C 6.73 g/m*3 6.61 C 3.46667 km/h
931 26-02-2015 23:00:00 6.49167 C 6.86 g/m*3 6.49 C 0.4 km/h
932 27-02-2015 00:00:00 5.9 C 6.87 g/m*3 5.9 C 0 km/h
933 27-02-2015 01:00:00 5.79167 C 6.88 g/m*3 5.79 C 0.4 km/h
934 27-02-2015 02:00:00 5.65833 C 6.87 g/m*3 5.66 C 0 km/h
935 27-02-2015 03:00:00 5.69167 C 6.9 g/m*3 5.69 C 0 km/h
936 27-02-2015 04:00:00 5.61667 C 6.87 g/m*3 5.62 C 0 km/h
937 27-02-2015 05:00:00 5.56667 C 6.84 g/m*3 5.57 C 0 km/h
938 27-02-2015 06:00:00 5.45 C 6.82 g/m*3 5.45 C 0 km/h
939 27-02-2015 07:00:00 5.53333 C 6.89 g/m*3 5.53 C 4.425 km/h
940 27-02-2015 08:00:00 4.91667 C 6.41 g/m*3 1.81 C 13.96667 km/h
941 27-02-2015 09:00:00 4.29167 C 6.07 g/m*3 0.81 C 15.44167 km/h
942 27-02-2015 10:00:00 4.99167 C 6.24 g/m*3 1.57 C 16.1 km/h
943 27-02-2015 11:00:00 5.45 C 6.4 g/m*3 3.42 C 9 km/h
944 27-02-2015 12:00:00 6.11667 C 6.52 g/m*3 3.55 C 12.36667 km/h
945 27-02-2015 13:00:00 6.15833 C 6.36 g/m*3 3.92 C 10.61667 km/h
946 27-02-2015 14:00:00 5.91667 C 6.14 g/m*3 3.76 C 9.96667 km/h
947 27-02-2015 15:00:00 5.96667 C 6.16 g/m*3 4 C 9.15 km/h
948 27-02-2015 16:00:00 5.90833 C 5.96 g/m*3 4.05 C 8.6 km/h
949 27-02-2015 17:00:00 5.83333 C 5.89 g/m*3 5.83 C 4.68333 km/h
950 27-02-2015 18:00:00 5.11667 C 5.92 g/m*3 5.12 C 1.73333 km/h
Sensor: Nr:Datum:Temp:Abs-Feuchte:Windchill:Wind:
Aussen-T/F 951 27-02-2015 19:00:00 4.25 C 5.75 g/m*3 4.25 C 3.33333 km/h
952 27-02-2015 20:00:00 3.13333 C 5.46 g/m*3 3.13 C 3.06667 km/h
953 27-02-2015 21:00:00 2.70833 C 5.38 g/m*3 2.71 C 0.93333 km/h
954 27-02-2015 22:00:00 2.40833 C 5.28 g/m*3 2.41 C 1.73333 km/h
955 27-02-2015 23:00:00 2.04167 C 5.13 g/m*3 2.04 C 2 km/h
956 28-02-2015 00:00:00 2.39167 C 5.2 g/m*3 2.39 C 2.8 km/h
957 28-02-2015 01:00:00 1.2 C 4.86 g/m*3 1.2 C 0.26667 km/h
958 28-02-2015 02:00:00 0.33333 C 4.69 g/m*3 0.33 C 1.06667 km/h
959 28-02-2015 03:00:00 0.01667 C 4.63 g/m*3 0.02 C 0.53333 km/h
960 28-02-2015 04:00:00 -0.29167 C 4.55 g/m*3 -0.29 C 0.53333 km/h
961 28-02-2015 05:00:00 -0.76667 C 4.41 g/m*3 -0.77 C 0.4 km/h
962 28-02-2015 06:00:00 -1.00833 C 4.34 g/m*3 -1.01 C 0 km/h
963 28-02-2015 07:00:00 -1.10833 C 4.34 g/m*3 -1.11 C 0.4 km/h
964 28-02-2015 08:00:00 -1.03333 C 4.37 g/m*3 -1.03 C 1.2 km/h
965 28-02-2015 09:00:00 -0.475 C 4.56 g/m*3 -0.48 C 0.93333 km/h
966 28-02-2015 10:00:00 0.28333 C 4.82 g/m*3 0.28 C 1.2 km/h
967 28-02-2015 11:00:00 1.15833 C 5.14 g/m*3 1.16 C 1.73333 km/h
968 28-02-2015 12:00:00 4.24167 C 5.57 g/m*3 1.86 C 9.53333 km/h
969 28-02-2015 13:00:00 6.69167 C 5.12 g/m*3 4.27 C 12.23333 km/h
970 28-02-2015 14:00:00 7.48333 C 5.2 g/m*3 5.1 C 13.03333 km/h
971 28-02-2015 15:00:00 8.39167 C 4.94 g/m*3 6.74 C 9.81667 km/h
972 28-02-2015 16:00:00 7.88333 C 4.7 g/m*3 6.16 C 9.68333 km/h
973 28-02-2015 17:00:00 5.825 C 5.23 g/m*3 5.83 C 3.06667 km/h
974 28-02-2015 18:00:00 3.33333 C 5.1 g/m*3 2.06 C 5.33333 km/h
975 28-02-2015 19:00:00 2.24167 C 4.93 g/m*3 0.65 C 5.73333 km/h
Sensor: Nr:Datum:Temp:Abs-Feuchte:Windchill:Wind:
Aussen-T/F 976 28-02-2015 20:00:00 1.85833 C 4.82 g/m*3 1.86 C 4.8 km/h
977 28-02-2015 21:00:00 1.84167 C 4.79 g/m*3 1.84 C 4.8 km/h
978 28-02-2015 22:00:00 2.46667 C 4.85 g/m*3 2.47 C 3.6 km/h
979 28-02-2015 23:00:00 3.96667 C 4.81 g/m*3 3.97 C 3.75 km/h
980 01-03-2015 00:00:00 4.11667 C 4.91 g/m*3 4.12 C 2.13333 km/h
981 01-03-2015 01:00:00 4.56667 C 4.84 g/m*3 4.57 C 3.74167 km/h
982 01-03-2015 02:00:00 5.20833 C 4.8 g/m*3 5.21 C 4.275 km/h
983 01-03-2015 03:00:00 5.15833 C 5.17 g/m*3 5.16 C 4.81667 km/h
984 01-03-2015 04:00:00 4.19167 C 5.83 g/m*3 4.19 C 1.6 km/h
985 01-03-2015 05:00:00 3.80833 C 5.89 g/m*3 3.81 C 0.66667 km/h
986 01-03-2015 06:00:00 4.10833 C 6.01 g/m*3 4.11 C 2.8 km/h
987 01-03-2015 07:00:00 4.49167 C 6.21 g/m*3 4.49 C 2.53333 km/h
988 01-03-2015 08:00:00 5.48333 C 6.61 g/m*3 3.9 C 7.24167 km/h
989 01-03-2015 09:00:00 6.99167 C 6.99 g/m*3 5.13 C 9.54167 km/h
990 01-03-2015 10:00:00 7.78333 C 7.35 g/m*3 6.21 C 8.875 km/h
991 01-03-2015 11:00:00 8.94167 C 7.58 g/m*3 7.08 C 11.7 km/h
992 01-03-2015 12:00:00 10.29167 C 7.93 g/m*3 8.62 C 12.36667 km/h
993 01-03-2015 13:00:00 11.425 C 7.27 g/m*3 11.43 C 23.05833 km/h
994 01-03-2015 14:00:00 11.56667 C 6.57 g/m*3 11.57 C 15.3 km/h
995 01-03-2015 15:00:00 11.8 C 6.92 g/m*3 11.8 C 13.95833 km/h
996 01-03-2015 16:00:00 11.85833 C 7.09 g/m*3 11.86 C 16.36667 km/h
997 01-03-2015 17:00:00 10.50833 C 7.16 g/m*3 9.29 C 9.675 km/h
998 01-03-2015 18:00:00 8.175 C 7.23 g/m*3 8.18 C 3.73333 km/h
999 01-03-2015 19:00:00 7.68333 C 7.04 g/m*3 7.68 C 2.93333 km/h
1000 01-03-2015 20:00:00 8.45833 C 6.9 g/m*3 8.46 C 4.15 km/h
Sensor: Nr:Datum:Temp:Abs-Feuchte:Windchill:Wind:
Aussen-T/F 1001 01-03-2015 21:00:00 9.125 C 6.92 g/m*3 9.13 C 4.14167 km/h
1002 01-03-2015 22:00:00 9.39167 C 7.14 g/m*3 7.94 C 9.8 km/h
1003 01-03-2015 23:00:00 10.025 C 7.16 g/m*3 8.58 C 10.48333 km/h
1004 02-03-2015 00:00:00 9.69167 C 7.25 g/m*3 8.09 C 11.025 km/h
1005 02-03-2015 01:00:00 9.06667 C 7.62 g/m*3 7.53 C 9.925 km/h
1006 02-03-2015 02:00:00 9.2 C 7.47 g/m*3 6.86 C 15.56667 km/h
1007 02-03-2015 03:00:00 7.86667 C 6.49 g/m*3 5.39 C 14.23333 km/h
1008 02-03-2015 04:00:00 7.21667 C 6.21 g/m*3 6 C 6.96667 km/h
1009 02-03-2015 05:00:00 6.78333 C 6.18 g/m*3 6.07 C 5.09167 km/h
1010 02-03-2015 06:00:00 6.51667 C 5.86 g/m*3 4.93 C 7.93333 km/h
1011 02-03-2015 07:00:00 5.84167 C 5.91 g/m*3 3.88 C 8.99167 km/h
1012 02-03-2015 08:00:00 5.26667 C 5.85 g/m*3 2.71 C 11.29167 km/h
1013 02-03-2015 09:00:00 5.05 C 5.91 g/m*3 2.18 C 12.75 km/h
1014 02-03-2015 10:00:00 5.63333 C 5.92 g/m*3 5.63 C 4.41667 km/h
1015 02-03-2015 11:00:00 6.90833 C 5.75 g/m*3 5.56 C 7.25 km/h
1016 02-03-2015 12:00:00 8.58333 C 5.36 g/m*3 5.99 C 16.36667 km/h
1017 02-03-2015 13:00:00 9.375 C 5.02 g/m*3 6.68 C 19.04167 km/h
1018 02-03-2015 14:00:00 9.55833 C 4.74 g/m*3 7.11 C 17.16667 km/h
1019 02-03-2015 15:00:00 9.475 C 4.6 g/m*3 6.85 C 18.63333 km/h
1020 02-03-2015 16:00:00 5.98333 C 5.7 g/m*3 2.5 C 18.375 km/h
1021 02-03-2015 17:00:00 4.675 C 5.74 g/m*3 1.01 C 17.30833 km/h
1022 02-03-2015 18:00:00 3.30833 C 5.31 g/m*3 -0.02 C 13.16667 km/h
1023 02-03-2015 19:00:00 2.74167 C 5.31 g/m*3 1.21 C 5.76667 km/h
1024 02-03-2015 20:00:00 2.33333 C 5.27 g/m*3 -1.05 C 12.35833 km/h
1025 02-03-2015 21:00:00 2.33333 C 5.16 g/m*3 -0.83 C 11.3 km/h
Sensor: Nr:Datum:Temp:Abs-Feuchte:Windchill:Wind:
Aussen-T/F 1026 02-03-2015 22:00:00 2.23333 C 5.2 g/m*3 0.69 C 5.625 km/h
1027 02-03-2015 23:00:00 1.875 C 5.12 g/m*3 0.44 C 5.21667 km/h
1028 03-03-2015 00:00:00 2.225 C 5.08 g/m*3 0.06 C 7.38333 km/h
1029 03-03-2015 01:00:00 3.225 C 5.06 g/m*3 0.64 C 9.55833 km/h
1030 03-03-2015 02:00:00 3.15833 C 4.96 g/m*3 0.8 C 8.60833 km/h
1031 03-03-2015 03:00:00 2.31667 C 4.88 g/m*3 0.39 C 6.70833 km/h
1032 03-03-2015 04:00:00 1.70833 C 4.84 g/m*3 0.15 C 5.475 km/h
1033 03-03-2015 05:00:00 2.45833 C 4.98 g/m*3 1.16 C 5.09167 km/h
1034 03-03-2015 06:00:00 2.8 C 5.01 g/m*3 1.14 C 6.15833 km/h
1035 03-03-2015 07:00:00 2.775 C 4.99 g/m*3 0.42 C 8.34167 km/h
1036 03-03-2015 08:00:00 2.64167 C 5.02 g/m*3 0.76 C 6.71667 km/h
1037 03-03-2015 09:00:00 3.39167 C 5.21 g/m*3 1.19 C 8.2 km/h
1038 03-03-2015 10:00:00 5.475 C 5.51 g/m*3 2.47 C 14.1 km/h
1039 03-03-2015 11:00:00 7.375 C 5.51 g/m*3 4.62 C 15.43333 km/h
1040 03-03-2015 12:00:00 8.575 C 5.53 g/m*3 5.75 C 18.36667 km/h
1041 03-03-2015 13:00:00 9.575 C 5.43 g/m*3 6.83 C 20.10833 km/h
1042 03-03-2015 14:00:00 10.61667 C 5.52 g/m*3 8.01 C 21.575 km/h
1043 03-03-2015 15:00:00 10.65 C 5.5 g/m*3 8.16 C 20.36667 km/h
1044 03-03-2015 16:00:00 10.44167 C 5.45 g/m*3 8.12 C 18.1 km/h
1045 03-03-2015 17:00:00 9.40833 C 5.61 g/m*3 7.16 C 15.16667 km/h
1046 03-03-2015 18:00:00 8.425 C 5.98 g/m*3 5.48 C 19.175 km/h
1047 03-03-2015 19:00:00 5.89167 C 6.34 g/m*3 3.5 C 11.14167 km/h
1048 03-03-2015 20:00:00 5.325 C 6.29 g/m*3 4.32 C 5.34167 km/h
1049 03-03-2015 21:00:00 5.63333 C 6.23 g/m*3 3.73 C 8.59167 km/h
1050 03-03-2015 22:00:00 4.84167 C 5.92 g/m*3 2.55 C 9.65833 km/h
Sensor: Nr:Datum:Temp:Abs-Feuchte:Windchill:Wind:
Aussen-T/F 1051 03-03-2015 23:00:00 3.74167 C 5.63 g/m*3 1.29 C 9.40833 km/h
1052 04-03-2015 00:00:00 3.64167 C 5.64 g/m*3 2.2 C 5.9 km/h
1053 04-03-2015 01:00:00 3.85 C 5.59 g/m*3 1.55 C 8.875 km/h
1054 04-03-2015 02:00:00 3.38333 C 5.5 g/m*3 1.3 C 7.76667 km/h
1055 04-03-2015 03:00:00 2.975 C 5.5 g/m*3 1.54 C 5.61667 km/h
1056 04-03-2015 04:00:00 2.26667 C 5.32 g/m*3 2.27 C 3.2 km/h
1057 04-03-2015 05:00:00 1.675 C 5.13 g/m*3 1.68 C 3.60833 km/h
1058 04-03-2015 06:00:00 1.525 C 5.11 g/m*3 1.53 C 3.73333 km/h
1059 04-03-2015 07:00:00 1.43333 C 5.04 g/m*3 1.43 C 3.6 km/h
1060 04-03-2015 08:00:00 2.20833 C 5.17 g/m*3 0.3 C 6.58333 km/h
1061 04-03-2015 09:00:00 3.55 C 5.23 g/m*3 0.33 C 12.9 km/h
1062 04-03-2015 10:00:00 4.35 C 5.39 g/m*3 1.26 C 13.15833 km/h
1063 04-03-2015 11:00:00 5.71667 C 5.57 g/m*3 2.65 C 14.9 km/h
1064 04-03-2015 12:00:00 7.05833 C 5.58 g/m*3 4.28 C 15.03333 km/h
1065 04-03-2015 13:00:00 8.20833 C 5.47 g/m*3 5.75 C 14.63333 km/h
1066 04-03-2015 14:00:00 8.01667 C 5.21 g/m*3 5.59 C 14.09167 km/h
1067 04-03-2015 15:00:00 7.81667 C 5 g/m*3 5.49 C 13.16667 km/h
1068 04-03-2015 16:00:00 7.60833 C 5.15 g/m*3 5.68 C 10.49167 km/h
1069 04-03-2015 17:00:00 6.63333 C 5.45 g/m*3 4.44 C 10.85 km/h
1070 04-03-2015 18:00:00 4.675 C 5.78 g/m*3 2.81 C 7.79167 km/h
1071 04-03-2015 19:00:00 3.8 C 5.53 g/m*3 3.8 C 4.4 km/h
1072 04-03-2015 20:00:00 3.70833 C 5.45 g/m*3 2.43 C 5.46667 km/h
1073 04-03-2015 21:00:00 4.78333 C 5.44 g/m*3 2.9 C 7.925 km/h
1074 04-03-2015 22:00:00 4.84167 C 5.64 g/m*3 2.61 C 9.39167 km/h
1075 04-03-2015 23:00:00 4.7 C 5.75 g/m*3 2.73 C 8.2 km/h
Sensor: Nr:Datum:Temp:Abs-Feuchte:Windchill:Wind:
Aussen-T/F 1076 05-03-2015 00:00:00 4.85 C 5.7 g/m*3 2.68 C 9.13333 km/h
1077 05-03-2015 01:00:00 4.3 C 5.53 g/m*3 2.09 C 8.86667 km/h
1078 05-03-2015 02:00:00 4.475 C 5.61 g/m*3 2.57 C 7.79167 km/h
1079 05-03-2015 03:00:00 3.91667 C 5.5 g/m*3 2.2 C 6.84167 km/h
1080 05-03-2015 04:00:00 3.375 C 5.39 g/m*3 3.38 C 4.40833 km/h
1081 05-03-2015 05:00:00 3.71667 C 5.48 g/m*3 3.72 C 3.6 km/h
1082 05-03-2015 06:00:00 3.21667 C 5.39 g/m*3 3.22 C 3.74167 km/h
1083 05-03-2015 07:00:00 2.525 C 5.26 g/m*3 2.53 C 3.60833 km/h
1084 05-03-2015 08:00:00 3.05 C 5.48 g/m*3 3.05 C 2.53333 km/h
1085 05-03-2015 09:00:00 4.20833 C 5.68 g/m*3 2.71 C 6.3 km/h
1086 05-03-2015 10:00:00 5.24167 C 5.8 g/m*3 3.44 C 7.93333 km/h
1087 05-03-2015 11:00:00 5.75833 C 5.83 g/m*3 3.94 C 8.34167 km/h
1088 05-03-2015 12:00:00 6.55 C 5.95 g/m*3 4.36 C 10.76667 km/h
1089 05-03-2015 13:00:00 7.575 C 5.97 g/m*3 5.72 C 10.08333 km/h
1090 05-03-2015 14:00:00 7.68333 C 5.75 g/m*3 5.51 C 11.95833 km/h
1091 05-03-2015 15:00:00 8.25833 C 5.62 g/m*3 6.34 C 11.16667 km/h
1092 05-03-2015 16:00:00 8.15833 C 5.64 g/m*3 6.65 C 8.88333 km/h
1093 05-03-2015 17:00:00 7.55833 C 5.48 g/m*3 6.82 C 5.5 km/h
1094 05-03-2015 18:00:00 6.25833 C 5.89 g/m*3 6.26 C 1.6 km/h
1095 05-03-2015 19:00:00 5.41667 C 5.96 g/m*3 5.42 C 3.33333 km/h
1096 05-03-2015 20:00:00 5.15833 C 5.99 g/m*3 5.16 C 0.8 km/h
1097 05-03-2015 21:00:00 4.41667 C 5.8 g/m*3 4.42 C 2.26667 km/h
1098 05-03-2015 22:00:00 3.64167 C 5.53 g/m*3 3.64 C 3.2 km/h
1099 05-03-2015 23:00:00 2.775 C 5.35 g/m*3 2.78 C 0.8 km/h
1100 06-03-2015 00:00:00 2.08333 C 5.14 g/m*3 2.08 C 0.26667 km/h
Sensor: Nr:Datum:Temp:Abs-Feuchte:Windchill:Wind:
Aussen-T/F 1101 06-03-2015 01:00:00 1.60833 C 5.03 g/m*3 1.61 C 0.8 km/h
1102 06-03-2015 02:00:00 1.15 C 4.89 g/m*3 1.15 C 0.26667 km/h
1103 06-03-2015 03:00:00 1.11667 C 4.92 g/m*3 1.12 C 0 km/h
1104 06-03-2015 04:00:00 0.45833 C 4.7 g/m*3 0.46 C 0.13333 km/h
1105 06-03-2015 05:00:00 -0.01667 C 4.59 g/m*3 -0.02 C 0.13333 km/h
1106 06-03-2015 06:00:00 -0.41667 C 4.48 g/m*3 -0.42 C 0.13333 km/h
1107 06-03-2015 07:00:00 -0.44167 C 4.51 g/m*3 -0.44 C 0.93333 km/h
1108 06-03-2015 08:00:00 -0.03333 C 4.64 g/m*3 -0.03 C 0.26667 km/h
1109 06-03-2015 09:00:00 1.11667 C 5.02 g/m*3 1.12 C 1.2 km/h
1110 06-03-2015 10:00:00 3.45 C 5.69 g/m*3 3.45 C 2.81667 km/h
1111 06-03-2015 11:00:00 6.8 C 6.14 g/m*3 5.67 C 6.41667 km/h
1112 06-03-2015 12:00:00 9.00833 C 5.98 g/m*3 8.56 C 5.21667 km/h
1113 06-03-2015 13:00:00 9.30833 C 5.96 g/m*3 9.31 C 4.54167 km/h
1114 06-03-2015 14:00:00 9.88333 C 5.98 g/m*3 9.52 C 5.33333 km/h
1115 06-03-2015 15:00:00 10.05 C 5.65 g/m*3 10.05 C 3.73333 km/h
1116 06-03-2015 16:00:00 10.11667 C 5.65 g/m*3 10.12 C 3.60833 km/h
1117 06-03-2015 17:00:00 9.56667 C 6 g/m*3 9.57 C 3.34167 km/h
1118 06-03-2015 18:00:00 6.95 C 6.1 g/m*3 6.95 C 3.2 km/h
1119 06-03-2015 19:00:00 5.23333 C 5.8 g/m*3 5.23 C 3.73333 km/h
1120 06-03-2015 20:00:00 4.625 C 5.67 g/m*3 4.63 C 3.33333 km/h
1121 06-03-2015 21:00:00 3.65 C 5.43 g/m*3 3.65 C 1.33333 km/h
1122 06-03-2015 22:00:00 2.53333 C 5.16 g/m*3 2.53 C 0 km/h
1123 06-03-2015 23:00:00 1.78333 C 4.98 g/m*3 1.78 C 0 km/h
1124 07-03-2015 00:00:00 1.35 C 4.89 g/m*3 1.35 C 0.26667 km/h
1125 07-03-2015 01:00:00 0.70833 C 4.71 g/m*3 0.71 C 0.26667 km/h
Sensor: Nr:Datum:Temp:Abs-Feuchte:Windchill:Wind:
Aussen-T/F 1126 07-03-2015 02:00:00 0.3 C 4.64 g/m*3 0.3 C 0.13333 km/h
1127 07-03-2015 03:00:00 0.03333 C 4.56 g/m*3 0.03 C 0.4 km/h
1128 07-03-2015 04:00:00 -0.35 C 4.47 g/m*3 -0.35 C 0 km/h
1129 07-03-2015 05:00:00 -0.6 C 4.42 g/m*3 -0.6 C 0 km/h
1130 07-03-2015 06:00:00 -0.675 C 4.4 g/m*3 -0.68 C 0.66667 km/h
1131 07-03-2015 07:00:00 -0.49167 C 4.5 g/m*3 -0.49 C 0.26667 km/h
1132 07-03-2015 08:00:00 0.15 C 4.7 g/m*3 0.15 C 0.53333 km/h
1133 07-03-2015 09:00:00 1.33333 C 5.07 g/m*3 1.33 C 0.53333 km/h
1134 07-03-2015 10:00:00 3.43333 C 5.5 g/m*3 3.43 C 2.53333 km/h
1135 07-03-2015 11:00:00 5.56667 C 5.86 g/m*3 5.57 C 2.26667 km/h
1136 07-03-2015 12:00:00 8.71667 C 6.54 g/m*3 8.72 C 2.8 km/h
1137 07-03-2015 13:00:00 12.10833 C 6.71 g/m*3 12.11 C 2.53333 km/h
1138 07-03-2015 14:00:00 13.65833 C 6.12 g/m*3 13.66 C 4.53333 km/h
1139 07-03-2015 15:00:00 13.66667 C 6.02 g/m*3 13.67 C 5.21667 km/h
1140 07-03-2015 16:00:00 12.75833 C 6.06 g/m*3 12.76 C 4.68333 km/h
1141 07-03-2015 17:00:00 11.575 C 6.02 g/m*3 11.58 C 6.85 km/h
1142 07-03-2015 18:00:00 9.71667 C 6.13 g/m*3 8.75 C 7.65833 km/h
1143 07-03-2015 19:00:00 8.125 C 6.01 g/m*3 6.82 C 7.93333 km/h
1144 07-03-2015 20:00:00 6.11667 C 5.91 g/m*3 6.12 C 3.33333 km/h
1145 07-03-2015 21:00:00 4.69167 C 5.74 g/m*3 4.69 C 3.73333 km/h
1146 07-03-2015 22:00:00 3.93333 C 5.57 g/m*3 3.93 C 0.8 km/h
1147 07-03-2015 23:00:00 3.21667 C 5.39 g/m*3 3.22 C 0.8 km/h
1148 08-03-2015 00:00:00 2.525 C 5.22 g/m*3 2.53 C 0.13333 km/h
1149 08-03-2015 01:00:00 2.01667 C 5.12 g/m*3 2.02 C 0 km/h
1150 08-03-2015 02:00:00 1.75 C 5.08 g/m*3 1.75 C 0 km/h
Sensor: Nr:Datum:Temp:Abs-Feuchte:Windchill:Wind:
Aussen-T/F 1151 08-03-2015 03:00:00 1.18333 C 4.89 g/m*3 1.18 C 0 km/h
1152 08-03-2015 04:00:00 0.68333 C 4.77 g/m*3 0.68 C 0.13333 km/h
1153 08-03-2015 05:00:00 0.11667 C 4.61 g/m*3 0.12 C 0 km/h
1154 08-03-2015 06:00:00 -0.2 C 4.54 g/m*3 -0.2 C 0.13333 km/h
1155 08-03-2015 07:00:00 -0.35833 C 4.52 g/m*3 -0.36 C 0 km/h
1156 08-03-2015 08:00:00 -0.05833 C 4.63 g/m*3 -0.06 C 0 km/h
1157 08-03-2015 09:00:00 0.95833 C 4.97 g/m*3 0.96 C 0.13333 km/h
1158 08-03-2015 10:00:00 3.20833 C 5.74 g/m*3 3.21 C 0.13333 km/h
1159 08-03-2015 11:00:00 5.93333 C 6.51 g/m*3 5.93 C 0.13333 km/h
1160 08-03-2015 12:00:00 9.68333 C 7.56 g/m*3 9.68 C 1.73333 km/h
1161 08-03-2015 13:00:00 12.83333 C 7.9 g/m*3 12.83 C 0.53333 km/h
1162 08-03-2015 14:00:00 15.7 C 7.3 g/m*3 15.7 C 2.26667 km/h
1163 08-03-2015 15:00:00 16.7 C 7.47 g/m*3 16.7 C 2.93333 km/h
1164 08-03-2015 16:00:00 15.55 C 7.61 g/m*3 15.55 C 3.2 km/h
1165 08-03-2015 17:00:00 13.75833 C 7.32 g/m*3 13.76 C 4.28333 km/h
1166 08-03-2015 18:00:00 10.16667 C 7.01 g/m*3 9.92 C 5.06667 km/h
1167 08-03-2015 19:00:00 8.35 C 6.66 g/m*3 8.35 C 3.73333 km/h
1168 08-03-2015 20:00:00 7.275 C 6.47 g/m*3 7.28 C 2.26667 km/h
1169 08-03-2015 21:00:00 6.61667 C 6.31 g/m*3 6.62 C 2.8 km/h
1170 08-03-2015 22:00:00 5.98333 C 6.11 g/m*3 5.98 C 1.73333 km/h
1171 08-03-2015 23:00:00 4.975 C 5.86 g/m*3 4.97 C 1.33333 km/h
1172 09-03-2015 00:00:00 4.51667 C 5.82 g/m*3 4.52 C 1.86667 km/h
1173 09-03-2015 01:00:00 3.85833 C 5.64 g/m*3 3.86 C 1.86667 km/h
1174 09-03-2015 02:00:00 3.3 C 5.55 g/m*3 3.3 C 2.26667 km/h
1175 09-03-2015 03:00:00 3.5 C 5.67 g/m*3 3.5 C 2 km/h
Sensor: Nr:Datum:Temp:Abs-Feuchte:Windchill:Wind:
Aussen-T/F 1176 09-03-2015 04:00:00 3.15833 C 5.59 g/m*3 3.16 C 0.4 km/h
1177 09-03-2015 05:00:00 3.65833 C 5.83 g/m*3 3.66 C 0.66667 km/h
1178 09-03-2015 06:00:00 4.13333 C 5.97 g/m*3 4.13 C 0.4 km/h
1179 09-03-2015 07:00:00 4.50833 C 6.08 g/m*3 4.51 C 0 km/h
1180 09-03-2015 08:00:00 5.28333 C 6.28 g/m*3 5.28 C 0.13333 km/h
1181 09-03-2015 09:00:00 6.53333 C 6.62 g/m*3 6.53 C 0.4 km/h
1182 09-03-2015 10:00:00 7.975 C 7.11 g/m*3 7.98 C 0.66667 km/h
1183 09-03-2015 11:00:00 9.725 C 7.68 g/m*3 9.73 C 3.2 km/h
1184 09-03-2015 12:00:00 12.55 C 8.23 g/m*3 12.55 C 5.75833 km/h
1185 09-03-2015 13:00:00 14.26667 C 8.49 g/m*3 14.27 C 7.65 km/h
1186 09-03-2015 14:00:00 15.03333 C 8.43 g/m*3 15.03 C 6.3 km/h
1187 09-03-2015 15:00:00 15.69167 C 8.44 g/m*3 15.69 C 7.10833 km/h
1188 09-03-2015 16:00:00 14.55833 C 8.15 g/m*3 14.56 C 6.84167 km/h
1189 09-03-2015 17:00:00 12.53333 C 8.24 g/m*3 12.53 C 2.13333 km/h
1190 09-03-2015 18:00:00 9.925 C 7.75 g/m*3 9.93 C 4.13333 km/h
1191 09-03-2015 19:00:00 8.31667 C 7.32 g/m*3 8.32 C 2.26667 km/h
1192 09-03-2015 20:00:00 7.46667 C 7.12 g/m*3 7.47 C 0.66667 km/h
1193 09-03-2015 21:00:00 6.55 C 6.82 g/m*3 6.55 C 0.13333 km/h
1194 09-03-2015 22:00:00 5.66667 C 6.56 g/m*3 5.67 C 0.13333 km/h
1195 09-03-2015 23:00:00 4.81667 C 6.29 g/m*3 4.82 C 0.13333 km/h
1196 10-03-2015 00:00:00 4.29167 C 6.16 g/m*3 4.29 C 0.4 km/h
1197 10-03-2015 01:00:00 3.94167 C 6.06 g/m*3 3.94 C 0.26667 km/h
1198 10-03-2015 02:00:00 3.53333 C 5.92 g/m*3 3.53 C 0.13333 km/h
1199 10-03-2015 03:00:00 3.28333 C 5.82 g/m*3 3.28 C 0.8 km/h
1200 10-03-2015 04:00:00 2.55 C 5.55 g/m*3 2.55 C 0.13333 km/h
Sensor: Nr:Datum:Temp:Abs-Feuchte:Windchill:Wind:
Aussen-T/F 1201 10-03-2015 05:00:00 2.31667 C 5.51 g/m*3 2.32 C 0.53333 km/h
1202 10-03-2015 06:00:00 2.9 C 5.73 g/m*3 2.9 C 0.4 km/h
1203 10-03-2015 07:00:00 3.53333 C 5.98 g/m*3 3.53 C 1.33333 km/h
1204 10-03-2015 08:00:00 4.04167 C 6.19 g/m*3 4.04 C 0.8 km/h
1205 10-03-2015 09:00:00 4.61667 C 6.43 g/m*3 4.62 C 0 km/h
1206 10-03-2015 10:00:00 5.2 C 6.68 g/m*3 5.2 C 0.53333 km/h
1207 10-03-2015 11:00:00 5.74167 C 6.92 g/m*3 5.74 C 0 km/h
1208 10-03-2015 12:00:00 6.45833 C 7.29 g/m*3 6.46 C 0 km/h
1209 10-03-2015 13:00:00 7.40833 C 7.8 g/m*3 7.41 C 0.13333 km/h
1210 10-03-2015 14:00:00 8.10833 C 8.12 g/m*3 8.11 C 1.2 km/h
1211 10-03-2015 15:00:00 8.625 C 8.41 g/m*3 8.63 C 0.53333 km/h
1212 10-03-2015 16:00:00 8.9 C 8.51 g/m*3 8.9 C 1.33333 km/h
1213 10-03-2015 17:00:00 9.25833 C 8.65 g/m*3 9.26 C 1.33333 km/h
1214 10-03-2015 18:00:00 7.96667 C 7.87 g/m*3 7.97 C 3.86667 km/h
1215 10-03-2015 19:00:00 6.79167 C 7.37 g/m*3 6.79 C 1.6 km/h
1216 10-03-2015 20:00:00 6.225 C 7.15 g/m*3 6.23 C 0.8 km/h
1217 10-03-2015 21:00:00 5.68333 C 6.91 g/m*3 5.68 C 0 km/h
1218 10-03-2015 22:00:00 6.10833 C 7.16 g/m*3 6.11 C 0.4 km/h
1219 10-03-2015 23:00:00 6.03333 C 7.13 g/m*3 6.03 C 0.53333 km/h
1220 11-03-2015 00:00:00 5.25 C 6.75 g/m*3 5.25 C 0 km/h
1221 11-03-2015 01:00:00 3.54167 C 5.99 g/m*3 3.54 C 2.8 km/h
1222 11-03-2015 02:00:00 2.825 C 5.74 g/m*3 2.83 C 2.4 km/h
1223 11-03-2015 03:00:00 2.03333 C 5.43 g/m*3 2.03 C 0.26667 km/h
1224 11-03-2015 04:00:00 1.18333 C 5.11 g/m*3 1.18 C 0 km/h
1225 11-03-2015 05:00:00 1.13333 C 5.13 g/m*3 1.13 C 0 km/h
Sensor: Nr:Datum:Temp:Abs-Feuchte:Windchill:Wind:
Aussen-T/F 1226 11-03-2015 06:00:00 2.025 C 5.45 g/m*3 2.03 C 1.46667 km/h
1227 11-03-2015 07:00:00 2.18333 C 5.51 g/m*3 2.18 C 2.13333 km/h
1228 11-03-2015 08:00:00 2.26667 C 5.54 g/m*3 2.27 C 1.86667 km/h
1229 11-03-2015 09:00:00 2.63333 C 5.68 g/m*3 2.63 C 2.13333 km/h
1230 11-03-2015 10:00:00 3.075 C 5.85 g/m*3 3.08 C 1.86667 km/h
1231 11-03-2015 11:00:00 3.64167 C 5.92 g/m*3 3.64 C 1.2 km/h
1232 11-03-2015 12:00:00 6.64167 C 6.21 g/m*3 6.64 C 2.93333 km/h
1233 11-03-2015 13:00:00 9.20833 C 6.12 g/m*3 9.21 C 3.33333 km/h
1234 11-03-2015 14:00:00 9.55833 C 5.73 g/m*3 9.56 C 4.68333 km/h
1235 11-03-2015 15:00:00 10.69167 C 5.71 g/m*3 10.48 C 5.21667 km/h
1236 11-03-2015 16:00:00 9.96667 C 5.35 g/m*3 9.97 C 4 km/h
1237 11-03-2015 17:00:00 8.44167 C 6.05 g/m*3 8.44 C 3.06667 km/h
1238 11-03-2015 18:00:00 6.10833 C 5.93 g/m*3 6.11 C 4.94167 km/h
1239 11-03-2015 19:00:00 4.45 C 5.61 g/m*3 4.45 C 2.4 km/h
1240 11-03-2015 20:00:00 3.35 C 5.38 g/m*3 3.35 C 0 km/h
1241 11-03-2015 21:00:00 2.53333 C 5.15 g/m*3 2.53 C 0 km/h
1242 11-03-2015 22:00:00 1.675 C 4.88 g/m*3 1.68 C 0 km/h
1243 11-03-2015 23:00:00 1.075 C 4.74 g/m*3 1.08 C 0 km/h
1244 12-03-2015 00:00:00 0.44167 C 4.61 g/m*3 0.44 C 0 km/h
1245 12-03-2015 01:00:00 -0.1 C 4.48 g/m*3 -0.1 C 0 km/h
1246 12-03-2015 02:00:00 -0.46667 C 4.42 g/m*3 -0.47 C 0 km/h
1247 12-03-2015 03:00:00 -0.66667 C 4.4 g/m*3 -0.67 C 0.26667 km/h
1248 12-03-2015 04:00:00 -0.84167 C 4.34 g/m*3 -0.84 C 0 km/h
1249 12-03-2015 05:00:00 -1.15833 C 4.25 g/m*3 -1.16 C 0.13333 km/h
1250 12-03-2015 06:00:00 -1.41667 C 4.2 g/m*3 -1.42 C 0 km/h
Sensor: Nr:Datum:Temp:Abs-Feuchte:Windchill:Wind:
Aussen-T/F 1251 12-03-2015 07:00:00 -1.40833 C 4.22 g/m*3 -1.41 C 0 km/h
1252 12-03-2015 08:00:00 -1.11667 C 4.31 g/m*3 -1.12 C 0 km/h
1253 12-03-2015 09:00:00 -0.075 C 4.67 g/m*3 -0.08 C 0 km/h
1254 12-03-2015 10:00:00 1.85 C 5.29 g/m*3 1.85 C 0.93333 km/h
1255 12-03-2015 11:00:00 4.38333 C 6.07 g/m*3 4.38 C 0.93333 km/h
1256 12-03-2015 12:00:00 9.625 C 6.61 g/m*3 8.64 C 7.65 km/h
1257 12-03-2015 13:00:00 11.60833 C 6.2 g/m*3 11.61 C 6.7 km/h
1258 12-03-2015 14:00:00 11.74167 C 5.88 g/m*3 11.74 C 7.38333 km/h
1259 12-03-2015 15:00:00 12.59167 C 5.6 g/m*3 12.59 C 8.99167 km/h
1260 12-03-2015 16:00:00 11.9 C 5.35 g/m*3 11.9 C 6.99167 km/h
1261 12-03-2015 17:00:00 11.05833 C 5.53 g/m*3 11.06 C 5.9 km/h
1262 12-03-2015 18:00:00 7.4 C 5.86 g/m*3 6.56 C 5.73333 km/h
1263 12-03-2015 19:00:00 5.44167 C 5.64 g/m*3 3.93 C 6.96667 km/h
1264 12-03-2015 20:00:00 4.4 C 5.53 g/m*3 4.4 C 0.66667 km/h
1265 12-03-2015 21:00:00 3.46667 C 5.32 g/m*3 3.47 C 0 km/h
1266 12-03-2015 22:00:00 3.05 C 5.19 g/m*3 3.05 C 3.46667 km/h
1267 12-03-2015 23:00:00 2.425 C 4.9 g/m*3 2.42 C 3.6 km/h
1268 13-03-2015 00:00:00 2.21667 C 4.86 g/m*3 2.22 C 3.46667 km/h
1269 13-03-2015 01:00:00 2.25833 C 4.88 g/m*3 2.26 C 3.73333 km/h
1270 13-03-2015 02:00:00 2.14167 C 4.85 g/m*3 2.14 C 3.6 km/h
1271 13-03-2015 03:00:00 1.275 C 4.68 g/m*3 1.27 C 2.4 km/h
1272 13-03-2015 04:00:00 0.49167 C 4.54 g/m*3 0.49 C 2.66667 km/h
1273 13-03-2015 05:00:00 0.14167 C 4.5 g/m*3 0.14 C 3.6 km/h
1274 13-03-2015 06:00:00 -0.06667 C 4.49 g/m*3 -0.07 C 3.33333 km/h
1275 13-03-2015 07:00:00 -0.09167 C 4.5 g/m*3 -0.09 C 1.33333 km/h
Sensor: Nr:Datum:Temp:Abs-Feuchte:Windchill:Wind:
Aussen-T/F 1276 13-03-2015 08:00:00 0.325 C 4.66 g/m*3 0.33 C 1.33333 km/h
1277 13-03-2015 09:00:00 1.88333 C 5.07 g/m*3 1.88 C 4.41667 km/h
1278 13-03-2015 10:00:00 4.825 C 5.17 g/m*3 2.98 C 7.80833 km/h
1279 13-03-2015 11:00:00 6.09167 C 5.17 g/m*3 3.94 C 10.09167 km/h
1280 13-03-2015 12:00:00 7.58333 C 5.03 g/m*3 5.46 C 11.56667 km/h
1281 13-03-2015 13:00:00 7.9 C 4.78 g/m*3 6.13 C 9.94167 km/h
1282 13-03-2015 14:00:00 7.78333 C 4.68 g/m*3 5.7 C 11.55 km/h
1283 13-03-2015 15:00:00 7.81667 C 4.55 g/m*3 6.55 C 7.53333 km/h
1284 13-03-2015 16:00:00 7.43333 C 4.56 g/m*3 6.21 C 7.11667 km/h
1285 13-03-2015 17:00:00 7.01667 C 4.71 g/m*3 7.02 C 4.00833 km/h
1286 13-03-2015 18:00:00 6.3 C 4.84 g/m*3 6.3 C 2.53333 km/h
1287 13-03-2015 19:00:00 5.99167 C 5.01 g/m*3 5.99 C 3.2 km/h
1288 13-03-2015 20:00:00 5.48333 C 5.11 g/m*3 5.48 C 2.13333 km/h
1289 13-03-2015 21:00:00 5.24167 C 5.14 g/m*3 5.24 C 2.95 km/h
1290 13-03-2015 22:00:00 4.84167 C 5.07 g/m*3 4.84 C 3.06667 km/h
1291 13-03-2015 23:00:00 4.6 C 5.06 g/m*3 4.6 C 2.675 km/h
1292 14-03-2015 00:00:00 4.225 C 4.98 g/m*3 4.22 C 2.4 km/h
1293 14-03-2015 01:00:00 3.90833 C 4.9 g/m*3 3.91 C 1.33333 km/h
1294 14-03-2015 02:00:00 3.83333 C 4.87 g/m*3 3.83 C 0.93333 km/h
1295 14-03-2015 03:00:00 3.69167 C 4.88 g/m*3 3.69 C 0.8 km/h
1296 14-03-2015 04:00:00 3.15 C 4.83 g/m*3 3.15 C 1.86667 km/h
1297 14-03-2015 05:00:00 2.425 C 4.73 g/m*3 2.42 C 2.13333 km/h
1298 14-03-2015 06:00:00 1.45833 C 4.61 g/m*3 1.46 C 2.66667 km/h
1299 14-03-2015 07:00:00 2.06667 C 4.84 g/m*3 2.07 C 0.13333 km/h
1300 14-03-2015 08:00:00 3.15833 C 4.97 g/m*3 3.16 C 1.73333 km/h
Sensor: Nr:Datum:Temp:Abs-Feuchte:Windchill:Wind:
Aussen-T/F 1301 14-03-2015 09:00:00 4.25833 C 5.09 g/m*3 4.26 C 3.73333 km/h
1302 14-03-2015 10:00:00 5.20833 C 5.21 g/m*3 3.51 C 7.525 km/h
1303 14-03-2015 11:00:00 5.575 C 5.32 g/m*3 3.56 C 9.01667 km/h
1304 14-03-2015 12:00:00 5.96667 C 5.49 g/m*3 4.18 C 8.35 km/h
1305 14-03-2015 13:00:00 7.09167 C 5.81 g/m*3 4.96 C 11.025 km/h
1306 14-03-2015 14:00:00 7.33333 C 5.85 g/m*3 5.71 C 8.725 km/h
1307 14-03-2015 15:00:00 7.55833 C 5.97 g/m*3 6.09 C 8.20833 km/h
1308 14-03-2015 16:00:00 6.84167 C 6.27 g/m*3 6.84 C 3.06667 km/h
1309 14-03-2015 17:00:00 5.81667 C 6.39 g/m*3 5.82 C 0.8 km/h
1310 14-03-2015 18:00:00 5.06667 C 6.3 g/m*3 5.07 C 0.8 km/h
1311 14-03-2015 19:00:00 4.625 C 6.2 g/m*3 4.63 C 1.73333 km/h
1312 14-03-2015 20:00:00 4.175 C 5.94 g/m*3 4.18 C 1.46667 km/h
1313 14-03-2015 21:00:00 3.975 C 5.87 g/m*3 3.98 C 1.86667 km/h
1314 14-03-2015 22:00:00 4.025 C 5.84 g/m*3 4.03 C 1.6 km/h
1315 14-03-2015 23:00:00 3.875 C 5.75 g/m*3 3.88 C 1.33333 km/h
1316 15-03-2015 00:00:00 3.9 C 5.73 g/m*3 3.9 C 1.33333 km/h
1317 15-03-2015 01:00:00 3.74167 C 5.68 g/m*3 3.74 C 0.66667 km/h
1318 15-03-2015 02:00:00 3.66667 C 5.72 g/m*3 3.67 C 0.26667 km/h
1319 15-03-2015 03:00:00 3.78333 C 5.78 g/m*3 3.78 C 0.53333 km/h
1320 15-03-2015 04:00:00 3.7 C 5.86 g/m*3 3.7 C 0.53333 km/h
1321 15-03-2015 05:00:00 3.675 C 5.91 g/m*3 3.68 C 0.93333 km/h
1322 15-03-2015 06:00:00 3.60833 C 5.9 g/m*3 3.61 C 0.66667 km/h
1323 15-03-2015 07:00:00 3.7 C 5.98 g/m*3 3.7 C 0.93333 km/h
1324 15-03-2015 08:00:00 4.00833 C 6.11 g/m*3 4.01 C 1.06667 km/h
1325 15-03-2015 09:00:00 4.625 C 6.26 g/m*3 4.63 C 1.2 km/h
Sensor: Nr:Datum:Temp:Abs-Feuchte:Windchill:Wind:
Aussen-T/F 1326 15-03-2015 10:00:00 5.34167 C 6.3 g/m*3 4.15 C 5.89167 km/h
1327 15-03-2015 11:00:00 5.84167 C 6.25 g/m*3 5.84 C 4.8 km/h
1328 15-03-2015 12:00:00 6.30833 C 6.22 g/m*3 4.79 C 7.525 km/h
1329 15-03-2015 13:00:00 6.89167 C 6.33 g/m*3 5.41 C 7.78333 km/h
1330 15-03-2015 14:00:00 7.225 C 6.29 g/m*3 6.08 C 6.70833 km/h
1331 15-03-2015 15:00:00 7.06667 C 6.21 g/m*3 7.07 C 4.69167 km/h
1332 15-03-2015 16:00:00 6.99167 C 6.21 g/m*3 6.99 C 4 km/h
1333 15-03-2015 17:00:00 6.725 C 6.15 g/m*3 6.73 C 3.46667 km/h
1334 15-03-2015 18:00:00 6.175 C 6.15 g/m*3 6.18 C 1.6 km/h
1335 15-03-2015 19:00:00 4.68333 C 5.86 g/m*3 3.7 C 5.06667 km/h
1336 15-03-2015 20:00:00 3.28333 C 5.51 g/m*3 1.85 C 5.73333 km/h
1337 15-03-2015 21:00:00 2.56667 C 5.38 g/m*3 2.57 C 2.93333 km/h
1338 15-03-2015 22:00:00 1.85833 C 5.17 g/m*3 1.86 C 0.8 km/h
1339 15-03-2015 23:00:00 1.28333 C 5.01 g/m*3 1.28 C 0.93333 km/h
1340 16-03-2015 00:00:00 0.85833 C 4.89 g/m*3 0.86 C 0.26667 km/h
1341 16-03-2015 01:00:00 0.43333 C 4.78 g/m*3 0.43 C 0 km/h
1342 16-03-2015 02:00:00 0.025 C 4.66 g/m*3 0.03 C 0 km/h
1343 16-03-2015 03:00:00 -0.28333 C 4.56 g/m*3 -0.28 C 0 km/h
1344 16-03-2015 04:00:00 -0.64167 C 4.45 g/m*3 -0.64 C 0 km/h
1345 16-03-2015 05:00:00 -0.875 C 4.41 g/m*3 -0.88 C 0.13333 km/h
1346 16-03-2015 06:00:00 -0.8 C 4.45 g/m*3 -0.8 C 0 km/h
1347 16-03-2015 07:00:00 -0.85 C 4.43 g/m*3 -0.85 C 0.26667 km/h
1348 16-03-2015 08:00:00 0.03333 C 4.72 g/m*3 0.03 C 0.13333 km/h
1349 16-03-2015 09:00:00 1.975 C 5.44 g/m*3 1.98 C 0 km/h
1350 16-03-2015 10:00:00 3.56667 C 6.04 g/m*3 3.57 C 0 km/h
Sensor: Nr:Datum:Temp:Abs-Feuchte:Windchill:Wind:
Aussen-T/F 1351 16-03-2015 11:00:00 5.95 C 6.49 g/m*3 4.85 C 5.90833 km/h
1352 16-03-2015 12:00:00 9.05 C 6.59 g/m*3 7.66 C 9.13333 km/h
1353 16-03-2015 13:00:00 11.00833 C 6.74 g/m*3 11.01 C 9.55833 km/h
1354 16-03-2015 14:00:00 12.14167 C 6.9 g/m*3 12.14 C 7.53333 km/h
1355 16-03-2015 15:00:00 12.91667 C 6.92 g/m*3 12.92 C 8.46667 km/h
1356 16-03-2015 16:00:00 12.96667 C 6.83 g/m*3 12.97 C 5.21667 km/h
1357 16-03-2015 17:00:00 11.58333 C 7.52 g/m*3 11.58 C 1.33333 km/h
1358 16-03-2015 18:00:00 8.7 C 7.04 g/m*3 8.7 C 4.00833 km/h
1359 16-03-2015 19:00:00 6.68333 C 6.48 g/m*3 6.68 C 3.86667 km/h
1360 16-03-2015 20:00:00 5.5 C 6.19 g/m*3 5.5 C 1.6 km/h
1361 16-03-2015 21:00:00 4.8 C 6.03 g/m*3 4.8 C 0 km/h
1362 16-03-2015 22:00:00 4.2 C 5.86 g/m*3 4.2 C 0.26667 km/h
1363 16-03-2015 23:00:00 3.46667 C 5.64 g/m*3 3.47 C 0 km/h
1364 17-03-2015 00:00:00 2.76667 C 5.48 g/m*3 2.77 C 0 km/h
1365 17-03-2015 01:00:00 2.21667 C 5.31 g/m*3 2.22 C 0 km/h
1366 17-03-2015 02:00:00 1.65 C 5.15 g/m*3 1.65 C 0 km/h
1367 17-03-2015 03:00:00 1.25833 C 5.05 g/m*3 1.26 C 0 km/h
1368 17-03-2015 04:00:00 0.83333 C 4.93 g/m*3 0.83 C 0 km/h
1369 17-03-2015 05:00:00 0.59167 C 4.84 g/m*3 0.59 C 0 km/h
1370 17-03-2015 06:00:00 0.4 C 4.8 g/m*3 0.4 C 0 km/h
1371 17-03-2015 07:00:00 0.56667 C 4.89 g/m*3 0.57 C 0 km/h
1372 17-03-2015 08:00:00 1.025 C 5.04 g/m*3 1.02 C 0.26667 km/h
1373 17-03-2015 09:00:00 2.175 C 5.48 g/m*3 2.17 C 0 km/h
1374 17-03-2015 10:00:00 5.10833 C 6.7 g/m*3 5.11 C 0.13333 km/h
1375 17-03-2015 11:00:00 8.13333 C 7.46 g/m*3 8.13 C 0.93333 km/h
Sensor: Nr:Datum:Temp:Abs-Feuchte:Windchill:Wind:
Aussen-T/F 1376 17-03-2015 12:00:00 12.975 C 7.82 g/m*3 12.98 C 3.46667 km/h
1377 17-03-2015 13:00:00 15.45833 C 7.44 g/m*3 15.46 C 6.41667 km/h
1378 17-03-2015 14:00:00 16.76667 C 7.57 g/m*3 16.77 C 7.65833 km/h
1379 17-03-2015 15:00:00 18.23333 C 7.27 g/m*3 18.23 C 7.65833 km/h
1380 17-03-2015 16:00:00 17.48333 C 6.8 g/m*3 17.48 C 5.89167 km/h
1381 17-03-2015 17:00:00 15.44167 C 7.85 g/m*3 15.44 C 3.46667 km/h
1382 17-03-2015 18:00:00 12.29167 C 7.73 g/m*3 12.29 C 6.7 km/h
1383 17-03-2015 19:00:00 10.28333 C 7.37 g/m*3 9.59 C 6.84167 km/h
1384 17-03-2015 20:00:00 8.9 C 7.19 g/m*3 8.9 C 3.60833 km/h
1385 17-03-2015 21:00:00 7.79167 C 6.87 g/m*3 7.79 C 0.93333 km/h
1386 17-03-2015 22:00:00 6.46667 C 6.53 g/m*3 6.47 C 0.26667 km/h
1387 17-03-2015 23:00:00 5.575 C 6.32 g/m*3 5.58 C 0 km/h
1388 18-03-2015 00:00:00 4.98333 C 6.19 g/m*3 4.98 C 0.13333 km/h
1389 18-03-2015 01:00:00 4.175 C 5.93 g/m*3 4.18 C 0.13333 km/h
1390 18-03-2015 02:00:00 3.66667 C 5.83 g/m*3 3.67 C 0.26667 km/h
1391 18-03-2015 03:00:00 3.21667 C 5.72 g/m*3 3.22 C 0 km/h
1392 18-03-2015 04:00:00 2.81667 C 5.58 g/m*3 2.82 C 0.13333 km/h
1393 18-03-2015 05:00:00 2.375 C 5.44 g/m*3 2.38 C 0.13333 km/h
1394 18-03-2015 06:00:00 1.81667 C 5.27 g/m*3 1.82 C 0 km/h
1395 18-03-2015 07:00:00 1.94167 C 5.31 g/m*3 1.94 C 0 km/h
1396 18-03-2015 08:00:00 2.50833 C 5.58 g/m*3 2.51 C 0.13333 km/h
1397 18-03-2015 09:00:00 4.21667 C 6.26 g/m*3 4.22 C 0.13333 km/h
1398 18-03-2015 10:00:00 7.29167 C 7.35 g/m*3 7.29 C 0.13333 km/h
1399 18-03-2015 11:00:00 10.49167 C 8.08 g/m*3 10.49 C 0.53333 km/h
1400 18-03-2015 12:00:00 14.78333 C 8.67 g/m*3 14.78 C 2.8 km/h
Sensor: Nr:Datum:Temp:Abs-Feuchte:Windchill:Wind:
Aussen-T/F 1401 18-03-2015 13:00:00 17.19167 C 8.39 g/m*3 17.19 C 4.66667 km/h
1402 18-03-2015 14:00:00 17.61667 C 8.17 g/m*3 17.62 C 10.9 km/h
1403 18-03-2015 15:00:00 17.4 C 8.13 g/m*3 17.4 C 14.23333 km/h
1404 18-03-2015 16:00:00 16.83333 C 7.71 g/m*3 16.83 C 13.7 km/h
1405 18-03-2015 17:00:00 16.30833 C 7.87 g/m*3 16.31 C 9.425 km/h
1406 18-03-2015 18:00:00 14.26667 C 8.04 g/m*3 14.27 C 4.54167 km/h
1407 18-03-2015 19:00:00 12.04167 C 7.8 g/m*3 12.04 C 4.95 km/h
1408 18-03-2015 20:00:00 12.30833 C 7.74 g/m*3 12.31 C 7.65833 km/h
1409 18-03-2015 21:00:00 11.25833 C 8.08 g/m*3 11.26 C 5.76667 km/h
1410 18-03-2015 22:00:00 9.64167 C 7.95 g/m*3 9.64 C 4.95 km/h
1411 18-03-2015 23:00:00 8.99167 C 7.85 g/m*3 7.84 C 7.925 km/h
1412 19-03-2015 00:00:00 8.73333 C 7.76 g/m*3 7.89 C 6.45 km/h
1413 19-03-2015 01:00:00 8.35833 C 7.71 g/m*3 6.84 C 9.13333 km/h
1414 19-03-2015 02:00:00 7.95833 C 7.62 g/m*3 6.39 C 9.00833 km/h
1415 19-03-2015 03:00:00 7.54167 C 7.51 g/m*3 6.27 C 7.38333 km/h
1416 19-03-2015 04:00:00 7.225 C 7.46 g/m*3 5.67 C 8.35 km/h
1417 19-03-2015 05:00:00 6.99167 C 7.36 g/m*3 5.53 C 7.78333 km/h
1418 19-03-2015 06:00:00 6.86667 C 7.35 g/m*3 5.41 C 7.66667 km/h
1419 19-03-2015 07:00:00 6.8 C 7.32 g/m*3 5.37 C 7.51667 km/h
1420 19-03-2015 08:00:00 6.825 C 7.27 g/m*3 5.54 C 6.975 km/h
1421 19-03-2015 09:00:00 7.13333 C 7.27 g/m*3 7.13 C 3.86667 km/h
1422 19-03-2015 10:00:00 7.53333 C 7.31 g/m*3 7.53 C 4.4 km/h
1423 19-03-2015 11:00:00 7.48333 C 7.31 g/m*3 6 C 8.2 km/h
1424 19-03-2015 12:00:00 7.56667 C 7.4 g/m*3 6.2 C 7.8 km/h
1425 19-03-2015 13:00:00 7.625 C 7.42 g/m*3 6.05 C 8.74167 km/h
Sensor: Nr:Datum:Temp:Abs-Feuchte:Windchill:Wind:
Aussen-T/F 1426 19-03-2015 14:00:00 7.725 C 7.44 g/m*3 6 C 9.56667 km/h
1427 19-03-2015 15:00:00 8.11667 C 7.53 g/m*3 6.6 C 8.88333 km/h
1428 19-03-2015 16:00:00 8.175 C 7.57 g/m*3 6.67 C 8.89167 km/h
1429 19-03-2015 17:00:00 8.075 C 7.52 g/m*3 6.96 C 7.125 km/h
1430 19-03-2015 18:00:00 8.06667 C 7.47 g/m*3 6.98 C 6.98333 km/h
1431 19-03-2015 19:00:00 7.9 C 7.39 g/m*3 6.9 C 6.575 km/h
1432 19-03-2015 20:00:00 7.75 C 7.3 g/m*3 6.54 C 7.26667 km/h
1433 19-03-2015 21:00:00 7.625 C 7.26 g/m*3 6.81 C 5.75833 km/h
1434 19-03-2015 22:00:00 7.525 C 7.22 g/m*3 7.53 C 4.80833 km/h
1435 19-03-2015 23:00:00 7.38333 C 7.2 g/m*3 7.38 C 4 km/h
1436 20-03-2015 00:00:00 7.3 C 7.11 g/m*3 7.3 C 2.13333 km/h
1437 20-03-2015 01:00:00 7.15833 C 7.05 g/m*3 7.16 C 1.46667 km/h
1438 20-03-2015 02:00:00 6.94167 C 6.95 g/m*3 6.94 C 3.06667 km/h
1439 20-03-2015 03:00:00 6.775 C 6.83 g/m*3 6.78 C 4.80833 km/h
1440 20-03-2015 04:00:00 6.59167 C 6.71 g/m*3 6.59 C 3.86667 km/h
1441 20-03-2015 05:00:00 6.30833 C 6.64 g/m*3 6.31 C 2.8 km/h
1442 20-03-2015 06:00:00 6.13333 C 6.59 g/m*3 6.13 C 3.06667 km/h
1443 20-03-2015 07:00:00 6.13333 C 6.59 g/m*3 6.13 C 3.2 km/h
1444 20-03-2015 08:00:00 6.39167 C 6.62 g/m*3 6.39 C 4.4 km/h
1445 20-03-2015 09:00:00 6.725 C 6.62 g/m*3 6.73 C 4.4 km/h
1446 20-03-2015 10:00:00 6.79167 C 6.54 g/m*3 6.79 C 2.53333 km/h
1447 20-03-2015 11:00:00 7.08333 C 6.62 g/m*3 7.08 C 3.6 km/h
1448 20-03-2015 12:00:00 9.01667 C 7.05 g/m*3 8.53 C 5.35 km/h
1449 20-03-2015 13:00:00 11.075 C 7.21 g/m*3 11.08 C 4.81667 km/h
1450 20-03-2015 14:00:00 12.425 C 7.38 g/m*3 12.43 C 4.675 km/h
Sensor: Nr:Datum:Temp:Abs-Feuchte:Windchill:Wind:
Aussen-T/F 1451 20-03-2015 15:00:00 14.075 C 7.19 g/m*3 14.08 C 4.66667 km/h
1452 20-03-2015 16:00:00 13.83333 C 6.77 g/m*3 13.83 C 4.53333 km/h
1453 20-03-2015 17:00:00 13.28333 C 6.87 g/m*3 13.28 C 8.33333 km/h
1454 20-03-2015 18:00:00 10.53333 C 7.11 g/m*3 9.73 C 7.51667 km/h
1455 20-03-2015 19:00:00 8.175 C 6.78 g/m*3 7.61 C 5.225 km/h
1456 20-03-2015 20:00:00 6.31667 C 6.45 g/m*3 6.32 C 3.73333 km/h
1457 20-03-2015 21:00:00 5.1 C 6.21 g/m*3 5.1 C 2.8 km/h
1458 20-03-2015 22:00:00 4.55 C 6.12 g/m*3 4.55 C 2 km/h
1459 20-03-2015 23:00:00 5.075 C 6.39 g/m*3 5.08 C 1.33333 km/h
1460 21-03-2015 00:00:00 5.39167 C 6.47 g/m*3 5.39 C 0.93333 km/h
1461 21-03-2015 01:00:00 5.53333 C 6.48 g/m*3 5.53 C 0.53333 km/h
1462 21-03-2015 02:00:00 5.49167 C 6.43 g/m*3 5.49 C 4.13333 km/h
1463 21-03-2015 03:00:00 5.33333 C 6.37 g/m*3 5.33 C 4.81667 km/h
1464 21-03-2015 04:00:00 5.24167 C 6.32 g/m*3 3.58 C 7.39167 km/h
1465 21-03-2015 05:00:00 4.85833 C 6.19 g/m*3 3.89 C 5.075 km/h
1466 21-03-2015 06:00:00 4.64167 C 6.01 g/m*3 4.64 C 4.825 km/h
1467 21-03-2015 07:00:00 4.79167 C 5.95 g/m*3 4.79 C 2.13333 km/h
1468 21-03-2015 08:00:00 5.13333 C 6.04 g/m*3 5.13 C 1.06667 km/h
1469 21-03-2015 09:00:00 5.5 C 6.2 g/m*3 4.62 C 5.06667 km/h
1470 21-03-2015 10:00:00 5.29167 C 6.29 g/m*3 5.29 C 3.06667 km/h
1471 21-03-2015 11:00:00 5.45833 C 6.49 g/m*3 5.46 C 4.15833 km/h
1472 21-03-2015 12:00:00 6.38333 C 6.46 g/m*3 4.88 C 7.51667 km/h
1473 21-03-2015 13:00:00 7.49167 C 6.39 g/m*3 7.49 C 4.41667 km/h
1474 21-03-2015 14:00:00 7.65833 C 6.19 g/m*3 6.34 C 7.65833 km/h
1475 21-03-2015 15:00:00 7.54167 C 6.36 g/m*3 6.81 C 5.475 km/h
Sensor: Nr:Datum:Temp:Abs-Feuchte:Windchill:Wind:
Aussen-T/F 1476 21-03-2015 16:00:00 6.175 C 6.61 g/m*3 5.34 C 5.2 km/h
1477 21-03-2015 17:00:00 6.225 C 6.7 g/m*3 5.39 C 5.23333 km/h
1478 21-03-2015 18:00:00 6.10833 C 6.7 g/m*3 6.11 C 4.675 km/h
1479 21-03-2015 19:00:00 5.98333 C 6.6 g/m*3 5.98 C 2.80833 km/h
1480 21-03-2015 20:00:00 5.35833 C 6.58 g/m*3 5.36 C 2.53333 km/h
1481 21-03-2015 21:00:00 4.88333 C 6.44 g/m*3 4.88 C 2.93333 km/h
1482 21-03-2015 22:00:00 4.975 C 6.53 g/m*3 4.97 C 1.6 km/h
1483 21-03-2015 23:00:00 5.15833 C 6.65 g/m*3 5.16 C 0 km/h
1484 22-03-2015 00:00:00 5.36667 C 6.75 g/m*3 5.37 C 1.46667 km/h
1485 22-03-2015 01:00:00 5.35833 C 6.68 g/m*3 5.36 C 0 km/h
1486 22-03-2015 02:00:00 5.10833 C 6.57 g/m*3 5.11 C 0.26667 km/h
1487 22-03-2015 03:00:00 4.85 C 6.46 g/m*3 4.85 C 0.93333 km/h
1488 22-03-2015 04:00:00 5.13333 C 6.55 g/m*3 5.13 C 0.66667 km/h
1489 22-03-2015 05:00:00 5.25 C 6.46 g/m*3 5.25 C 4.025 km/h
1490 22-03-2015 06:00:00 5.10833 C 6.13 g/m*3 5.11 C 4.00833 km/h
1491 22-03-2015 07:00:00 4.96667 C 5.84 g/m*3 3.15 C 7.78333 km/h
1492 22-03-2015 08:00:00 5.01667 C 5.53 g/m*3 2.69 C 9.94167 km/h
1493 22-03-2015 09:00:00 5.3 C 5.47 g/m*3 2.35 C 13.56667 km/h
1494 22-03-2015 10:00:00 6.13333 C 5.61 g/m*3 3.28 C 14.1 km/h
1495 22-03-2015 11:00:00 6.75 C 5.7 g/m*3 4.1 C 13.7 km/h
1496 22-03-2015 12:00:00 8.01667 C 5.87 g/m*3 5.43 C 15.3 km/h
1497 22-03-2015 13:00:00 7.99167 C 5.74 g/m*3 5.52 C 14.36667 km/h
1498 22-03-2015 14:00:00 7.15833 C 5.5 g/m*3 4.48 C 14.5 km/h
1499 22-03-2015 15:00:00 7.00833 C 5.43 g/m*3 4.28 C 14.63333 km/h
1500 22-03-2015 16:00:00 7.33333 C 5.4 g/m*3 5.07 C 12.1 km/h
Sensor: Nr:Datum:Temp:Abs-Feuchte:Windchill:Wind:
Aussen-T/F 1501 22-03-2015 17:00:00 7.65833 C 5.38 g/m*3 5.69 C 10.75833 km/h
1502 22-03-2015 18:00:00 6.175 C 5.19 g/m*3 6.18 C 4.29167 km/h
1503 22-03-2015 19:00:00 3.65833 C 4.99 g/m*3 3.66 C 1.73333 km/h
1504 22-03-2015 20:00:00 2.15833 C 4.83 g/m*3 2.16 C 4.8 km/h
1505 22-03-2015 21:00:00 1.56667 C 4.71 g/m*3 1.57 C 4.26667 km/h
1506 22-03-2015 22:00:00 1.14167 C 4.64 g/m*3 1.14 C 3.06667 km/h
1507 22-03-2015 23:00:00 0.54167 C 4.54 g/m*3 0.54 C 3.46667 km/h
1508 23-03-2015 00:00:00 0.08333 C 4.45 g/m*3 0.08 C 3.06667 km/h
1509 23-03-2015 01:00:00 -0.34167 C 4.36 g/m*3 -0.34 C 2.66667 km/h
1510 23-03-2015 02:00:00 -0.68333 C 4.29 g/m*3 -0.68 C 2.13333 km/h
1511 23-03-2015 03:00:00 -0.875 C 4.26 g/m*3 -0.88 C 0.66667 km/h
1512 23-03-2015 04:00:00 -1.23333 C 4.18 g/m*3 -1.23 C 0 km/h
1513 23-03-2015 05:00:00 -1.24167 C 4.2 g/m*3 -1.24 C 0.8 km/h
1514 23-03-2015 06:00:00 -1.54167 C 4.13 g/m*3 -1.54 C 0 km/h
1515 23-03-2015 07:00:00 -1.25833 C 4.22 g/m*3 -1.26 C 2 km/h
1516 23-03-2015 08:00:00 -0.61667 C 4.45 g/m*3 -0.62 C 3.33333 km/h
1517 23-03-2015 09:00:00 0.575 C 4.81 g/m*3 0.57 C 1.86667 km/h
1518 23-03-2015 10:00:00 2.68333 C 5.18 g/m*3 2.68 C 2.13333 km/h
1519 23-03-2015 11:00:00 5.03333 C 5.73 g/m*3 5.03 C 1.73333 km/h
1520 23-03-2015 12:00:00 7.31667 C 6.24 g/m*3 7.32 C 3.2 km/h
1521 23-03-2015 13:00:00 9.575 C 6.41 g/m*3 8.7 C 7.11667 km/h
1522 23-03-2015 14:00:00 10.04167 C 6.34 g/m*3 9.16 C 7.50833 km/h
1523 23-03-2015 15:00:00 10.95 C 6.6 g/m*3 10.36 C 6.84167 km/h
1524 23-03-2015 16:00:00 10.50833 C 6.29 g/m*3 10.51 C 4.54167 km/h
1525 23-03-2015 17:00:00 9.99167 C 6.22 g/m*3 9.99 C 4.40833 km/h
Sensor: Nr:Datum:Temp:Abs-Feuchte:Windchill:Wind:
Aussen-T/F 1526 23-03-2015 18:00:00 9.20833 C 6.12 g/m*3 9.21 C 3.2 km/h
1527 23-03-2015 19:00:00 7.34167 C 6.03 g/m*3 6.29 C 6.43333 km/h
1528 23-03-2015 20:00:00 5.95 C 5.96 g/m*3 4.89 C 5.775 km/h
1529 23-03-2015 21:00:00 4.65833 C 5.77 g/m*3 4.66 C 0.26667 km/h
1530 23-03-2015 22:00:00 3.65 C 5.57 g/m*3 3.65 C 0 km/h
1531 23-03-2015 23:00:00 2.75 C 5.35 g/m*3 2.75 C 0 km/h
1532 24-03-2015 00:00:00 2.1 C 5.19 g/m*3 2.1 C 0 km/h
1533 24-03-2015 01:00:00 1.8 C 5.13 g/m*3 1.8 C 0 km/h
1534 24-03-2015 02:00:00 1.78333 C 5.16 g/m*3 1.78 C 0 km/h
1535 24-03-2015 03:00:00 2.25 C 5.37 g/m*3 2.25 C 0 km/h
1536 24-03-2015 04:00:00 2.75833 C 5.48 g/m*3 2.76 C 0.53333 km/h
1537 24-03-2015 05:00:00 2.93333 C 5.5 g/m*3 2.93 C 0.26667 km/h
1538 24-03-2015 06:00:00 2.94167 C 5.48 g/m*3 2.94 C 0.8 km/h
1539 24-03-2015 07:00:00 3.16667 C 5.58 g/m*3 3.17 C 0.13333 km/h
1540 24-03-2015 08:00:00 3.94167 C 5.74 g/m*3 3.94 C 1.86667 km/h
1541 24-03-2015 09:00:00 4.66667 C 5.88 g/m*3 4.67 C 2.13333 km/h
1542 24-03-2015 10:00:00 5.76667 C 6.18 g/m*3 5.77 C 2.13333 km/h
1543 24-03-2015 11:00:00 7.10833 C 6.52 g/m*3 7.11 C 1.6 km/h
1544 24-03-2015 12:00:00 9.53333 C 7.08 g/m*3 9.53 C 2.66667 km/h
1545 24-03-2015 13:00:00 11.68333 C 6.92 g/m*3 11.68 C 4.41667 km/h
1546 24-03-2015 14:00:00 13.15833 C 6.23 g/m*3 13.16 C 13.43333 km/h
1547 24-03-2015 15:00:00 14.075 C 6.3 g/m*3 14.08 C 10.63333 km/h
1548 24-03-2015 16:00:00 14.05 C 6.35 g/m*3 14.05 C 4.95 km/h
1549 24-03-2015 17:00:00 13.31667 C 6.76 g/m*3 13.32 C 2 km/h
1550 24-03-2015 18:00:00 11.075 C 7.25 g/m*3 11.08 C 3.33333 km/h
Sensor: Nr:Datum:Temp:Abs-Feuchte:Windchill:Wind:
Aussen-T/F 1551 24-03-2015 19:00:00 9.85 C 6.93 g/m*3 9.85 C 4.8 km/h
1552 24-03-2015 20:00:00 8.26667 C 6.87 g/m*3 7.77 C 5.06667 km/h
1553 24-03-2015 21:00:00 7.18333 C 6.67 g/m*3 7.18 C 4.66667 km/h
1554 24-03-2015 22:00:00 6.50833 C 6.6 g/m*3 6.51 C 1.73333 km/h
1555 24-03-2015 23:00:00 6.68333 C 6.67 g/m*3 6.68 C 2.8 km/h
1556 25-03-2015 00:00:00 5.8 C 6.36 g/m*3 5.8 C 2.66667 km/h
1557 25-03-2015 01:00:00 5.225 C 6.27 g/m*3 5.23 C 2.4 km/h
1558 25-03-2015 02:00:00 5.2 C 6.32 g/m*3 5.2 C 1.06667 km/h
1559 25-03-2015 03:00:00 5.89167 C 6.49 g/m*3 5.89 C 1.2 km/h
1560 25-03-2015 04:00:00 5.55833 C 6.36 g/m*3 5.56 C 1.46667 km/h
1561 25-03-2015 05:00:00 5.54167 C 6.44 g/m*3 5.54 C 0.53333 km/h
1562 25-03-2015 06:00:00 5.05 C 6.26 g/m*3 5.05 C 0.26667 km/h
1563 25-03-2015 07:00:00 5.43333 C 6.49 g/m*3 5.43 C 0 km/h
1564 25-03-2015 08:00:00 6.7 C 6.78 g/m*3 6.7 C 0.26667 km/h
1565 25-03-2015 09:00:00 8.8 C 7.21 g/m*3 8.8 C 0.26667 km/h
1566 25-03-2015 10:00:00 11.01667 C 7.67 g/m*3 11.02 C 5.08333 km/h
1567 25-03-2015 11:00:00 11.59167 C 7.82 g/m*3 11.59 C 8.05833 km/h
1568 25-03-2015 12:00:00 12.15 C 8.04 g/m*3 12.15 C 10.35833 km/h
1569 25-03-2015 13:00:00 12.66667 C 8.05 g/m*3 12.67 C 14.36667 km/h
1570 25-03-2015 14:00:00 10.26667 C 7.35 g/m*3 8.07 C 16.5 km/h
1571 25-03-2015 15:00:00 9.15833 C 7.02 g/m*3 7.03 C 13.83333 km/h
1572 25-03-2015 16:00:00 8.44167 C 6.73 g/m*3 6.15 C 13.83333 km/h
1573 25-03-2015 17:00:00 7.7 C 6.61 g/m*3 5.67 C 11.15833 km/h
1574 25-03-2015 18:00:00 7.48333 C 6.57 g/m*3 5.53 C 10.475 km/h
1575 25-03-2015 19:00:00 7.275 C 6.51 g/m*3 5.28 C 10.49167 km/h
Sensor: Nr:Datum:Temp:Abs-Feuchte:Windchill:Wind:
Aussen-T/F 1576 25-03-2015 20:00:00 7.08333 C 6.49 g/m*3 5.03 C 10.63333 km/h
1577 25-03-2015 21:00:00 6.875 C 6.46 g/m*3 4.77 C 10.63333 km/h
1578 25-03-2015 22:00:00 6.725 C 6.5 g/m*3 4.78 C 9.68333 km/h
1579 25-03-2015 23:00:00 6.7 C 6.49 g/m*3 5.09 C 8.175 km/h
1580 26-03-2015 00:00:00 6.7 C 6.49 g/m*3 5.22 C 7.65 km/h
1581 26-03-2015 01:00:00 6.66667 C 6.6 g/m*3 5.01 C 8.33333 km/h
1582 26-03-2015 02:00:00 6.45 C 6.68 g/m*3 6.45 C 4.41667 km/h
1583 26-03-2015 03:00:00 6.30833 C 6.65 g/m*3 6.31 C 3.06667 km/h
1584 26-03-2015 04:00:00 6.175 C 6.54 g/m*3 4.67 C 7.4 km/h
1585 26-03-2015 05:00:00 5.71667 C 6.18 g/m*3 4.58 C 5.9 km/h
1586 26-03-2015 06:00:00 5.625 C 6.03 g/m*3 5.63 C 2 km/h
1587 26-03-2015 07:00:00 5.76667 C 6.01 g/m*3 5.77 C 3.06667 km/h
1588 26-03-2015 08:00:00 6 C 5.95 g/m*3 6 C 3.475 km/h
1589 26-03-2015 09:00:00 6.20833 C 5.92 g/m*3 6.21 C 4.26667 km/h
1590 26-03-2015 10:00:00 6.71667 C 5.88 g/m*3 5.91 C 5.35 km/h
1591 26-03-2015 11:00:00 7.825 C 5.89 g/m*3 6.35 C 8.45833 km/h
1592 26-03-2015 12:00:00 9.89167 C 5.85 g/m*3 8.44 C 10.36667 km/h
1593 26-03-2015 13:00:00 11.56667 C 5.24 g/m*3 11.57 C 14.63333 km/h
1594 26-03-2015 14:00:00 11.86667 C 4.83 g/m*3 11.87 C 15.43333 km/h
1595 26-03-2015 15:00:00 11.425 C 4.51 g/m*3 11.43 C 13.03333 km/h
1596 26-03-2015 16:00:00 9.91667 C 4.46 g/m*3 7.7 C 15.975 km/h
1597 26-03-2015 17:00:00 6.43333 C 5.81 g/m*3 4.65 C 8.725 km/h
1598 26-03-2015 18:00:00 5.31667 C 6.14 g/m*3 5.32 C 1.2 km/h
1599 26-03-2015 19:00:00 5.35833 C 6.1 g/m*3 5.36 C 4.28333 km/h
1600 26-03-2015 20:00:00 5.63333 C 6.11 g/m*3 5.63 C 4.00833 km/h
Sensor: Nr:Datum:Temp:Abs-Feuchte:Windchill:Wind:
Aussen-T/F 1601 26-03-2015 21:00:00 6.14167 C 6.16 g/m*3 3.21 C 14.63333 km/h
1602 26-03-2015 22:00:00 6.15 C 6.29 g/m*3 3.05 C 15.83333 km/h
1603 26-03-2015 23:00:00 6.28333 C 6.45 g/m*3 3.27 C 15.43333 km/h
1604 27-03-2015 00:00:00 6.425 C 6.53 g/m*3 4.13 C 11.16667 km/h
1605 27-03-2015 01:00:00 6.45 C 6.63 g/m*3 4.72 C 8.475 km/h
1606 27-03-2015 02:00:00 6.29167 C 6.6 g/m*3 4.81 C 7.38333 km/h
1607 27-03-2015 03:00:00 5.45833 C 6.36 g/m*3 5.46 C 4.93333 km/h
1608 27-03-2015 04:00:00 4.775 C 6.1 g/m*3 3.75 C 5.20833 km/h
1609 27-03-2015 05:00:00 4.375 C 5.86 g/m*3 3.04 C 5.89167 km/h
1610 27-03-2015 06:00:00 4.8 C 5.77 g/m*3 2.96 C 7.79167 km/h
1611 27-03-2015 07:00:00 5.375 C 5.89 g/m*3 3.56 C 8.05833 km/h
1612 27-03-2015 08:00:00 6.19167 C 6.08 g/m*3 4.01 C 10.35833 km/h
1613 27-03-2015 09:00:00 6.99167 C 6.2 g/m*3 4.5 C 13.03333 km/h
1614 27-03-2015 10:00:00 8.19167 C 6.34 g/m*3 5.72 C 14.76667 km/h
1615 27-03-2015 11:00:00 8.71667 C 6.27 g/m*3 6.23 C 15.83333 km/h
1616 27-03-2015 12:00:00 9.15833 C 6.03 g/m*3 6.5 C 18.23333 km/h
1617 27-03-2015 13:00:00 9.68333 C 5.77 g/m*3 7.18 C 17.96667 km/h
1618 27-03-2015 14:00:00 10.18333 C 5.67 g/m*3 8.23 C 14.23333 km/h
1619 27-03-2015 15:00:00 10.36667 C 5.57 g/m*3 8.54 C 13.56667 km/h
1620 27-03-2015 16:00:00 10.46667 C 5.38 g/m*3 8.74 C 13.03333 km/h
1621 27-03-2015 17:00:00 10.65 C 5.48 g/m*3 9 C 12.76667 km/h
1622 27-03-2015 18:00:00 9.94167 C 5.2 g/m*3 9.01 C 7.66667 km/h
1623 27-03-2015 19:00:00 9.29167 C 5.42 g/m*3 9.29 C 3.75833 km/h
1624 27-03-2015 20:00:00 8.44167 C 5.86 g/m*3 8.44 C 1.06667 km/h
1625 27-03-2015 21:00:00 7.625 C 6.1 g/m*3 7.63 C 2.13333 km/h
Sensor: Nr:Datum:Temp:Abs-Feuchte:Windchill:Wind:
Aussen-T/F 1626 27-03-2015 22:00:00 7.01667 C 6.1 g/m*3 7.02 C 2.4 km/h
1627 27-03-2015 23:00:00 6.725 C 6.03 g/m*3 6.73 C 2 km/h
1628 28-03-2015 00:00:00 6.08333 C 5.95 g/m*3 6.08 C 2.93333 km/h
1629 28-03-2015 01:00:00 6.24167 C 5.99 g/m*3 6.24 C 2.26667 km/h
1630 28-03-2015 02:00:00 5.75 C 5.9 g/m*3 5.75 C 0.93333 km/h
1631 28-03-2015 03:00:00 4.275 C 5.54 g/m*3 4.28 C 2.4 km/h
1632 28-03-2015 04:00:00 4.55 C 5.53 g/m*3 4.55 C 2.93333 km/h
1633 28-03-2015 05:00:00 4.775 C 5.52 g/m*3 4.78 C 4.81667 km/h
1634 28-03-2015 06:00:00 4.95 C 5.54 g/m*3 4.95 C 4.81667 km/h
1635 28-03-2015 07:00:00 5.29167 C 5.58 g/m*3 3.84 C 6.7 km/h
1636 28-03-2015 08:00:00 6.14167 C 5.72 g/m*3 4.67 C 7.24167 km/h
1637 28-03-2015 09:00:00 7.4 C 5.9 g/m*3 7.4 C 3.33333 km/h
1638 28-03-2015 10:00:00 10.575 C 5.75 g/m*3 8.84 C 13.26667 km/h
1639 28-03-2015 11:00:00 11.95833 C 5.66 g/m*3 11.96 C 20.5 km/h
1640 28-03-2015 12:00:00 12.38333 C 5.96 g/m*3 12.38 C 15.7 km/h
1641 28-03-2015 13:00:00 12.45 C 6.17 g/m*3 12.45 C 13.7 km/h
1642 28-03-2015 14:00:00 12.01667 C 6.64 g/m*3 12.02 C 8.71667 km/h
1643 28-03-2015 15:00:00 10.45833 C 7.78 g/m*3 10.46 C 3.74167 km/h
1644 28-03-2015 16:00:00 9.375 C 8.13 g/m*3 9.38 C 2.53333 km/h
1645 28-03-2015 17:00:00 8.75 C 8.07 g/m*3 8.75 C 4.14167 km/h
1646 28-03-2015 18:00:00 9.40833 C 7.99 g/m*3 7.69 C 11.40833 km/h
1647 28-03-2015 19:00:00 9.33333 C 7.96 g/m*3 7.77 C 10.35 km/h
1648 28-03-2015 20:00:00 9.75 C 8.28 g/m*3 8.3 C 10.21667 km/h
1649 28-03-2015 21:00:00 9.875 C 8.52 g/m*3 9.88 C 3.875 km/h
1650 28-03-2015 22:00:00 10.725 C 8.91 g/m*3 9.96 C 7.5 km/h
Sensor: Nr:Datum:Temp:Abs-Feuchte:Windchill:Wind:
Aussen-T/F 1651 28-03-2015 23:00:00 11.88333 C 9.26 g/m*3 11.88 C 18.5 km/h
1652 29-03-2015 00:00:00 12.53333 C 9.3 g/m*3 12.53 C 19.575 km/h
1653 29-03-2015 01:00:00 12.45833 C 9.23 g/m*3 12.46 C 16.1 km/h
1654 29-03-2015 02:00:00 11.99167 C 9.28 g/m*3 11.99 C 15.83333 km/h
1655 29-03-2015 04:00:00 11.975 C 9.1 g/m*3 11.98 C 15.7 km/h
1656 29-03-2015 05:00:00 11.8 C 8.98 g/m*3 11.8 C 15.3 km/h
1657 29-03-2015 06:00:00 11.775 C 8.56 g/m*3 11.78 C 14.5 km/h
1658 29-03-2015 07:00:00 11.54167 C 8.36 g/m*3 11.54 C 10.225 km/h
1659 29-03-2015 08:00:00 11.625 C 8.02 g/m*3 11.63 C 13.96667 km/h
1660 29-03-2015 09:00:00 11.3 C 7.7 g/m*3 11.3 C 18.23333 km/h
1661 29-03-2015 10:00:00 11.03333 C 7.85 g/m*3 11.03 C 16.5 km/h
1662 29-03-2015 11:00:00 11.025 C 8.1 g/m*3 11.03 C 19.84167 km/h
1663 29-03-2015 12:00:00 11.18333 C 8.53 g/m*3 11.18 C 16.23333 km/h
1664 29-03-2015 13:00:00 11.175 C 8.79 g/m*3 11.18 C 19.05 km/h
1665 29-03-2015 14:00:00 11.6 C 8.92 g/m*3 11.6 C 19.56667 km/h
1666 29-03-2015 15:00:00 11.76667 C 8.93 g/m*3 11.77 C 21.44167 km/h
1667 29-03-2015 16:00:00 11.925 C 9.14 g/m*3 11.93 C 18.63333 km/h
1668 29-03-2015 17:00:00 11.84167 C 9.27 g/m*3 11.84 C 19.56667 km/h
1669 29-03-2015 18:00:00 11.80833 C 9.47 g/m*3 11.81 C 23.85833 km/h
1670 29-03-2015 19:00:00 12.275 C 9.4 g/m*3 12.28 C 22.38333 km/h
1671 29-03-2015 20:00:00 12.39167 C 9.35 g/m*3 12.39 C 22.4 km/h
1672 29-03-2015 21:00:00 11.95833 C 9 g/m*3 11.96 C 25.73333 km/h
1673 29-03-2015 22:00:00 11.55 C 8.09 g/m*3 11.55 C 26.15 km/h
1674 29-03-2015 23:00:00 9.10833 C 7.45 g/m*3 6.76 C 15.43333 km/h
1675 30-03-2015 00:00:00 8.56667 C 7.44 g/m*3 6.88 C 10.2 km/h
Sensor: Nr:Datum:Temp:Abs-Feuchte:Windchill:Wind:
Aussen-T/F 1676 30-03-2015 01:00:00 8.225 C 7.35 g/m*3 6.55 C 9.8 km/h
1677 30-03-2015 02:00:00 8.375 C 7.24 g/m*3 6.94 C 8.725 km/h
1678 30-03-2015 03:00:00 8.15833 C 7.32 g/m*3 7.05 C 7.11667 km/h
1679 30-03-2015 04:00:00 7.59167 C 7.07 g/m*3 5.85 C 9.53333 km/h
1680 30-03-2015 05:00:00 7.375 C 6.97 g/m*3 6.53 C 5.75 km/h
1681 30-03-2015 06:00:00 6.99167 C 6.72 g/m*3 6.32 C 5.06667 km/h
1682 30-03-2015 07:00:00 6.95 C 6.22 g/m*3 5.41 C 8.06667 km/h
1683 30-03-2015 08:00:00 7.3 C 6.22 g/m*3 6.17 C 6.7 km/h
1684 30-03-2015 09:00:00 8.05 C 6.16 g/m*3 5.64 C 14.09167 km/h
1685 30-03-2015 10:00:00 8.34167 C 6.2 g/m*3 5.49 C 18.1 km/h
1686 30-03-2015 11:00:00 9.09167 C 5.5 g/m*3 5.75 C 25.35 km/h
1687 30-03-2015 12:00:00 8.9 C 5.68 g/m*3 5.91 C 20.79167 km/h
1688 30-03-2015 13:00:00 10.18333 C 5.26 g/m*3 7.6 C 20.1 km/h
1689 30-03-2015 14:00:00 8.96667 C 5.86 g/m*3 6.12 C 19.575 km/h
1690 30-03-2015 15:00:00 9.46667 C 5.68 g/m*3 6.65 C 20.50833 km/h
1691 30-03-2015 16:00:00 10.35833 C 5.27 g/m*3 7.66 C 21.84167 km/h
1692 30-03-2015 17:00:00 10.35833 C 4.64 g/m*3 7.73 C 21.05833 km/h
1693 30-03-2015 18:00:00 9.69167 C 4.32 g/m*3 7.58 C 14.63333 km/h
1694 30-03-2015 19:00:00 9.425 C 4.39 g/m*3 7.84 C 10.625 km/h
1695 30-03-2015 20:00:00 7.95833 C 4.62 g/m*3 6.51 C 8.44167 km/h
1696 30-03-2015 21:00:00 5.73333 C 5.22 g/m*3 5.73 C 4.4 km/h
1697 30-03-2015 22:00:00 5.29167 C 5.37 g/m*3 5.29 C 1.73333 km/h
1698 30-03-2015 23:00:00 5.83333 C 5.45 g/m*3 5.83 C 0.53333 km/h
1699 31-03-2015 00:00:00 6.3 C 6.08 g/m*3 6.3 C 3.6 km/h
1700 31-03-2015 01:00:00 7.03333 C 6.48 g/m*3 5.61 C 7.65 km/h
Sensor: Nr:Datum:Temp:Abs-Feuchte:Windchill:Wind:
Aussen-T/F 1701 31-03-2015 02:00:00 8.45833 C 6.94 g/m*3 6.08 C 14.5 km/h
1702 31-03-2015 03:00:00 9.31667 C 7.69 g/m*3 6.48 C 20.39167 km/h
1703 31-03-2015 04:00:00 10.96667 C 8.43 g/m*3 8.01 C 27.34167 km/h
1704 31-03-2015 05:00:00 12.60833 C 8.76 g/m*3 12.61 C 28.84167 km/h
1705 31-03-2015 06:00:00 13.41667 C 8.89 g/m*3 13.42 C 25.19167 km/h
1706 31-03-2015 07:00:00 12.33333 C 9.29 g/m*3 12.33 C 16.49167 km/h
1707 31-03-2015 08:00:00 12.75833 C 8.28 g/m*3 12.76 C 27.60833 km/h
1708 31-03-2015 09:00:00 12.35 C 8.12 g/m*3 12.35 C 25.74167 km/h
1709 31-03-2015 10:00:00 13.19167 C 7.78 g/m*3 13.19 C 36.875 km/h
1710 31-03-2015 11:00:00 11.79167 C 7.68 g/m*3 11.79 C 28.69167 km/h
1711 31-03-2015 12:00:00 9.575 C 7.58 g/m*3 6.78 C 20.64167 km/h
1712 31-03-2015 13:00:00 9.85 C 7.31 g/m*3 6.51 C 28.15 km/h
1713 31-03-2015 14:00:00 10.25 C 7.1 g/m*3 6.97 C 28.95833 km/h
1714 31-03-2015 15:00:00 10.39167 C 6.97 g/m*3 7.33 C 26.55 km/h
1715 31-03-2015 16:00:00 12.075 C 6.17 g/m*3 12.08 C 27.09167 km/h
1716 31-03-2015 17:00:00 12.35833 C 5.11 g/m*3 12.36 C 28.28333 km/h
1717 31-03-2015 18:00:00 11.10833 C 4.91 g/m*3 11.11 C 18.64167 km/h
1718 31-03-2015 19:00:00 9.66667 C 5.2 g/m*3 6.92 C 20.36667 km/h
1719 31-03-2015 20:00:00 8.35833 C 5.43 g/m*3 6.27 C 12.36667 km/h
1720 31-03-2015 21:00:00 6.33333 C 5.92 g/m*3 3.31 C 15.58333 km/h
1721 31-03-2015 22:00:00 5.41667 C 6.09 g/m*3 2.82 C 11.68333 km/h
1722 31-03-2015 23:00:00 5.575 C 5.89 g/m*3 1.89 C 19.2 km/h
1723 01-04-2015 00:00:00 4.05 C 5.68 g/m*3 1.25 C 11.29167 km/h
1724 01-04-2015 01:00:00 5.19167 C 5.66 g/m*3 1.84 C 15.96667 km/h
1725 01-04-2015 02:00:00 5.28333 C 5.41 g/m*3 2.15 C 14.63333 km/h
Sensor: Nr:Datum:Temp:Abs-Feuchte:Windchill:Wind:
Aussen-T/F 1726 01-04-2015 03:00:00 5.40833 C 5.15 g/m*3 2 C 16.76667 km/h
1727 01-04-2015 04:00:00 5.25 C 5.01 g/m*3 1.83 C 16.51667 km/h
1728 01-04-2015 05:00:00 5.075 C 4.96 g/m*3 2.51 C 11.15833 km/h
1729 01-04-2015 06:00:00 5.06667 C 4.76 g/m*3 1.69 C 15.96667 km/h
1730 01-04-2015 07:00:00 4.39167 C 5.05 g/m*3 1.26 C 13.425 km/h
1731 01-04-2015 08:00:00 4.2 C 5.31 g/m*3 1.17 C 12.63333 km/h
1732 01-04-2015 09:00:00 5.075 C 5.29 g/m*3 2.03 C 13.825 km/h
1733 01-04-2015 10:00:00 6.36667 C 5.19 g/m*3 2.84 C 19.575 km/h
1734 01-04-2015 11:00:00 7.225 C 5.2 g/m*3 3.94 C 19.43333 km/h
1735 01-04-2015 12:00:00 7.86667 C 5.11 g/m*3 4.7 C 19.84167 km/h
1736 01-04-2015 13:00:00 7.86667 C 5.12 g/m*3 4.72 C 19.7 km/h
1737 01-04-2015 14:00:00 6.99167 C 5.76 g/m*3 4.04 C 16.23333 km/h
1738 01-04-2015 15:00:00 6.75 C 5.83 g/m*3 3.22 C 20.525 km/h
1739 01-04-2015 16:00:00 8.33333 C 5.41 g/m*3 5.11 C 21.59167 km/h
1740 01-04-2015 17:00:00 8.375 C 4.82 g/m*3 5.44 C 18.90833 km/h
1741 01-04-2015 18:00:00 9.00833 C 4.73 g/m*3 6.07 C 20.525 km/h
1742 01-04-2015 19:00:00 8.51667 C 4.62 g/m*3 6.57 C 11.7 km/h
1743 01-04-2015 20:00:00 7.59167 C 4.77 g/m*3 6.43 C 6.975 km/h
1744 01-04-2015 21:00:00 6.96667 C 5.08 g/m*3 5.19 C 9.14167 km/h
1745 01-04-2015 22:00:00 6.36667 C 5.4 g/m*3 3.33 C 15.7 km/h
1746 01-04-2015 23:00:00 6.125 C 5.5 g/m*3 2.8 C 17.43333 km/h
1747 02-04-2015 00:00:00 5.73333 C 5.62 g/m*3 2.55 C 15.7 km/h
1748 02-04-2015 01:00:00 5.68333 C 5.69 g/m*3 3.09 C 11.96667 km/h
1749 02-04-2015 02:00:00 5.775 C 5.75 g/m*3 3.04 C 12.9 km/h
1750 02-04-2015 03:00:00 5.625 C 5.85 g/m*3 2.32 C 16.36667 km/h
Sensor: Nr:Datum:Temp:Abs-Feuchte:Windchill:Wind:
Aussen-T/F 1751 02-04-2015 04:00:00 5.35833 C 5.95 g/m*3 2.51 C 13.025 km/h
1752 02-04-2015 05:00:00 5.14167 C 6.02 g/m*3 2.15 C 13.56667 km/h
1753 02-04-2015 06:00:00 4.88333 C 6.07 g/m*3 1.75 C 14.1 km/h
1754 02-04-2015 07:00:00 4.8 C 6.1 g/m*3 1.87 C 12.76667 km/h
1755 02-04-2015 08:00:00 4.94167 C 6.22 g/m*3 2 C 13.03333 km/h
1756 02-04-2015 09:00:00 5.475 C 6.38 g/m*3 2.67 C 12.9 km/h
1757 02-04-2015 10:00:00 5.79167 C 6.32 g/m*3 2.35 C 17.7 km/h
1758 02-04-2015 11:00:00 6 C 6.16 g/m*3 2.81 C 16.23333 km/h
1759 02-04-2015 12:00:00 6.675 C 5.75 g/m*3 3.34 C 18.63333 km/h
1760 02-04-2015 13:00:00 7.7 C 5.29 g/m*3 4.42 C 20.5 km/h
1761 02-04-2015 14:00:00 8.46667 C 5.36 g/m*3 5.44 C 19.975 km/h
1762 02-04-2015 15:00:00 8.775 C 4.95 g/m*3 5.67 C 21.58333 km/h
1763 02-04-2015 16:00:00 9.15 C 4.64 g/m*3 6.37 C 19.30833 km/h
1764 02-04-2015 17:00:00 8.96667 C 4.52 g/m*3 6.04 C 20.36667 km/h
1765 02-04-2015 18:00:00 9.18333 C 4.52 g/m*3 6.34 C 20.1 km/h
1766 02-04-2015 19:00:00 8.16667 C 4.39 g/m*3 5.32 C 17.7 km/h
1767 02-04-2015 20:00:00 6.94167 C 4.44 g/m*3 4.88 C 10.48333 km/h
1768 02-04-2015 21:00:00 6.08333 C 4.69 g/m*3 5.14 C 5.49167 km/h
1769 02-04-2015 22:00:00 4.79167 C 4.9 g/m*3 4.79 C 4.4 km/h
1770 02-04-2015 23:00:00 4.9 C 4.87 g/m*3 4.9 C 2.8 km/h
1771 03-04-2015 00:00:00 3.675 C 4.88 g/m*3 3.68 C 2 km/h
1772 03-04-2015 01:00:00 2.54167 C 4.86 g/m*3 2.54 C 0.4 km/h
1773 03-04-2015 02:00:00 2.81667 C 4.86 g/m*3 2.82 C 3.46667 km/h
1774 03-04-2015 03:00:00 2.725 C 4.75 g/m*3 2.73 C 3.21667 km/h
1775 03-04-2015 04:00:00 1.39167 C 4.6 g/m*3 1.39 C 0.4 km/h
Sensor: Nr:Datum:Temp:Abs-Feuchte:Windchill:Wind:
Aussen-T/F 1776 03-04-2015 05:00:00 0.43333 C 4.44 g/m*3 0.43 C 0.4 km/h
1777 03-04-2015 06:00:00 -0.275 C 4.36 g/m*3 -0.28 C 2.14167 km/h
1778 03-04-2015 07:00:00 -0.2 C 4.39 g/m*3 -0.2 C 3.475 km/h
1779 03-04-2015 08:00:00 -0.01667 C 4.45 g/m*3 -0.02 C 1.2 km/h
1780 03-04-2015 09:00:00 1.225 C 4.83 g/m*3 1.23 C 1.6 km/h
1781 03-04-2015 10:00:00 3.98333 C 5.25 g/m*3 3.98 C 2.93333 km/h
1782 03-04-2015 11:00:00 6.28333 C 5.39 g/m*3 6.28 C 3.625 km/h
1783 03-04-2015 12:00:00 8.49167 C 5.25 g/m*3 7.25 C 7.93333 km/h
1784 03-04-2015 13:00:00 10.13333 C 5.26 g/m*3 8.89 C 9.425 km/h
1785 03-04-2015 14:00:00 10.95 C 4.76 g/m*3 9.73 C 10.23333 km/h
1786 03-04-2015 15:00:00 11.03333 C 4.66 g/m*3 11.03 C 9.15833 km/h
1787 03-04-2015 16:00:00 11.8 C 4.83 g/m*3 11.8 C 6.16667 km/h
1788 03-04-2015 17:00:00 12.15 C 4.66 g/m*3 12.15 C 5.21667 km/h
1789 03-04-2015 18:00:00 11.86667 C 4.54 g/m*3 11.87 C 6.975 km/h
1790 03-04-2015 19:00:00 10.225 C 5.42 g/m*3 10.23 C 3.33333 km/h
1791 03-04-2015 20:00:00 8.05833 C 5.72 g/m*3 8.06 C 3.6 km/h
1792 03-04-2015 21:00:00 7.39167 C 5.64 g/m*3 7.39 C 3.6 km/h
1793 03-04-2015 22:00:00 7.2 C 5.79 g/m*3 7.2 C 3.33333 km/h
1794 03-04-2015 23:00:00 7.225 C 5.85 g/m*3 7.23 C 3.46667 km/h
1795 04-04-2015 00:00:00 7.31667 C 5.87 g/m*3 7.32 C 3.86667 km/h
1796 04-04-2015 01:00:00 6.94167 C 5.96 g/m*3 6.94 C 3.2 km/h
1797 04-04-2015 02:00:00 6.2 C 6.05 g/m*3 6.2 C 1.73333 km/h
1798 04-04-2015 03:00:00 6.14167 C 6.06 g/m*3 6.14 C 0.8 km/h
1799 04-04-2015 04:00:00 6.08333 C 6.09 g/m*3 6.08 C 0.4 km/h
1800 04-04-2015 05:00:00 5.74167 C 6.17 g/m*3 5.74 C 0 km/h
Sensor: Nr:Datum:Temp:Abs-Feuchte:Windchill:Wind:
Aussen-T/F 1801 04-04-2015 06:00:00 5.61667 C 6.25 g/m*3 5.62 C 0.13333 km/h
1802 04-04-2015 07:00:00 5.10833 C 6.33 g/m*3 5.11 C 1.2 km/h
1803 04-04-2015 08:00:00 4.65833 C 6.18 g/m*3 4.66 C 1.73333 km/h
1804 04-04-2015 09:00:00 4.68333 C 6.2 g/m*3 2.93 C 7.39167 km/h
1805 04-04-2015 10:00:00 4.65 C 6.23 g/m*3 2.97 C 7.11667 km/h
1806 04-04-2015 11:00:00 4.85833 C 6.31 g/m*3 3.02 C 7.8 km/h
1807 04-04-2015 12:00:00 5.58333 C 6.41 g/m*3 5.58 C 2.8 km/h
1808 04-04-2015 13:00:00 7.075 C 6.41 g/m*3 7.08 C 4.80833 km/h
1809 04-04-2015 14:00:00 7.975 C 6.2 g/m*3 6.62 C 8.05833 km/h
1810 04-04-2015 15:00:00 8.06667 C 6.19 g/m*3 6.63 C 8.46667 km/h
1811 04-04-2015 16:00:00 9.85833 C 5.11 g/m*3 7.5 C 17.03333 km/h
1812 04-04-2015 17:00:00 10.375 C 4.49 g/m*3 7.89 C 19.56667 km/h
1813 04-04-2015 18:00:00 9.675 C 4.36 g/m*3 6.89 C 20.76667 km/h
1814 04-04-2015 19:00:00 8.35833 C 4.12 g/m*3 5.99 C 14.23333 km/h
1815 04-04-2015 20:00:00 6.21667 C 3.98 g/m*3 4.72 C 7.4 km/h
1816 04-04-2015 21:00:00 3.73333 C 4.46 g/m*3 3.73 C 2.8 km/h
1817 04-04-2015 22:00:00 3.05833 C 4.48 g/m*3 3.06 C 3.6 km/h
1818 04-04-2015 23:00:00 2 C 4.49 g/m*3 2 C 3.2 km/h
1819 05-04-2015 00:00:00 1.64167 C 4.54 g/m*3 1.64 C 2.66667 km/h
1820 05-04-2015 01:00:00 1.70833 C 4.52 g/m*3 1.71 C 1.6 km/h
1821 05-04-2015 02:00:00 1.15 C 4.58 g/m*3 1.15 C 2.13333 km/h
1822 05-04-2015 03:00:00 1.23333 C 4.61 g/m*3 1.23 C 0.13333 km/h
1823 05-04-2015 04:00:00 1.01667 C 4.55 g/m*3 1.02 C 0 km/h
1824 05-04-2015 05:00:00 1.00833 C 4.61 g/m*3 1.01 C 0.13333 km/h
1825 05-04-2015 06:00:00 0.95833 C 4.63 g/m*3 0.96 C 2.8 km/h
Sensor: Nr:Datum:Temp:Abs-Feuchte:Windchill:Wind:
Aussen-T/F 1826 05-04-2015 07:00:00 0.925 C 4.68 g/m*3 0.93 C 3.2 km/h
1827 05-04-2015 08:00:00 1.21667 C 4.79 g/m*3 1.22 C 2.93333 km/h
1828 05-04-2015 09:00:00 1.93333 C 5 g/m*3 1.93 C 2.4 km/h
1829 05-04-2015 10:00:00 3.93333 C 5.33 g/m*3 3.93 C 2.13333 km/h
1830 05-04-2015 11:00:00 5.99167 C 5.36 g/m*3 5.99 C 2.66667 km/h
1831 05-04-2015 12:00:00 7.625 C 5.18 g/m*3 7.63 C 2 km/h
1832 05-04-2015 13:00:00 9.80833 C 4.93 g/m*3 9.28 C 5.89167 km/h
1833 05-04-2015 14:00:00 10.83333 C 4.29 g/m*3 10.29 C 6.575 km/h
1834 05-04-2015 15:00:00 10.95 C 4.02 g/m*3 9.71 C 10.35 km/h
1835 05-04-2015 16:00:00 10.98333 C 3.92 g/m*3 9.63 C 11.16667 km/h
1836 05-04-2015 17:00:00 11.95 C 4.09 g/m*3 11.95 C 14.09167 km/h
1837 05-04-2015 18:00:00 10.69167 C 3.87 g/m*3 9.34 C 10.76667 km/h
1838 05-04-2015 19:00:00 10.05833 C 3.81 g/m*3 9.12 C 7.79167 km/h
1839 05-04-2015 20:00:00 8.01667 C 4.14 g/m*3 8.02 C 4.675 km/h
1840 05-04-2015 21:00:00 4.95833 C 4.74 g/m*3 4.96 C 4.93333 km/h
1841 05-04-2015 22:00:00 3.78333 C 4.66 g/m*3 3.78 C 4 km/h
1842 05-04-2015 23:00:00 2.75 C 4.68 g/m*3 2.75 C 1.06667 km/h
1843 06-04-2015 00:00:00 1.74167 C 4.39 g/m*3 1.74 C 0 km/h
1844 06-04-2015 01:00:00 1.33333 C 4.26 g/m*3 1.33 C 0.53333 km/h
1845 06-04-2015 02:00:00 0.95 C 4.29 g/m*3 0.95 C 0.8 km/h
1846 06-04-2015 03:00:00 1.39167 C 4.37 g/m*3 1.39 C 1.06667 km/h
1847 06-04-2015 04:00:00 1.55 C 4.4 g/m*3 1.55 C 2.8 km/h
1848 06-04-2015 05:00:00 1.46667 C 4.39 g/m*3 1.47 C 1.33333 km/h
1849 06-04-2015 06:00:00 1.26667 C 4.44 g/m*3 1.27 C 1.73333 km/h
1850 06-04-2015 07:00:00 1.6 C 4.54 g/m*3 1.6 C 2.13333 km/h
Sensor: Nr:Datum:Temp:Abs-Feuchte:Windchill:Wind:
Aussen-T/F 1851 06-04-2015 08:00:00 2.075 C 4.64 g/m*3 2.08 C 4.00833 km/h
1852 06-04-2015 09:00:00 2.89167 C 4.89 g/m*3 2.89 C 3.6 km/h
1853 06-04-2015 10:00:00 4.36667 C 5.24 g/m*3 4.37 C 2 km/h
1854 06-04-2015 11:00:00 5.825 C 5.63 g/m*3 4.84 C 5.49167 km/h
1855 06-04-2015 12:00:00 7.45 C 5.81 g/m*3 5.76 C 9.15 km/h
1856 06-04-2015 13:00:00 8.65 C 5.87 g/m*3 6.71 C 11.81667 km/h
1857 06-04-2015 14:00:00 9.2 C 5.93 g/m*3 7.48 C 11.15833 km/h
1858 06-04-2015 15:00:00 10 C 6.17 g/m*3 8.71 C 9.55833 km/h
1859 06-04-2015 16:00:00 11.75 C 6.54 g/m*3 11.75 C 11.96667 km/h
1860 06-04-2015 17:00:00 11.89167 C 6.44 g/m*3 11.89 C 11.69167 km/h
1861 06-04-2015 18:00:00 10.7 C 6.23 g/m*3 9.71 C 8.6 km/h
1862 06-04-2015 19:00:00 10.225 C 6.18 g/m*3 9.73 C 6.01667 km/h
1863 06-04-2015 20:00:00 7.81667 C 6.21 g/m*3 7.82 C 3.88333 km/h
1864 06-04-2015 21:00:00 5.40833 C 5.98 g/m*3 5.41 C 4.94167 km/h
1865 06-04-2015 22:00:00 4.68333 C 5.86 g/m*3 3.7 C 5.06667 km/h
1866 06-04-2015 23:00:00 3.81667 C 5.64 g/m*3 3.82 C 1.86667 km/h
1867 07-04-2015 00:00:00 2.65833 C 5.3 g/m*3 2.66 C 0 km/h
1868 07-04-2015 01:00:00 1.88333 C 5.12 g/m*3 1.88 C 0 km/h
1869 07-04-2015 02:00:00 1.24167 C 4.95 g/m*3 1.24 C 0 km/h
1870 07-04-2015 03:00:00 0.65 C 4.78 g/m*3 0.65 C 0 km/h
1871 07-04-2015 04:00:00 0.18333 C 4.66 g/m*3 0.18 C 0.26667 km/h
1872 07-04-2015 05:00:00 -0.23333 C 4.53 g/m*3 -0.23 C 0.8 km/h
1873 07-04-2015 06:00:00 -0.51667 C 4.47 g/m*3 -0.52 C 0.53333 km/h
1874 07-04-2015 07:00:00 -0.34167 C 4.54 g/m*3 -0.34 C 1.73333 km/h
1875 07-04-2015 08:00:00 -0.20833 C 4.59 g/m*3 -0.21 C 2.4 km/h
Sensor: Nr:Datum:Temp:Abs-Feuchte:Windchill:Wind:
Aussen-T/F 1876 07-04-2015 09:00:00 0.39167 C 4.83 g/m*3 0.39 C 1.2 km/h
1877 07-04-2015 10:00:00 1.7 C 5.29 g/m*3 1.7 C 1.6 km/h
1878 07-04-2015 11:00:00 4.98333 C 6.32 g/m*3 4.98 C 1.2 km/h
1879 07-04-2015 12:00:00 9.44167 C 5.77 g/m*3 9.44 C 4.54167 km/h
1880 07-04-2015 13:00:00 12.30833 C 5.69 g/m*3 12.31 C 6.29167 km/h
1881 07-04-2015 14:00:00 13.25 C 5.51 g/m*3 13.25 C 6.575 km/h
1882 07-04-2015 15:00:00 13.56667 C 5.22 g/m*3 13.57 C 5.61667 km/h
1883 07-04-2015 16:00:00 14.19167 C 5.34 g/m*3 14.19 C 5.34167 km/h
1884 07-04-2015 17:00:00 13.925 C 5.41 g/m*3 13.93 C 8.20833 km/h
1885 07-04-2015 18:00:00 13.48333 C 5.45 g/m*3 13.48 C 3.6 km/h
1886 07-04-2015 19:00:00 12.49167 C 5.71 g/m*3 12.49 C 4.81667 km/h
1887 07-04-2015 20:00:00 9.8 C 5.98 g/m*3 9.8 C 4.13333 km/h
1888 07-04-2015 21:00:00 7.60833 C 5.95 g/m*3 7.61 C 4.8 km/h
1889 07-04-2015 22:00:00 6.09167 C 5.85 g/m*3 6.09 C 1.86667 km/h
1890 07-04-2015 23:00:00 5.125 C 5.58 g/m*3 5.13 C 0.26667 km/h
1891 08-04-2015 00:00:00 4.13333 C 5.42 g/m*3 4.13 C 0 km/h
1892 08-04-2015 01:00:00 3.825 C 5.43 g/m*3 3.83 C 0.26667 km/h
1893 08-04-2015 02:00:00 3.49167 C 5.34 g/m*3 3.49 C 0.4 km/h
1894 08-04-2015 03:00:00 2.9 C 5.24 g/m*3 2.9 C 1.06667 km/h
1895 08-04-2015 04:00:00 2.525 C 5.15 g/m*3 2.53 C 0.93333 km/h
1896 08-04-2015 05:00:00 1.90833 C 5.02 g/m*3 1.91 C 0.53333 km/h
1897 08-04-2015 06:00:00 1.35 C 4.91 g/m*3 1.35 C 0.4 km/h
1898 08-04-2015 07:00:00 1.29167 C 4.94 g/m*3 1.29 C 0 km/h
1899 08-04-2015 08:00:00 1.975 C 5.19 g/m*3 1.98 C 0.13333 km/h
1900 08-04-2015 09:00:00 3.85833 C 5.61 g/m*3 3.86 C 1.33333 km/h
Sensor: Nr:Datum:Temp:Abs-Feuchte:Windchill:Wind:
Aussen-T/F 1901 08-04-2015 10:00:00 6.29167 C 6.1 g/m*3 6.29 C 1.33333 km/h
1902 08-04-2015 11:00:00 9.23 C 6.95 g/m*3 9.23 C 3.68 km/h
1903 08-04-2015 12:00:00 11.325 C 7.36 g/m*3 11.33 C 6.56667 km/h
1904 08-04-2015 13:00:00 13.59167 C 7.73 g/m*3 13.59 C 6.575 km/h
1905 08-04-2015 14:00:00 15.35833 C 8.09 g/m*3 15.36 C 8.35 km/h
1906 08-04-2015 15:00:00 16.3 C 8.13 g/m*3 16.3 C 9.95 km/h
1907 08-04-2015 16:00:00 17.01667 C 8.07 g/m*3 17.02 C 7.80833 km/h
1908 08-04-2015 17:00:00 17.25 C 7.92 g/m*3 17.25 C 6.31667 km/h
1909 08-04-2015 18:00:00 16.88333 C 7.74 g/m*3 16.88 C 6.56667 km/h
1910 08-04-2015 19:00:00 15.2 C 7.77 g/m*3 15.2 C 6.425 km/h
1911 08-04-2015 20:00:00 11.81667 C 7.58 g/m*3 11.82 C 4.13333 km/h
1912 08-04-2015 21:00:00 9.61667 C 7.35 g/m*3 9.26 C 5.2 km/h
1913 08-04-2015 22:00:00 8.25833 C 7.12 g/m*3 8.26 C 2.66667 km/h
1914 08-04-2015 23:00:00 7.24167 C 6.93 g/m*3 7.24 C 0.93333 km/h
1915 09-04-2015 00:00:00 6.46667 C 6.7 g/m*3 6.47 C 0 km/h
1916 09-04-2015 01:00:00 5.65 C 6.48 g/m*3 5.65 C 0 km/h
1917 09-04-2015 02:00:00 4.95833 C 6.29 g/m*3 4.96 C 0 km/h
1918 09-04-2015 03:00:00 4.4 C 6.13 g/m*3 4.4 C 0 km/h
1919 09-04-2015 04:00:00 4.04167 C 6.05 g/m*3 4.04 C 0 km/h
1920 09-04-2015 05:00:00 3.45833 C 5.82 g/m*3 3.46 C 0 km/h
1921 09-04-2015 06:00:00 2.90833 C 5.65 g/m*3 2.91 C 0 km/h
1922 09-04-2015 07:00:00 2.86667 C 5.66 g/m*3 2.87 C 0.13333 km/h
1923 09-04-2015 08:00:00 3.525 C 5.96 g/m*3 3.53 C 0 km/h
1924 09-04-2015 09:00:00 5.10833 C 6.64 g/m*3 5.11 C 0.13333 km/h
1925 09-04-2015 10:00:00 7.65833 C 7.64 g/m*3 7.66 C 0.26667 km/h
Sensor: Nr:Datum:Temp:Abs-Feuchte:Windchill:Wind:
Aussen-T/F 1926 09-04-2015 11:00:00 11.275 C 8.34 g/m*3 11.28 C 0.93333 km/h
1927 09-04-2015 12:00:00 14.7 C 8.69 g/m*3 14.7 C 5.075 km/h
1928 09-04-2015 13:00:00 17.96667 C 9.07 g/m*3 17.97 C 5.74167 km/h
1929 09-04-2015 14:00:00 19.31667 C 8.9 g/m*3 19.32 C 5.89167 km/h
1930 09-04-2015 15:00:00 20.4 C 9.63 g/m*3 20.4 C 8.61667 km/h
1931 09-04-2015 16:00:00 21.21667 C 9.43 g/m*3 21.22 C 6.99167 km/h
1932 09-04-2015 17:00:00 21.425 C 9.2 g/m*3 21.43 C 5.33333 km/h
1933 09-04-2015 18:00:00 21.65 C 8.78 g/m*3 21.65 C 4.675 km/h
1934 09-04-2015 19:00:00 18.95833 C 9 g/m*3 18.96 C 4.4 km/h
1935 09-04-2015 20:00:00 14.15 C 8.34 g/m*3 14.15 C 5.73333 km/h
1936 09-04-2015 21:00:00 13.24167 C 8.35 g/m*3 13.24 C 6.55833 km/h
1937 09-04-2015 22:00:00 12.49167 C 8.25 g/m*3 12.49 C 4.66667 km/h
1938 09-04-2015 23:00:00 10.88333 C 7.97 g/m*3 10.88 C 2.53333 km/h
1939 10-04-2015 00:00:00 9.68333 C 7.74 g/m*3 9.68 C 0.13333 km/h
1940 10-04-2015 01:00:00 8.64167 C 7.45 g/m*3 8.64 C 0 km/h
1941 10-04-2015 02:00:00 7.70833 C 7.22 g/m*3 7.71 C 0.13333 km/h
1942 10-04-2015 03:00:00 6.9 C 6.98 g/m*3 6.9 C 0 km/h
1943 10-04-2015 04:00:00 6.20833 C 6.82 g/m*3 6.21 C 0 km/h
1944 10-04-2015 05:00:00 5.49167 C 6.57 g/m*3 5.49 C 0.26667 km/h
1945 10-04-2015 06:00:00 5.04167 C 6.43 g/m*3 5.04 C 0.13333 km/h
1946 10-04-2015 07:00:00 4.68333 C 6.33 g/m*3 4.68 C 0 km/h
1947 10-04-2015 08:00:00 5.21667 C 6.62 g/m*3 5.22 C 0.13333 km/h
1948 10-04-2015 09:00:00 6.63333 C 7.17 g/m*3 6.63 C 0 km/h
1949 10-04-2015 10:00:00 9.59167 C 8.14 g/m*3 9.59 C 0 km/h
1950 10-04-2015 11:00:00 13.50833 C 8.89 g/m*3 13.51 C 0.53333 km/h
Sensor: Nr:Datum:Temp:Abs-Feuchte:Windchill:Wind:
Aussen-T/F 1951 10-04-2015 12:00:00 17.475 C 9.14 g/m*3 17.48 C 2.66667 km/h
1952 10-04-2015 13:00:00 21.43333 C 8.48 g/m*3 21.43 C 6.29167 km/h
1953 10-04-2015 14:00:00 23.075 C 7.84 g/m*3 23.08 C 6.84167 km/h
1954 10-04-2015 15:00:00 23.68333 C 6.59 g/m*3 23.68 C 10.625 km/h
1955 10-04-2015 16:00:00 24.59167 C 6.26 g/m*3 24.59 C 8.60833 km/h
1956 10-04-2015 17:00:00 24.38333 C 5.71 g/m*3 24.38 C 9.13333 km/h
1957 10-04-2015 18:00:00 23.00833 C 6.24 g/m*3 23.01 C 5.08333 km/h
1958 10-04-2015 19:00:00 18.19167 C 7.69 g/m*3 18.19 C 4.13333 km/h
1959 10-04-2015 20:00:00 15.24167 C 7.42 g/m*3 15.24 C 6.28333 km/h
1960 10-04-2015 21:00:00 13.61667 C 7.04 g/m*3 13.62 C 5.33333 km/h
1961 10-04-2015 22:00:00 12.20833 C 6.69 g/m*3 12.21 C 3.86667 km/h
1962 10-04-2015 23:00:00 11.23333 C 6.46 g/m*3 11.23 C 1.46667 km/h
1963 11-04-2015 00:00:00 10.76667 C 6.38 g/m*3 10.77 C 2.66667 km/h
1964 11-04-2015 01:00:00 10.40833 C 6.35 g/m*3 10.41 C 2.13333 km/h
1965 11-04-2015 02:00:00 9.04167 C 6.21 g/m*3 9.04 C 0.8 km/h
1966 11-04-2015 03:00:00 8.7 C 6.07 g/m*3 8.7 C 1.475 km/h
1967 11-04-2015 04:00:00 9.09167 C 6.14 g/m*3 9.09 C 2.8 km/h
1968 11-04-2015 05:00:00 7.88333 C 6.18 g/m*3 7.88 C 2 km/h
1969 11-04-2015 06:00:00 7.775 C 6.19 g/m*3 7.78 C 2.80833 km/h
1970 11-04-2015 07:00:00 8.84167 C 6.25 g/m*3 8.84 C 4.8 km/h
1971 11-04-2015 08:00:00 9.6 C 6.63 g/m*3 8.97 C 6.15 km/h
1972 11-04-2015 09:00:00 13.03333 C 7.7 g/m*3 13.03 C 13.95 km/h
1973 11-04-2015 10:00:00 14.975 C 8.44 g/m*3 14.98 C 15.96667 km/h
1974 11-04-2015 11:00:00 15.55 C 8.73 g/m*3 15.55 C 19.96667 km/h
1975 11-04-2015 12:00:00 15.86667 C 9.02 g/m*3 15.87 C 19.56667 km/h
Sensor: Nr:Datum:Temp:Abs-Feuchte:Windchill:Wind:
Aussen-T/F 1976 11-04-2015 13:00:00 15.63333 C 9.17 g/m*3 15.63 C 19.43333 km/h
1977 11-04-2015 14:00:00 15.93333 C 9.35 g/m*3 15.93 C 18.9 km/h
1978 11-04-2015 15:00:00 15.825 C 9.19 g/m*3 15.83 C 16.63333 km/h
1979 11-04-2015 16:00:00 16.11667 C 9.01 g/m*3 16.12 C 16.23333 km/h
1980 11-04-2015 17:00:00 15.825 C 9.08 g/m*3 15.83 C 13.83333 km/h
1981 11-04-2015 18:00:00 15.025 C 8.82 g/m*3 15.03 C 10.89167 km/h
1982 11-04-2015 19:00:00 14.61667 C 8.51 g/m*3 14.62 C 10.61667 km/h
1983 11-04-2015 20:00:00 13.90833 C 8.65 g/m*3 13.91 C 10.20833 km/h
1984 11-04-2015 21:00:00 12.975 C 8.85 g/m*3 12.98 C 9 km/h
1985 11-04-2015 22:00:00 10.375 C 8.11 g/m*3 9.14 C 9.65833 km/h
1986 11-04-2015 23:00:00 9.14167 C 7.5 g/m*3 9.14 C 4.15 km/h
1987 12-04-2015 00:00:00 8.73333 C 7.25 g/m*3 8.73 C 2.66667 km/h
1988 12-04-2015 01:00:00 8.10833 C 7.31 g/m*3 8.11 C 0.93333 km/h
1989 12-04-2015 02:00:00 7.44167 C 7.04 g/m*3 7.44 C 3.33333 km/h
1990 12-04-2015 03:00:00 7.11667 C 6.93 g/m*3 7.12 C 1.6 km/h
1991 12-04-2015 04:00:00 5.8 C 6.48 g/m*3 5.8 C 3.06667 km/h
1992 12-04-2015 05:00:00 5.30833 C 6.39 g/m*3 5.31 C 0 km/h
1993 12-04-2015 06:00:00 4.89167 C 6.26 g/m*3 4.89 C 0.13333 km/h
1994 12-04-2015 07:00:00 4.83333 C 6.27 g/m*3 4.83 C 0.13333 km/h
1995 12-04-2015 08:00:00 5.99167 C 6.7 g/m*3 5.99 C 0.53333 km/h
1996 12-04-2015 09:00:00 7.43333 C 6.97 g/m*3 7.43 C 0.8 km/h
1997 12-04-2015 10:00:00 9.275 C 7.18 g/m*3 9.28 C 1.73333 km/h
1998 12-04-2015 11:00:00 11.975 C 7.53 g/m*3 11.98 C 7.51667 km/h
1999 12-04-2015 12:00:00 14.05 C 6.67 g/m*3 14.05 C 12.1 km/h
2000 12-04-2015 13:00:00 15.58333 C 6.69 g/m*3 15.58 C 10.1 km/h
Sensor: Nr:Datum:Temp:Abs-Feuchte:Windchill:Wind:
Aussen-T/F 2001 12-04-2015 14:00:00 16.625 C 6.31 g/m*3 16.63 C 12.23333 km/h
2002 12-04-2015 15:00:00 17.74167 C 6.34 g/m*3 17.74 C 12.48333 km/h
2003 12-04-2015 16:00:00 18.60833 C 6.14 g/m*3 18.61 C 13.7 km/h
2004 12-04-2015 17:00:00 19.16667 C 6.54 g/m*3 19.17 C 14.1 km/h
2005 12-04-2015 18:00:00 19.14167 C 6.67 g/m*3 19.14 C 11.83333 km/h
2006 12-04-2015 19:00:00 17.25 C 7.01 g/m*3 17.25 C 6.16667 km/h
2007 12-04-2015 20:00:00 13.85833 C 7.34 g/m*3 13.86 C 4.66667 km/h
2008 12-04-2015 21:00:00 11.78333 C 7.45 g/m*3 11.78 C 2.93333 km/h
2009 12-04-2015 22:00:00 11.325 C 7.32 g/m*3 11.33 C 1.6 km/h
2010 12-04-2015 23:00:00 10.225 C 7.34 g/m*3 10.23 C 4 km/h
2011 13-04-2015 00:00:00 9.75 C 7.32 g/m*3 9.75 C 1.6 km/h
2012 13-04-2015 01:00:00 10.3 C 7.78 g/m*3 10.3 C 4.80833 km/h
2013 13-04-2015 02:00:00 11.86667 C 7.99 g/m*3 11.87 C 9.4 km/h
2014 13-04-2015 03:00:00 11.725 C 8.13 g/m*3 11.73 C 7.78333 km/h
2015 13-04-2015 04:00:00 11.89167 C 8.13 g/m*3 11.89 C 6.30833 km/h
2016 13-04-2015 05:00:00 11.38333 C 7.62 g/m*3 11.38 C 7.775 km/h
2017 13-04-2015 06:00:00 10.54167 C 7.07 g/m*3 10.12 C 5.88333 km/h
2018 13-04-2015 07:00:00 10.8 C 7.26 g/m*3 10.32 C 6.30833 km/h
2019 13-04-2015 08:00:00 10.95 C 7.54 g/m*3 10.16 C 7.8 km/h
2020 13-04-2015 09:00:00 10.44167 C 7.74 g/m*3 9.54 C 7.925 km/h
2021 13-04-2015 10:00:00 10.33333 C 7.68 g/m*3 8.91 C 10.75833 km/h
2022 13-04-2015 11:00:00 10.875 C 7.68 g/m*3 9.66 C 10.09167 km/h
2023 13-04-2015 12:00:00 11.99167 C 7.64 g/m*3 11.99 C 13.7 km/h
2024 13-04-2015 13:00:00 13.025 C 7.58 g/m*3 13.03 C 13.96667 km/h
2025 13-04-2015 14:00:00 13.43333 C 7.17 g/m*3 13.43 C 11.96667 km/h
Sensor: Nr:Datum:Temp:Abs-Feuchte:Windchill:Wind:
Aussen-T/F 2026 13-04-2015 15:00:00 14.61667 C 7.2 g/m*3 14.62 C 12.36667 km/h
2027 13-04-2015 16:00:00 14.66667 C 6.64 g/m*3 14.67 C 9.95833 km/h
2028 13-04-2015 17:00:00 14.60833 C 6.47 g/m*3 14.61 C 8.6 km/h
2029 13-04-2015 18:00:00 14.725 C 6.42 g/m*3 14.73 C 7.50833 km/h
2030 13-04-2015 19:00:00 13.5 C 6.14 g/m*3 13.5 C 4.675 km/h
2031 13-04-2015 20:00:00 11.275 C 6.36 g/m*3 11.28 C 1.86667 km/h
2032 13-04-2015 21:00:00 8.95833 C 6.28 g/m*3 8.96 C 4.53333 km/h
2033 13-04-2015 22:00:00 7.64167 C 6.07 g/m*3 7.64 C 2.8 km/h
2034 13-04-2015 23:00:00 6.725 C 5.96 g/m*3 6.73 C 0.4 km/h
2035 14-04-2015 00:00:00 6.25 C 5.89 g/m*3 6.25 C 0.4 km/h
2036 14-04-2015 01:00:00 5.825 C 5.88 g/m*3 5.83 C 0.4 km/h
2037 14-04-2015 02:00:00 5.325 C 5.83 g/m*3 5.33 C 0.26667 km/h
2038 14-04-2015 03:00:00 4.975 C 5.79 g/m*3 4.97 C 0 km/h
2039 14-04-2015 04:00:00 4.80833 C 5.83 g/m*3 4.81 C 0 km/h
2040 14-04-2015 05:00:00 4.46667 C 5.8 g/m*3 4.47 C 0.13333 km/h
2041 14-04-2015 06:00:00 4.23333 C 5.8 g/m*3 4.23 C 0.13333 km/h
2042 14-04-2015 07:00:00 4.775 C 6.05 g/m*3 4.78 C 0.66667 km/h
2043 14-04-2015 08:00:00 5.875 C 6.44 g/m*3 5.88 C 1.2 km/h
2044 14-04-2015 09:00:00 8.18333 C 7.22 g/m*3 8.18 C 4.675 km/h
2045 14-04-2015 10:00:00 12.23333 C 7.98 g/m*3 12.23 C 13.83333 km/h
2046 14-04-2015 11:00:00 14.86667 C 8.5 g/m*3 14.87 C 12.63333 km/h
2047 14-04-2015 12:00:00 17.44167 C 8.93 g/m*3 17.44 C 12.5 km/h
2048 14-04-2015 13:00:00 19.475 C 9.36 g/m*3 19.48 C 13.56667 km/h
2049 14-04-2015 14:00:00 21.40833 C 9.64 g/m*3 21.41 C 13.68333 km/h
2050 14-04-2015 15:00:00 22.78333 C 9.22 g/m*3 22.78 C 14.1 km/h
Sensor: Nr:Datum:Temp:Abs-Feuchte:Windchill:Wind:
Aussen-T/F 2051 14-04-2015 16:00:00 24.35833 C 7.03 g/m*3 24.36 C 16.23333 km/h
2052 14-04-2015 17:00:00 24.775 C 6.63 g/m*3 24.78 C 14.63333 km/h
2053 14-04-2015 18:00:00 24.5 C 6.92 g/m*3 24.5 C 11.03333 km/h
2054 14-04-2015 19:00:00 22.99167 C 7.36 g/m*3 22.99 C 8.45833 km/h
2055 14-04-2015 20:00:00 18.59167 C 8.26 g/m*3 18.59 C 4.26667 km/h
2056 14-04-2015 21:00:00 15.68333 C 8.7 g/m*3 15.68 C 4.93333 km/h
2057 14-04-2015 22:00:00 14.24167 C 8.81 g/m*3 14.24 C 2.66667 km/h
2058 14-04-2015 23:00:00 13 C 8.68 g/m*3 13 C 2.13333 km/h
2059 15-04-2015 00:00:00 12.29167 C 8.48 g/m*3 12.29 C 1.6 km/h
2060 15-04-2015 01:00:00 11.84167 C 8.28 g/m*3 11.84 C 2.8 km/h
2061 15-04-2015 02:00:00 11.375 C 8.1 g/m*3 11.38 C 3.875 km/h
2062 15-04-2015 03:00:00 10.75833 C 8 g/m*3 10.76 C 2.66667 km/h
2063 15-04-2015 04:00:00 9.875 C 7.85 g/m*3 9.88 C 1.33333 km/h
2064 15-04-2015 05:00:00 8.56667 C 7.52 g/m*3 8.57 C 0.53333 km/h
2065 15-04-2015 06:00:00 7.675 C 7.31 g/m*3 7.68 C 0.8 km/h
2066 15-04-2015 07:00:00 7.18333 C 7.25 g/m*3 7.18 C 0.26667 km/h
2067 15-04-2015 08:00:00 8.01667 C 7.73 g/m*3 8.02 C 0.4 km/h
2068 15-04-2015 09:00:00 10.03333 C 8.56 g/m*3 10.03 C 1.6 km/h
2069 15-04-2015 10:00:00 14.25833 C 9.59 g/m*3 14.26 C 3.86667 km/h
2070 15-04-2015 11:00:00 18.70833 C 9.89 g/m*3 18.71 C 6.01667 km/h
2071 15-04-2015 12:00:00 21.65 C 9.16 g/m*3 21.65 C 9.81667 km/h
2072 15-04-2015 13:00:00 23.9 C 8.24 g/m*3 23.9 C 12.63333 km/h
2073 15-04-2015 14:00:00 25.08333 C 7.69 g/m*3 25.08 C 14.09167 km/h
2074 15-04-2015 15:00:00 25.85833 C 7.45 g/m*3 25.86 C 14.1 km/h
2075 15-04-2015 16:00:00 26.63333 C 7.46 g/m*3 26.63 C 12.36667 km/h
Sensor: Nr:Datum:Temp:Abs-Feuchte:Windchill:Wind:
Aussen-T/F 2076 15-04-2015 17:00:00 26.65 C 6.98 g/m*3 26.65 C 14.23333 km/h
2077 15-04-2015 18:00:00 24.49167 C 7.23 g/m*3 24.49 C 7.65 km/h
2078 15-04-2015 19:00:00 24.29167 C 7.83 g/m*3 24.29 C 7.51667 km/h
2079 15-04-2015 20:00:00 19.25 C 8.5 g/m*3 19.25 C 3.46667 km/h
2080 15-04-2015 21:00:00 16.875 C 8.88 g/m*3 16.88 C 5.89167 km/h
2081 15-04-2015 22:00:00 15.275 C 8.99 g/m*3 15.28 C 1.86667 km/h
2082 15-04-2015 23:00:00 13.89167 C 8.69 g/m*3 13.89 C 0.53333 km/h
2083 16-04-2015 00:00:00 12.93333 C 8.52 g/m*3 12.93 C 0.8 km/h
2084 16-04-2015 01:00:00 12.05 C 8.34 g/m*3 12.05 C 0.8 km/h
2085 16-04-2015 02:00:00 10.80833 C 8.12 g/m*3 10.81 C 0.26667 km/h
2086 16-04-2015 03:00:00 10.525 C 8.08 g/m*3 10.53 C 3.75 km/h
2087 16-04-2015 04:00:00 9.75833 C 7.86 g/m*3 9.76 C 1.34167 km/h
2088 16-04-2015 05:00:00 8.85 C 7.65 g/m*3 8.85 C 0.26667 km/h
2089 16-04-2015 06:00:00 8.10833 C 7.51 g/m*3 8.11 C 0 km/h
2090 16-04-2015 07:00:00 8.14167 C 7.65 g/m*3 8.14 C 0.53333 km/h
2091 16-04-2015 08:00:00 9.325 C 8.14 g/m*3 9.32 C 0 km/h
2092 16-04-2015 09:00:00 11.40833 C 8.8 g/m*3 11.41 C 0.8 km/h
2093 16-04-2015 10:00:00 13.94167 C 9.24 g/m*3 13.94 C 2.4 km/h
2094 16-04-2015 11:00:00 15.88333 C 9.47 g/m*3 15.88 C 3.2 km/h
2095 16-04-2015 12:00:00 18.29167 C 9.69 g/m*3 18.29 C 4.93333 km/h
2096 16-04-2015 13:00:00 20.55 C 9.62 g/m*3 20.55 C 6.55833 km/h
2097 16-04-2015 14:00:00 21.73333 C 9.56 g/m*3 21.73 C 5.49167 km/h
2098 16-04-2015 15:00:00 22.65833 C 9.98 g/m*3 22.66 C 7.78333 km/h
2099 16-04-2015 16:00:00 21.96667 C 9.41 g/m*3 21.97 C 7.66667 km/h
2100 16-04-2015 17:00:00 21.56667 C 9.23 g/m*3 21.57 C 7.10833 km/h
Sensor: Nr:Datum:Temp:Abs-Feuchte:Windchill:Wind:
Aussen-T/F 2101 16-04-2015 18:00:00 20.35833 C 9 g/m*3 20.36 C 8.20833 km/h
2102 16-04-2015 19:00:00 18.76667 C 8.77 g/m*3 18.77 C 8.74167 km/h
2103 16-04-2015 20:00:00 17.35 C 8.61 g/m*3 17.35 C 5.36667 km/h
2104 16-04-2015 21:00:00 16.29167 C 8.61 g/m*3 16.29 C 4.54167 km/h
2105 16-04-2015 22:00:00 15.56667 C 8.72 g/m*3 15.57 C 5.09167 km/h
2106 16-04-2015 23:00:00 14.30833 C 8.75 g/m*3 14.31 C 2.26667 km/h
2107 17-04-2015 00:00:00 13.625 C 8.48 g/m*3 13.63 C 4.41667 km/h
2108 17-04-2015 01:00:00 12.975 C 8.5 g/m*3 12.98 C 5.23333 km/h
2109 17-04-2015 02:00:00 11.35 C 9.01 g/m*3 11.35 C 3.74167 km/h
2110 17-04-2015 03:00:00 10.00833 C 8.67 g/m*3 10.01 C 2.53333 km/h
2111 17-04-2015 04:00:00 8.80833 C 8.08 g/m*3 8.81 C 4.66667 km/h
2112 17-04-2015 05:00:00 7.84167 C 7.47 g/m*3 7.2 C 5.33333 km/h
2113 17-04-2015 06:00:00 7.64167 C 7.18 g/m*3 7.64 C 3.6 km/h
2114 17-04-2015 07:00:00 8.20833 C 7.39 g/m*3 8.21 C 1.86667 km/h
2115 17-04-2015 08:00:00 8.91667 C 7.48 g/m*3 8.92 C 0.93333 km/h
2116 17-04-2015 09:00:00 10.03333 C 7.54 g/m*3 10.03 C 4.55833 km/h
2117 17-04-2015 10:00:00 10.59167 C 7.22 g/m*3 9.58 C 8.60833 km/h
2118 17-04-2015 11:00:00 10.66667 C 7.22 g/m*3 9.92 C 7.38333 km/h
2119 17-04-2015 12:00:00 12.425 C 6.91 g/m*3 12.43 C 4.68333 km/h
2120 17-04-2015 13:00:00 15.28333 C 5.81 g/m*3 15.28 C 11.025 km/h
2121 17-04-2015 14:00:00 15.5 C 5.39 g/m*3 15.5 C 11.41667 km/h
2122 17-04-2015 15:00:00 16.8 C 5.67 g/m*3 16.8 C 15.3 km/h
2123 17-04-2015 16:00:00 16.775 C 5.73 g/m*3 16.77 C 15.16667 km/h
2124 17-04-2015 17:00:00 14.74167 C 6.01 g/m*3 14.74 C 17.96667 km/h
2125 17-04-2015 18:00:00 13.99167 C 5.81 g/m*3 13.99 C 16.76667 km/h
Sensor: Nr:Datum:Temp:Abs-Feuchte:Windchill:Wind:
Aussen-T/F 2126 17-04-2015 19:00:00 12.75833 C 5.59 g/m*3 12.76 C 13.7 km/h
2127 17-04-2015 20:00:00 11.20833 C 5.36 g/m*3 11.21 C 9.825 km/h
2128 17-04-2015 21:00:00 9.675 C 5.37 g/m*3 9.68 C 3.75 km/h
2129 17-04-2015 22:00:00 7.575 C 5.53 g/m*3 7.58 C 3.6 km/h
2130 17-04-2015 23:00:00 6.61667 C 5.41 g/m*3 6.62 C 2.4 km/h
2131 18-04-2015 00:00:00 5.75 C 5.37 g/m*3 5.75 C 1.6 km/h
2132 18-04-2015 01:00:00 5.075 C 5.37 g/m*3 5.08 C 1.33333 km/h
2133 18-04-2015 02:00:00 4.55 C 5.36 g/m*3 4.55 C 0.8 km/h
2134 18-04-2015 03:00:00 4.05 C 5.31 g/m*3 4.05 C 0.13333 km/h
2135 18-04-2015 04:00:00 3.10833 C 5.11 g/m*3 3.11 C 0 km/h
2136 18-04-2015 05:00:00 2.43333 C 5.04 g/m*3 2.43 C 0 km/h
2137 18-04-2015 06:00:00 2.025 C 5 g/m*3 2.03 C 0.26667 km/h
2138 18-04-2015 07:00:00 2 C 5.04 g/m*3 2 C 0.13333 km/h
2139 18-04-2015 08:00:00 2.76667 C 5.31 g/m*3 2.77 C 0.4 km/h
2140 18-04-2015 09:00:00 4.84167 C 5.78 g/m*3 4.84 C 1.86667 km/h
2141 18-04-2015 10:00:00 7.05833 C 6.24 g/m*3 7.06 C 1.06667 km/h
2142 18-04-2015 11:00:00 9.5 C 6.11 g/m*3 9 C 5.63333 km/h
2143 18-04-2015 12:00:00 12 C 5.15 g/m*3 12 C 11.96667 km/h
2144 18-04-2015 13:00:00 13.95 C 5.27 g/m*3 13.95 C 13.96667 km/h
2145 18-04-2015 14:00:00 14.775 C 4.96 g/m*3 14.78 C 13.55833 km/h
2146 18-04-2015 15:00:00 15.78333 C 5.01 g/m*3 15.78 C 13.83333 km/h
2147 18-04-2015 16:00:00 16.46667 C 4.95 g/m*3 16.47 C 10.625 km/h
2148 18-04-2015 17:00:00 16.46667 C 4.81 g/m*3 16.47 C 10.36667 km/h
2149 18-04-2015 18:00:00 16.24167 C 4.78 g/m*3 16.24 C 9.15 km/h
2150 18-04-2015 19:00:00 15.475 C 4.73 g/m*3 15.48 C 5.89167 km/h
Sensor: Nr:Datum:Temp:Abs-Feuchte:Windchill:Wind:
Aussen-T/F 2151 18-04-2015 20:00:00 11.06667 C 5.35 g/m*3 11.07 C 4.13333 km/h
2152 18-04-2015 21:00:00 8.21667 C 5.23 g/m*3 8.22 C 4.66667 km/h
2153 18-04-2015 22:00:00 7 C 5.23 g/m*3 7 C 1.86667 km/h
2154 18-04-2015 23:00:00 5.91667 C 5.17 g/m*3 5.92 C 0.26667 km/h
2155 19-04-2015 00:00:00 5.03333 C 5.05 g/m*3 5.03 C 0.13333 km/h
2156 19-04-2015 01:00:00 4.2 C 4.97 g/m*3 4.2 C 0 km/h
2157 19-04-2015 02:00:00 3.25 C 4.81 g/m*3 3.25 C 0.13333 km/h
2158 19-04-2015 03:00:00 2.48333 C 4.73 g/m*3 2.48 C 0 km/h
2159 19-04-2015 04:00:00 1.875 C 4.67 g/m*3 1.88 C 0 km/h
2160 19-04-2015 05:00:00 1.4 C 4.65 g/m*3 1.4 C 0 km/h
2161 19-04-2015 06:00:00 0.89167 C 4.6 g/m*3 0.89 C 0 km/h
2162 19-04-2015 07:00:00 1.01667 C 4.71 g/m*3 1.02 C 0 km/h
2163 19-04-2015 08:00:00 2.00833 C 5.05 g/m*3 2.01 C 0 km/h
2164 19-04-2015 09:00:00 4.49167 C 5.66 g/m*3 4.49 C 0.53333 km/h
2165 19-04-2015 10:00:00 7.475 C 5.97 g/m*3 7.48 C 2.66667 km/h
2166 19-04-2015 11:00:00 11.425 C 5.91 g/m*3 11.43 C 7.25 km/h
2167 19-04-2015 12:00:00 14.00833 C 5.68 g/m*3 14.01 C 8.99167 km/h
2168 19-04-2015 13:00:00 15.9 C 5.68 g/m*3 15.9 C 11.83333 km/h
2169 19-04-2015 14:00:00 17.00833 C 5.57 g/m*3 17.01 C 11.025 km/h
2170 19-04-2015 15:00:00 18.19167 C 5.49 g/m*3 18.19 C 9.525 km/h
2171 19-04-2015 16:00:00 18.73333 C 5.35 g/m*3 18.73 C 9.14167 km/h
2172 19-04-2015 17:00:00 19.35833 C 5.24 g/m*3 19.36 C 12.49167 km/h
2173 19-04-2015 18:00:00 19.33333 C 5.06 g/m*3 19.33 C 8.74167 km/h
2174 19-04-2015 19:00:00 18.41667 C 4.99 g/m*3 18.42 C 5.625 km/h
2175 19-04-2015 20:00:00 13.44167 C 5.71 g/m*3 13.44 C 5.48333 km/h
Sensor: Nr:Datum:Temp:Abs-Feuchte:Windchill:Wind:
Aussen-T/F 2176 19-04-2015 21:00:00 10.80833 C 5.8 g/m*3 10.43 C 5.9 km/h
2177 19-04-2015 22:00:00 9.34167 C 5.86 g/m*3 9.34 C 2.26667 km/h
2178 19-04-2015 23:00:00 8.125 C 5.81 g/m*3 8.13 C 0.93333 km/h
2179 20-04-2015 00:00:00 7.28333 C 5.67 g/m*3 7.28 C 0.13333 km/h
2180 20-04-2015 01:00:00 6.275 C 5.58 g/m*3 6.28 C 0.13333 km/h
2181 20-04-2015 02:00:00 5.175 C 5.46 g/m*3 5.18 C 0 km/h
2182 20-04-2015 03:00:00 4.51667 C 5.44 g/m*3 4.52 C 0.13333 km/h
2183 20-04-2015 04:00:00 4.075 C 5.38 g/m*3 4.08 C 0 km/h
2184 20-04-2015 05:00:00 3.59167 C 5.38 g/m*3 3.59 C 0 km/h
2185 20-04-2015 06:00:00 3.4 C 5.42 g/m*3 3.4 C 0.13333 km/h
2186 20-04-2015 07:00:00 3.88333 C 5.57 g/m*3 3.88 C 0.4 km/h
2187 20-04-2015 08:00:00 5.06667 C 5.89 g/m*3 5.07 C 0.13333 km/h
2188 20-04-2015 09:00:00 7.18333 C 6.45 g/m*3 7.18 C 0.13333 km/h
2189 20-04-2015 10:00:00 9.50833 C 6.75 g/m*3 9.51 C 0.66667 km/h
2190 20-04-2015 11:00:00 13.19167 C 6.64 g/m*3 13.19 C 2.93333 km/h
2191 20-04-2015 12:00:00 16.6 C 6.77 g/m*3 16.6 C 10.08333 km/h
2192 20-04-2015 13:00:00 19.05833 C 6.95 g/m*3 19.06 C 8.58333 km/h
2193 20-04-2015 14:00:00 20.275 C 6.76 g/m*3 20.27 C 10.48333 km/h
2194 20-04-2015 15:00:00 21.45833 C 6.44 g/m*3 21.46 C 10.2 km/h
2195 20-04-2015 16:00:00 22.475 C 6.07 g/m*3 22.48 C 11.29167 km/h
2196 20-04-2015 17:00:00 22.66667 C 6.07 g/m*3 22.67 C 11.3 km/h
2197 20-04-2015 18:00:00 22.26667 C 5.76 g/m*3 22.27 C 12.36667 km/h
2198 20-04-2015 19:00:00 20.81667 C 5.59 g/m*3 20.82 C 10.625 km/h
2199 20-04-2015 20:00:00 17.375 C 6.13 g/m*3 17.38 C 3.875 km/h
2200 20-04-2015 21:00:00 13.575 C 6.33 g/m*3 13.58 C 4.8 km/h
Sensor: Nr:Datum:Temp:Abs-Feuchte:Windchill:Wind:
Aussen-T/F 2201 20-04-2015 22:00:00 11.98333 C 6.45 g/m*3 11.98 C 4 km/h
2202 20-04-2015 23:00:00 11.175 C 6.61 g/m*3 11.18 C 4 km/h
2203 21-04-2015 00:00:00 10.11667 C 6.75 g/m*3 10.12 C 2 km/h
2204 21-04-2015 01:00:00 8.73333 C 6.57 g/m*3 8.73 C 0.13333 km/h
2205 21-04-2015 02:00:00 7.825 C 6.41 g/m*3 7.83 C 0.13333 km/h
2206 21-04-2015 03:00:00 6.76667 C 6.28 g/m*3 6.77 C 0 km/h
2207 21-04-2015 04:00:00 6.00833 C 6.19 g/m*3 6.01 C 0.26667 km/h
2208 21-04-2015 05:00:00 5.36667 C 6.1 g/m*3 5.37 C 0.13333 km/h
2209 21-04-2015 06:00:00 5.05 C 6.06 g/m*3 5.05 C 0.4 km/h
2210 21-04-2015 07:00:00 5.125 C 6.12 g/m*3 5.13 C 0 km/h
2211 21-04-2015 08:00:00 5.78333 C 6.42 g/m*3 5.78 C 0 km/h
2212 21-04-2015 09:00:00 7.88333 C 7.05 g/m*3 7.88 C 0.13333 km/h
2213 21-04-2015 10:00:00 10.80833 C 7.61 g/m*3 10.81 C 0.8 km/h
2214 21-04-2015 11:00:00 14.1 C 8.03 g/m*3 14.1 C 2 km/h
2215 21-04-2015 12:00:00 17.4 C 7.71 g/m*3 17.4 C 4.8 km/h
2216 21-04-2015 13:00:00 20.93333 C 7.59 g/m*3 20.93 C 7.8 km/h
2217 21-04-2015 14:00:00 22.025 C 7 g/m*3 22.03 C 7.65 km/h
2218 21-04-2015 15:00:00 23.13333 C 6.35 g/m*3 23.13 C 9.15833 km/h
2219 21-04-2015 16:00:00 23.725 C 6.21 g/m*3 23.73 C 9.54167 km/h
2220 21-04-2015 17:00:00 23.55833 C 6.4 g/m*3 23.56 C 12.36667 km/h
2221 21-04-2015 18:00:00 22.8 C 6.72 g/m*3 22.8 C 10.5 km/h
2222 21-04-2015 19:00:00 21.54167 C 6.17 g/m*3 21.54 C 7.64167 km/h
2223 21-04-2015 20:00:00 17.93333 C 5.79 g/m*3 17.93 C 4.825 km/h
2224 21-04-2015 21:00:00 15.5 C 5.81 g/m*3 15.5 C 4.675 km/h
2225 21-04-2015 22:00:00 14.08333 C 6.03 g/m*3 14.08 C 4.26667 km/h
Sensor: Nr:Datum:Temp:Abs-Feuchte:Windchill:Wind:
Aussen-T/F 2226 21-04-2015 23:00:00 12.49167 C 6.42 g/m*3 12.49 C 4 km/h
2227 22-04-2015 00:00:00 11.16667 C 6.69 g/m*3 11.17 C 3.33333 km/h
2228 22-04-2015 01:00:00 10.45833 C 6.97 g/m*3 10.46 C 3.73333 km/h
2229 22-04-2015 02:00:00 10.05 C 6.97 g/m*3 10.05 C 3.33333 km/h
2230 22-04-2015 03:00:00 9.20833 C 6.67 g/m*3 9.21 C 4.95 km/h
2231 22-04-2015 04:00:00 8.525 C 6.57 g/m*3 8.53 C 4.825 km/h
2232 22-04-2015 05:00:00 7.49167 C 6.58 g/m*3 6.35 C 6.85 km/h
2233 22-04-2015 06:00:00 6.69167 C 6.57 g/m*3 6.69 C 3.6 km/h
2234 22-04-2015 07:00:00 6.40833 C 6.55 g/m*3 5.6 C 5.225 km/h
2235 22-04-2015 08:00:00 6.675 C 6.61 g/m*3 6.68 C 4.15 km/h
2236 22-04-2015 09:00:00 7.75 C 6.65 g/m*3 6.14 C 9.01667 km/h
2237 22-04-2015 10:00:00 8.725 C 6.79 g/m*3 6.88 C 11.29167 km/h
2238 22-04-2015 11:00:00 10.2 C 6.89 g/m*3 8.7 C 11.025 km/h
2239 22-04-2015 12:00:00 11.90833 C 6.92 g/m*3 11.91 C 13.56667 km/h
2240 22-04-2015 13:00:00 13.75833 C 6.98 g/m*3 13.76 C 14.5 km/h
2241 22-04-2015 14:00:00 14.35 C 7 g/m*3 14.35 C 12.63333 km/h
2242 22-04-2015 15:00:00 15.25833 C 7.12 g/m*3 15.26 C 11.83333 km/h
2243 22-04-2015 16:00:00 15.95 C 7.23 g/m*3 15.95 C 12.63333 km/h
2244 22-04-2015 17:00:00 16.3 C 7.23 g/m*3 16.3 C 12.23333 km/h
2245 22-04-2015 18:00:00 16.525 C 6.73 g/m*3 16.52 C 11.7 km/h
2246 22-04-2015 19:00:00 14.625 C 6.41 g/m*3 14.63 C 9.55833 km/h
2247 22-04-2015 20:00:00 12.19167 C 6.27 g/m*3 12.19 C 4.14167 km/h
2248 22-04-2015 21:00:00 9.21667 C 6.42 g/m*3 9.22 C 4 km/h
2249 22-04-2015 22:00:00 8.125 C 6.44 g/m*3 8.13 C 0.53333 km/h
2250 22-04-2015 23:00:00 7.03333 C 6.25 g/m*3 7.03 C 0.13333 km/h
Sensor: Nr:Datum:Temp:Abs-Feuchte:Windchill:Wind:
Aussen-T/F 2251 23-04-2015 00:00:00 6.025 C 6.05 g/m*3 6.03 C 0.13333 km/h
2252 23-04-2015 01:00:00 5.23333 C 5.91 g/m*3 5.23 C 0.13333 km/h
2253 23-04-2015 02:00:00 4.51667 C 5.8 g/m*3 4.52 C 0 km/h
2254 23-04-2015 03:00:00 3.99167 C 5.75 g/m*3 3.99 C 0.13333 km/h
2255 23-04-2015 04:00:00 3.44167 C 5.63 g/m*3 3.44 C 0 km/h
2256 23-04-2015 05:00:00 2.85 C 5.49 g/m*3 2.85 C 0 km/h
2257 23-04-2015 06:00:00 2.35833 C 5.35 g/m*3 2.36 C 0.4 km/h
2258 23-04-2015 07:00:00 2.55833 C 5.47 g/m*3 2.56 C 0.26667 km/h
2259 23-04-2015 08:00:00 3.325 C 5.77 g/m*3 3.33 C 0 km/h
2260 23-04-2015 09:00:00 5.24167 C 6.46 g/m*3 5.24 C 0.26667 km/h
2261 23-04-2015 10:00:00 7.925 C 7.01 g/m*3 7.93 C 0.8 km/h
2262 23-04-2015 11:00:00 11.84167 C 7.47 g/m*3 11.84 C 3.61667 km/h
2263 23-04-2015 12:00:00 15.025 C 7.54 g/m*3 15.03 C 6.30833 km/h
2264 23-04-2015 13:00:00 17.65833 C 7.53 g/m*3 17.66 C 7.10833 km/h
2265 23-04-2015 14:00:00 18.95 C 6.96 g/m*3 18.95 C 7.24167 km/h
2266 23-04-2015 15:00:00 19.55 C 6.79 g/m*3 19.55 C 7.25 km/h
2267 23-04-2015 16:00:00 20.725 C 6.7 g/m*3 20.73 C 8.20833 km/h
2268 23-04-2015 17:00:00 21.16667 C 6.6 g/m*3 21.17 C 8.74167 km/h
2269 23-04-2015 18:00:00 20.84167 C 6.75 g/m*3 20.84 C 7.8 km/h
2270 23-04-2015 19:00:00 19.925 C 6.93 g/m*3 19.93 C 3.86667 km/h
2271 23-04-2015 20:00:00 14.90833 C 7.6 g/m*3 14.91 C 4.4 km/h
2272 23-04-2015 21:00:00 12.23333 C 7.32 g/m*3 12.23 C 3.06667 km/h
2273 23-04-2015 22:00:00 10.625 C 7.1 g/m*3 10.63 C 0.53333 km/h
2274 23-04-2015 23:00:00 9.25833 C 6.84 g/m*3 9.26 C 0 km/h
2275 24-04-2015 00:00:00 8.33333 C 6.77 g/m*3 8.33 C 0.13333 km/h
Sensor: Nr:Datum:Temp:Abs-Feuchte:Windchill:Wind:
Aussen-T/F 2276 24-04-2015 01:00:00 7.43333 C 6.57 g/m*3 7.43 C 0.13333 km/h
2277 24-04-2015 02:00:00 6.68333 C 6.46 g/m*3 6.68 C 0 km/h
2278 24-04-2015 03:00:00 6.10833 C 6.38 g/m*3 6.11 C 0.66667 km/h
2279 24-04-2015 04:00:00 5.35 C 6.21 g/m*3 5.35 C 0 km/h
2280 24-04-2015 05:00:00 4.725 C 6.08 g/m*3 4.72 C 0 km/h
2281 24-04-2015 06:00:00 4.25833 C 5.97 g/m*3 4.26 C 0.13333 km/h
2282 24-04-2015 07:00:00 4.43333 C 6.09 g/m*3 4.43 C 0.26667 km/h
2283 24-04-2015 08:00:00 5.53333 C 6.49 g/m*3 5.53 C 0.13333 km/h
2284 24-04-2015 09:00:00 7.93333 C 7.13 g/m*3 7.93 C 0.4 km/h
2285 24-04-2015 10:00:00 10.7 C 7.93 g/m*3 10.7 C 0.13333 km/h
2286 24-04-2015 11:00:00 15.6 C 7.91 g/m*3 15.6 C 8.05 km/h
2287 24-04-2015 12:00:00 19.09167 C 6.88 g/m*3 19.09 C 14.76667 km/h
2288 24-04-2015 13:00:00 21.25 C 6.21 g/m*3 21.25 C 13.3 km/h
2289 24-04-2015 14:00:00 22.4 C 5.74 g/m*3 22.4 C 13.16667 km/h
2290 24-04-2015 15:00:00 23.125 C 6.11 g/m*3 23.13 C 12.21667 km/h
2291 24-04-2015 16:00:00 24.225 C 5.75 g/m*3 24.23 C 13.03333 km/h
2292 24-04-2015 17:00:00 24.2 C 5.52 g/m*3 24.2 C 12.75833 km/h
2293 24-04-2015 18:00:00 23.63333 C 5.79 g/m*3 23.63 C 9.81667 km/h
2294 24-04-2015 19:00:00 21.5 C 7.04 g/m*3 21.5 C 4.00833 km/h
2295 24-04-2015 20:00:00 17.05833 C 7.25 g/m*3 17.06 C 4.13333 km/h
2296 24-04-2015 21:00:00 14.34167 C 7.01 g/m*3 14.34 C 4.4 km/h
2297 24-04-2015 22:00:00 12.875 C 6.98 g/m*3 12.88 C 0.93333 km/h
2298 24-04-2015 23:00:00 11.625 C 6.84 g/m*3 11.63 C 0 km/h
2299 25-04-2015 00:00:00 10.74167 C 6.83 g/m*3 10.74 C 0 km/h
2300 25-04-2015 01:00:00 10.025 C 6.93 g/m*3 10.03 C 0.53333 km/h
Sensor: Nr:Datum:Temp:Abs-Feuchte:Windchill:Wind:
Aussen-T/F 2301 25-04-2015 02:00:00 9.26667 C 7.01 g/m*3 9.27 C 0 km/h
2302 25-04-2015 03:00:00 9.30833 C 7.21 g/m*3 9.31 C 0.26667 km/h
2303 25-04-2015 04:00:00 9.30833 C 7.35 g/m*3 9.31 C 0.26667 km/h
2304 25-04-2015 05:00:00 9.28333 C 7.53 g/m*3 9.28 C 0 km/h
2305 25-04-2015 06:00:00 9.39167 C 7.7 g/m*3 9.39 C 0 km/h
2306 25-04-2015 07:00:00 10.21667 C 7.95 g/m*3 10.22 C 0.26667 km/h
2307 25-04-2015 08:00:00 10.99167 C 8.52 g/m*3 10.99 C 0.13333 km/h
2308 25-04-2015 09:00:00 11.80833 C 9.17 g/m*3 11.81 C 0.26667 km/h
2309 25-04-2015 10:00:00 12.51667 C 9.61 g/m*3 12.52 C 0.4 km/h
2310 25-04-2015 11:00:00 14.35833 C 10.55 g/m*3 14.36 C 3.475 km/h
2311 25-04-2015 12:00:00 15.725 C 10.61 g/m*3 15.73 C 10.20833 km/h
2312 25-04-2015 13:00:00 17.29167 C 10.58 g/m*3 17.29 C 17.16667 km/h
2313 25-04-2015 14:00:00 18.10833 C 10.18 g/m*3 18.11 C 17.03333 km/h
2314 25-04-2015 15:00:00 17.41667 C 10.05 g/m*3 17.42 C 15.16667 km/h
2315 25-04-2015 16:00:00 17.30833 C 10.48 g/m*3 17.31 C 16.36667 km/h
2316 25-04-2015 17:00:00 16.1 C 10.62 g/m*3 16.1 C 9.14167 km/h
2317 25-04-2015 18:00:00 15.39167 C 11.03 g/m*3 15.39 C 5.2 km/h
2318 25-04-2015 19:00:00 14.80833 C 10.94 g/m*3 14.81 C 3.74167 km/h
2319 25-04-2015 20:00:00 14.025 C 10.68 g/m*3 14.03 C 3.2 km/h
2320 25-04-2015 21:00:00 13.06667 C 10.27 g/m*3 13.07 C 1.73333 km/h
2321 25-04-2015 22:00:00 12.56667 C 10.07 g/m*3 12.57 C 0.93333 km/h
2322 25-04-2015 23:00:00 11.89167 C 9.83 g/m*3 11.89 C 0 km/h
2323 26-04-2015 00:00:00 11.54167 C 9.63 g/m*3 11.54 C 0 km/h
2324 26-04-2015 01:00:00 11 C 9.39 g/m*3 11 C 0 km/h
2325 26-04-2015 02:00:00 10.95 C 9.49 g/m*3 10.95 C 0 km/h
Sensor: Nr:Datum:Temp:Abs-Feuchte:Windchill:Wind:
Aussen-T/F 2326 26-04-2015 03:00:00 10.86667 C 9.47 g/m*3 10.87 C 0 km/h
2327 26-04-2015 04:00:00 10.86667 C 9.53 g/m*3 10.87 C 0 km/h
2328 26-04-2015 05:00:00 11.33333 C 9.88 g/m*3 11.33 C 0 km/h
2329 26-04-2015 06:00:00 11.40833 C 9.86 g/m*3 11.41 C 0 km/h
2330 26-04-2015 07:00:00 11.50833 C 9.95 g/m*3 11.51 C 0 km/h
2331 26-04-2015 08:00:00 12.88333 C 10.61 g/m*3 12.88 C 2.80833 km/h
2332 26-04-2015 09:00:00 14.875 C 10.69 g/m*3 14.88 C 9.14167 km/h
2333 26-04-2015 10:00:00 15.85833 C 10.64 g/m*3 15.86 C 10.625 km/h
2334 26-04-2015 11:00:00 16.75 C 10.61 g/m*3 16.75 C 10.75833 km/h
2335 26-04-2015 12:00:00 18.06667 C 10.54 g/m*3 18.07 C 14.1 km/h
2336 26-04-2015 13:00:00 18.86667 C 10.48 g/m*3 18.87 C 13.7 km/h
2337 26-04-2015 14:00:00 19.90833 C 10.08 g/m*3 19.91 C 15.16667 km/h
2338 26-04-2015 15:00:00 20.43333 C 9.85 g/m*3 20.43 C 13.15833 km/h
2339 26-04-2015 16:00:00 21.34167 C 9.62 g/m*3 21.34 C 13.7 km/h
2340 26-04-2015 17:00:00 20.46667 C 9.47 g/m*3 20.47 C 7.53333 km/h
2341 26-04-2015 18:00:00 20.51667 C 9.47 g/m*3 20.52 C 6.70833 km/h
2342 26-04-2015 19:00:00 18.5 C 10.48 g/m*3 18.5 C 2.68333 km/h
2343 26-04-2015 20:00:00 17.05 C 10.29 g/m*3 17.05 C 7.91667 km/h
2344 26-04-2015 21:00:00 15.85 C 10.58 g/m*3 15.85 C 5.09167 km/h
2345 26-04-2015 22:00:00 14.15 C 11.07 g/m*3 14.15 C 2.26667 km/h
2346 26-04-2015 23:00:00 13.275 C 10.92 g/m*3 13.28 C 0.13333 km/h
2347 27-04-2015 00:00:00 13.05833 C 10.92 g/m*3 13.06 C 0 km/h
2348 27-04-2015 01:00:00 12.94167 C 10.88 g/m*3 12.94 C 0.26667 km/h
2349 27-04-2015 02:00:00 12.75 C 10.81 g/m*3 12.75 C 3.61667 km/h
2350 27-04-2015 03:00:00 12.44167 C 10.59 g/m*3 12.44 C 1.06667 km/h
Sensor: Nr:Datum:Temp:Abs-Feuchte:Windchill:Wind:
Aussen-T/F 2351 27-04-2015 04:00:00 12.3 C 10.53 g/m*3 12.3 C 0 km/h
2352 27-04-2015 05:00:00 12.2 C 10.47 g/m*3 12.2 C 0.53333 km/h
2353 27-04-2015 06:00:00 12.10833 C 10.41 g/m*3 12.11 C 2.26667 km/h
2354 27-04-2015 07:00:00 11.65 C 10.06 g/m*3 11.65 C 9.53333 km/h
2355 27-04-2015 08:00:00 11.10833 C 9.57 g/m*3 11.11 C 3.06667 km/h
2356 27-04-2015 09:00:00 11.725 C 9.88 g/m*3 11.73 C 3.34167 km/h
2357 27-04-2015 10:00:00 11.75 C 9.76 g/m*3 11.75 C 9.55 km/h
2358 27-04-2015 11:00:00 11.10833 C 9.43 g/m*3 11.11 C 10.75 km/h
2359 27-04-2015 12:00:00 10.33333 C 9.03 g/m*3 9.38 C 8.06667 km/h
2360 27-04-2015 13:00:00 10.21667 C 9.01 g/m*3 9.9 C 5.35 km/h
2361 27-04-2015 14:00:00 10.00833 C 8.83 g/m*3 9.12 C 7.50833 km/h
2362 27-04-2015 15:00:00 9.54167 C 8.53 g/m*3 8.8 C 6.575 km/h
2363 27-04-2015 16:00:00 9.16667 C 8.27 g/m*3 8.16 C 7.39167 km/h
2364 27-04-2015 17:00:00 8.70833 C 8.02 g/m*3 8.18 C 5.35833 km/h
2365 27-04-2015 18:00:00 8.425 C 7.9 g/m*3 8.43 C 2.93333 km/h
2366 27-04-2015 19:00:00 8.10833 C 7.74 g/m*3 8.11 C 4.95 km/h
2367 27-04-2015 20:00:00 7.73333 C 7.47 g/m*3 7.73 C 4.01667 km/h
2368 27-04-2015 21:00:00 7.65833 C 7.55 g/m*3 7.66 C 2.275 km/h
2369 27-04-2015 22:00:00 7.63333 C 7.57 g/m*3 7.63 C 0.8 km/h
2370 27-04-2015 23:00:00 7.40833 C 7.52 g/m*3 7.41 C 0.26667 km/h
2371 28-04-2015 00:00:00 7.23333 C 7.47 g/m*3 7.23 C 0.53333 km/h
2372 28-04-2015 01:00:00 7.25 C 7.42 g/m*3 7.25 C 2.8 km/h
2373 28-04-2015 02:00:00 7.66667 C 7.33 g/m*3 7.67 C 4.69167 km/h
2374 28-04-2015 03:00:00 7.24167 C 7.2 g/m*3 7.24 C 2.26667 km/h
2375 28-04-2015 04:00:00 6.75 C 6.8 g/m*3 6.75 C 3.60833 km/h
Sensor: Nr:Datum:Temp:Abs-Feuchte:Windchill:Wind:
Aussen-T/F 2376 28-04-2015 05:00:00 6.13333 C 6.63 g/m*3 6.13 C 4.95 km/h
2377 28-04-2015 06:00:00 5.49167 C 6.35 g/m*3 5.49 C 3.61667 km/h
2378 28-04-2015 07:00:00 5.15833 C 6.33 g/m*3 5.16 C 1.06667 km/h
2379 28-04-2015 08:00:00 5.55833 C 6.45 g/m*3 5.56 C 1.86667 km/h
2380 28-04-2015 09:00:00 6.99167 C 6.66 g/m*3 6.99 C 1.20833 km/h
2381 28-04-2015 10:00:00 8.04167 C 6.92 g/m*3 8.04 C 2.275 km/h
2382 28-04-2015 11:00:00 10.79167 C 6.94 g/m*3 10.44 C 5.775 km/h
2383 28-04-2015 12:00:00 12.325 C 6.53 g/m*3 12.33 C 4.53333 km/h
2384 28-04-2015 13:00:00 12.69167 C 6.27 g/m*3 12.69 C 8.33333 km/h
2385 28-04-2015 14:00:00 13.16667 C 6.1 g/m*3 13.17 C 7.50833 km/h
2386 28-04-2015 15:00:00 12.99167 C 5.83 g/m*3 12.99 C 11.025 km/h
2387 28-04-2015 16:00:00 13.48333 C 6.22 g/m*3 13.48 C 11.68333 km/h
2388 28-04-2015 17:00:00 14.16667 C 5.79 g/m*3 14.17 C 16.76667 km/h
2389 28-04-2015 18:00:00 13.70833 C 5.75 g/m*3 13.71 C 9.13333 km/h
2390 28-04-2015 19:00:00 13.88333 C 5.34 g/m*3 13.88 C 7.23333 km/h
2391 28-04-2015 20:00:00 10.675 C 5.43 g/m*3 10.3 C 5.78333 km/h
2392 28-04-2015 21:00:00 7.25 C 5.89 g/m*3 7.25 C 3.46667 km/h
2393 28-04-2015 22:00:00 6.14167 C 5.69 g/m*3 6.14 C 2.26667 km/h
2394 28-04-2015 23:00:00 4.9 C 5.47 g/m*3 4.9 C 0 km/h
2395 29-04-2015 00:00:00 4.21667 C 5.37 g/m*3 4.22 C 0.8 km/h
2396 29-04-2015 01:00:00 3.375 C 5.23 g/m*3 3.38 C 0.26667 km/h
2397 29-04-2015 02:00:00 2.675 C 5.12 g/m*3 2.68 C 0.13333 km/h
2398 29-04-2015 03:00:00 2 C 4.96 g/m*3 2 C 0.26667 km/h
2399 29-04-2015 04:00:00 1.45 C 4.84 g/m*3 1.45 C 0 km/h
2400 29-04-2015 05:00:00 1.03333 C 4.76 g/m*3 1.03 C 0.26667 km/h
Sensor: Nr:Datum:Temp:Abs-Feuchte:Windchill:Wind:
Aussen-T/F 2401 29-04-2015 06:00:00 0.725 C 4.72 g/m*3 0.73 C 0 km/h
2402 29-04-2015 07:00:00 1.01667 C 4.84 g/m*3 1.02 C 0 km/h
2403 29-04-2015 08:00:00 2.29167 C 5.25 g/m*3 2.29 C 0 km/h
2404 29-04-2015 09:00:00 4.63333 C 5.74 g/m*3 4.63 C 0 km/h
2405 29-04-2015 10:00:00 7.325 C 6.35 g/m*3 7.33 C 1.2 km/h
2406 29-04-2015 11:00:00 10.49167 C 6.66 g/m*3 10.49 C 2.26667 km/h
2407 29-04-2015 12:00:00 13.5 C 6 g/m*3 13.5 C 5.75833 km/h
2408 29-04-2015 13:00:00 14.8 C 5.71 g/m*3 14.8 C 8.05833 km/h
2409 29-04-2015 14:00:00 15.15 C 5.82 g/m*3 15.15 C 8.05833 km/h
2410 29-04-2015 15:00:00 15.74167 C 5.78 g/m*3 15.74 C 6.025 km/h
2411 29-04-2015 16:00:00 15.725 C 5.99 g/m*3 15.73 C 5.35 km/h
2412 29-04-2015 17:00:00 15.49167 C 6.3 g/m*3 15.49 C 3.6 km/h
2413 29-04-2015 18:00:00 14.575 C 8.22 g/m*3 14.58 C 1.2 km/h
2414 29-04-2015 19:00:00 13.33333 C 7.57 g/m*3 13.33 C 3.60833 km/h
2415 29-04-2015 20:00:00 11.35 C 7.48 g/m*3 11.35 C 3.33333 km/h
2416 29-04-2015 21:00:00 10.10833 C 7.29 g/m*3 10.11 C 1.73333 km/h
2417 29-04-2015 22:00:00 9.30833 C 7.11 g/m*3 9.31 C 0.66667 km/h
2418 29-04-2015 23:00:00 9.025 C 7.03 g/m*3 9.03 C 1.2 km/h
2419 30-04-2015 00:00:00 8.91667 C 6.83 g/m*3 8.92 C 0.93333 km/h
2420 30-04-2015 01:00:00 8.75 C 6.86 g/m*3 8.75 C 1.2 km/h
2421 30-04-2015 02:00:00 8.35 C 6.78 g/m*3 8.35 C 1.06667 km/h
2422 30-04-2015 03:00:00 7.90833 C 6.76 g/m*3 7.91 C 0.66667 km/h
2423 30-04-2015 04:00:00 7.39167 C 6.72 g/m*3 7.39 C 0.93333 km/h
2424 30-04-2015 05:00:00 7.28333 C 6.68 g/m*3 7.28 C 1.6 km/h
2425 30-04-2015 06:00:00 7.075 C 6.79 g/m*3 7.08 C 0.26667 km/h
Sensor: Nr:Datum:Temp:Abs-Feuchte:Windchill:Wind:
Aussen-T/F 2426 30-04-2015 07:00:00 7.01667 C 6.88 g/m*3 7.02 C 1.46667 km/h
2427 30-04-2015 08:00:00 9.29167 C 7.15 g/m*3 7.34 C 12.76667 km/h
2428 30-04-2015 09:00:00 10.15 C 7.13 g/m*3 8.24 C 13.83333 km/h
2429 30-04-2015 10:00:00 11.44167 C 7.34 g/m*3 11.44 C 13.56667 km/h
2430 30-04-2015 11:00:00 12.525 C 7.64 g/m*3 12.53 C 11.025 km/h
2431 30-04-2015 12:00:00 13.45833 C 7.66 g/m*3 13.46 C 14.1 km/h
2432 30-04-2015 13:00:00 14.10833 C 8.07 g/m*3 14.11 C 16.63333 km/h
2433 30-04-2015 14:00:00 12.6 C 8.62 g/m*3 12.6 C 9.80833 km/h
2434 30-04-2015 15:00:00 11.98333 C 8.69 g/m*3 11.98 C 14.625 km/h
2435 30-04-2015 16:00:00 11.825 C 8.51 g/m*3 11.83 C 12.88333 km/h
2436 30-04-2015 17:00:00 11.175 C 8.24 g/m*3 11.18 C 12.35833 km/h
2437 30-04-2015 18:00:00 10.45833 C 7.96 g/m*3 8.74 C 12.9 km/h
2438 30-04-2015 19:00:00 10.06667 C 7.88 g/m*3 8.89 C 8.99167 km/h
2439 30-04-2015 20:00:00 9.625 C 7.93 g/m*3 9.63 C 4.15 km/h
2440 30-04-2015 21:00:00 9.01667 C 7.96 g/m*3 9.02 C 2.00833 km/h
2441 30-04-2015 22:00:00 8.48333 C 7.87 g/m*3 8.48 C 2.4 km/h
2442 30-04-2015 23:00:00 7.68333 C 7.51 g/m*3 7.68 C 1.86667 km/h
2443 01-05-2015 00:00:00 6.26667 C 6.91 g/m*3 6.27 C 1.06667 km/h
2444 01-05-2015 01:00:00 5.975 C 6.88 g/m*3 5.98 C 0.13333 km/h
2445 01-05-2015 02:00:00 5.6 C 6.72 g/m*3 5.6 C 0.66667 km/h
2446 01-05-2015 03:00:00 4.80833 C 6.37 g/m*3 4.81 C 0.13333 km/h
2447 01-05-2015 04:00:00 4.13333 C 6.09 g/m*3 4.13 C 0.13333 km/h
2448 01-05-2015 05:00:00 4.225 C 6.17 g/m*3 4.22 C 0.13333 km/h
2449 01-05-2015 06:00:00 4.325 C 6.24 g/m*3 4.33 C 0.13333 km/h
2450 01-05-2015 07:00:00 4.6 C 6.35 g/m*3 4.6 C 0.13333 km/h
Sensor: Nr:Datum:Temp:Abs-Feuchte:Windchill:Wind:
Aussen-T/F 2451 01-05-2015 08:00:00 5.125 C 6.58 g/m*3 5.13 C 0.53333 km/h
2452 01-05-2015 09:00:00 6.03333 C 6.98 g/m*3 6.03 C 0.93333 km/h
2453 01-05-2015 10:00:00 6.825 C 7.35 g/m*3 6.83 C 1.46667 km/h
2454 01-05-2015 11:00:00 7.65833 C 7.71 g/m*3 7.66 C 3.73333 km/h
2455 01-05-2015 12:00:00 9.70833 C 8.33 g/m*3 9.71 C 4.80833 km/h
2456 01-05-2015 13:00:00 12.05 C 8.29 g/m*3 12.05 C 5.89167 km/h
2457 01-05-2015 14:00:00 13.19167 C 7.04 g/m*3 13.19 C 8.2 km/h
2458 01-05-2015 15:00:00 13.30833 C 6.11 g/m*3 13.31 C 5.89167 km/h
2459 01-05-2015 16:00:00 13.21667 C 6.16 g/m*3 13.22 C 5.48333 km/h
2460 01-05-2015 17:00:00 13.15833 C 6.17 g/m*3 13.16 C 5.35 km/h
2461 01-05-2015 18:00:00 12.925 C 6.05 g/m*3 12.93 C 3.73333 km/h
2462 01-05-2015 19:00:00 11.76667 C 7.41 g/m*3 11.77 C 0.53333 km/h
2463 01-05-2015 20:00:00 9.78333 C 7.02 g/m*3 9.78 C 2 km/h
2464 01-05-2015 21:00:00 8.24167 C 6.84 g/m*3 8.24 C 2.53333 km/h
2465 01-05-2015 22:00:00 7.14167 C 6.64 g/m*3 7.14 C 0.26667 km/h
2466 01-05-2015 23:00:00 6.07273 C 6.31 g/m*3 6.07 C 0 km/h
2467 02-05-2015 00:00:00 5.725 C 6.33 g/m*3 5.73 C 0 km/h
2468 02-05-2015 01:00:00 5.43333 C 6.31 g/m*3 5.43 C 0 km/h
2469 02-05-2015 02:00:00 4.675 C 6.14 g/m*3 4.68 C 0 km/h
2470 02-05-2015 03:00:00 4.18333 C 6.01 g/m*3 4.18 C 0 km/h
2471 02-05-2015 04:00:00 3.625 C 5.83 g/m*3 3.63 C 0.13333 km/h
2472 02-05-2015 05:00:00 2.925 C 5.58 g/m*3 2.93 C 0.26667 km/h
2473 02-05-2015 06:00:00 2.95833 C 5.63 g/m*3 2.96 C 0.4 km/h
2474 02-05-2015 07:00:00 3.69167 C 5.94 g/m*3 3.69 C 3.33333 km/h
2475 02-05-2015 08:00:00 4.73333 C 6.41 g/m*3 4.73 C 1.06667 km/h
Sensor: Nr:Datum:Temp:Abs-Feuchte:Windchill:Wind:
Aussen-T/F 2476 02-05-2015 09:00:00 6.51667 C 7.03 g/m*3 6.52 C 1.6 km/h
2477 02-05-2015 10:00:00 8.61667 C 7.22 g/m*3 8.62 C 1.73333 km/h
2478 02-05-2015 11:00:00 12.04167 C 7.79 g/m*3 12.04 C 2 km/h
2479 02-05-2015 12:00:00 14.29167 C 7.64 g/m*3 14.29 C 3.86667 km/h
2480 02-05-2015 13:00:00 15.9 C 7.45 g/m*3 15.9 C 4.93333 km/h
2481 02-05-2015 14:00:00 16.60833 C 7.29 g/m*3 16.61 C 6.7 km/h
2482 02-05-2015 15:00:00 17.46667 C 7.27 g/m*3 17.47 C 4.94167 km/h
2483 02-05-2015 16:00:00 16.94167 C 7.22 g/m*3 16.94 C 2.93333 km/h
2484 02-05-2015 17:00:00 16.46667 C 7.35 g/m*3 16.47 C 3.06667 km/h
2485 02-05-2015 18:00:00 16.05 C 7.82 g/m*3 16.05 C 3.075 km/h
2486 02-05-2015 19:00:00 14.70833 C 8.95 g/m*3 14.71 C 0.4 km/h
2487 02-05-2015 20:00:00 12.75 C 8.89 g/m*3 12.75 C 1.06667 km/h
2488 02-05-2015 21:00:00 10.74167 C 8.24 g/m*3 10.74 C 3.46667 km/h
2489 02-05-2015 22:00:00 10.20833 C 8.1 g/m*3 10.21 C 2.13333 km/h
2490 02-05-2015 23:00:00 10.09167 C 8.29 g/m*3 10.09 C 0 km/h
2491 03-05-2015 00:00:00 10.31667 C 8.48 g/m*3 10.32 C 0 km/h
2492 03-05-2015 01:00:00 10.41667 C 8.65 g/m*3 10.42 C 0 km/h
2493 03-05-2015 02:00:00 10.475 C 8.72 g/m*3 10.48 C 0 km/h
2494 03-05-2015 03:00:00 10.36667 C 8.78 g/m*3 10.37 C 0.66667 km/h
2495 03-05-2015 04:00:00 10.575 C 8.97 g/m*3 10.58 C 0.26667 km/h
2496 03-05-2015 05:00:00 10.68333 C 9.03 g/m*3 10.68 C 0 km/h
2497 03-05-2015 06:00:00 10.73333 C 9.15 g/m*3 10.73 C 0 km/h
2498 03-05-2015 07:00:00 11.23333 C 9.41 g/m*3 11.23 C 0 km/h
2499 03-05-2015 08:00:00 12.16667 C 9.91 g/m*3 12.17 C 1.06667 km/h
2500 03-05-2015 09:00:00 13.65833 C 10.53 g/m*3 13.66 C 4.13333 km/h
Sensor: Nr:Datum:Temp:Abs-Feuchte:Windchill:Wind:
Aussen-T/F 2501 03-05-2015 10:00:00 14.825 C 10.85 g/m*3 14.83 C 5.225 km/h
2502 03-05-2015 11:00:00 16.39167 C 11.4 g/m*3 16.39 C 5.475 km/h
2503 03-05-2015 12:00:00 16.88333 C 11.71 g/m*3 16.88 C 5.075 km/h
2504 03-05-2015 13:00:00 17.63333 C 12.05 g/m*3 17.63 C 6.71667 km/h
2505 03-05-2015 14:00:00 17.6 C 12.12 g/m*3 17.6 C 8.04167 km/h
2506 03-05-2015 15:00:00 16.95833 C 12.57 g/m*3 16.96 C 1.86667 km/h
2507 03-05-2015 16:00:00 15.83333 C 12.35 g/m*3 15.83 C 1.2 km/h
2508 03-05-2015 17:00:00 15.65 C 12.53 g/m*3 15.65 C 0.13333 km/h
2509 03-05-2015 18:00:00 15.4375 C 12.41 g/m*3 15.44 C 0 km/h
2510 03-05-2015 19:00:00 15.06 C 12.3 g/m*3 15.06 C 0 km/h
2511 03-05-2015 20:00:00 15.125 C 12.4 g/m*3 15.13 C 0 km/h
2512 03-05-2015 21:00:00 14.9 C 12.24 g/m*3 14.9 C 2.13333 km/h
2513 03-05-2015 22:00:00 14.99167 C 12.22 g/m*3 14.99 C 3.875 km/h
2514 03-05-2015 23:00:00 14.675 C 11.89 g/m*3 14.68 C 2.8 km/h
2515 04-05-2015 00:00:00 14.51667 C 11.74 g/m*3 14.52 C 1.73333 km/h
2516 04-05-2015 01:00:00 13.74167 C 11.34 g/m*3 13.74 C 0.8 km/h
2517 04-05-2015 02:00:00 13.76667 C 11.41 g/m*3 13.77 C 0.93333 km/h
2518 04-05-2015 03:00:00 13.11667 C 10.97 g/m*3 13.12 C 0.4 km/h
2519 04-05-2015 04:00:00 12.56667 C 10.61 g/m*3 12.57 C 0 km/h
2520 04-05-2015 05:00:00 12.21667 C 10.43 g/m*3 12.22 C 0.13333 km/h
2521 04-05-2015 06:00:00 12.11667 C 10.4 g/m*3 12.12 C 0.13333 km/h
2522 04-05-2015 07:00:00 12.525 C 10.68 g/m*3 12.53 C 0 km/h
2523 04-05-2015 08:00:00 13.25 C 11.17 g/m*3 13.25 C 0.93333 km/h
2524 04-05-2015 09:00:00 14.41667 C 11.57 g/m*3 14.42 C 5.76667 km/h
2525 04-05-2015 10:00:00 15.33333 C 11.14 g/m*3 15.33 C 5.90833 km/h
Sensor: Nr:Datum:Temp:Abs-Feuchte:Windchill:Wind:
Aussen-T/F 2526 04-05-2015 11:00:00 18.20833 C 10.61 g/m*3 18.21 C 12.9 km/h
2527 04-05-2015 12:00:00 19.54167 C 10.05 g/m*3 19.54 C 13.01667 km/h
2528 04-05-2015 13:00:00 21.26667 C 10.12 g/m*3 21.27 C 12.63333 km/h
2529 04-05-2015 14:00:00 22.3 C 10.15 g/m*3 22.3 C 12.35833 km/h
2530 04-05-2015 15:00:00 22.78333 C 10.01 g/m*3 22.78 C 10.36667 km/h
2531 04-05-2015 16:00:00 23.05 C 10.05 g/m*3 23.05 C 7.65833 km/h
2532 04-05-2015 17:00:00 21.93333 C 12.07 g/m*3 21.93 C 1.475 km/h
2533 04-05-2015 18:00:00 20.125 C 12.72 g/m*3 20.13 C 1.2 km/h
2534 04-05-2015 19:00:00 18.7 C 12.79 g/m*3 18.7 C 0.93333 km/h
2535 04-05-2015 20:00:00 17.025 C 12.05 g/m*3 17.02 C 2.26667 km/h
2536 04-05-2015 21:00:00 16.05833 C 11.82 g/m*3 16.06 C 2 km/h
2537 04-05-2015 22:00:00 15.325 C 12.07 g/m*3 15.33 C 1.73333 km/h
2538 04-05-2015 23:00:00 14.96667 C 12.03 g/m*3 14.97 C 1.33333 km/h
2539 05-05-2015 00:00:00 15.06667 C 12.17 g/m*3 15.07 C 2 km/h
2540 05-05-2015 01:00:00 16.1 C 12.5 g/m*3 16.1 C 5.08333 km/h
2541 05-05-2015 02:00:00 15.88333 C 12.31 g/m*3 15.88 C 3.06667 km/h
2542 05-05-2015 03:00:00 15.66667 C 12.25 g/m*3 15.67 C 2.4 km/h
2543 05-05-2015 04:00:00 15.28333 C 12.12 g/m*3 15.28 C 2 km/h
2544 05-05-2015 05:00:00 15.275 C 12.12 g/m*3 15.28 C 1.2 km/h
2545 05-05-2015 06:00:00 16.025 C 12.52 g/m*3 16.02 C 3.06667 km/h
2546 05-05-2015 07:00:00 16.025 C 12.69 g/m*3 16.02 C 1.46667 km/h
2547 05-05-2015 08:00:00 16.51667 C 13.24 g/m*3 16.52 C 0.26667 km/h
2548 05-05-2015 09:00:00 17.19167 C 13.86 g/m*3 17.19 C 0.26667 km/h
2549 05-05-2015 10:00:00 19.08333 C 14.27 g/m*3 19.08 C 4.40833 km/h
2550 05-05-2015 11:00:00 22.29167 C 13.24 g/m*3 22.29 C 14.475 km/h
Sensor: Nr:Datum:Temp:Abs-Feuchte:Windchill:Wind:
Aussen-T/F 2551 05-05-2015 12:00:00 24.2 C 12.29 g/m*3 24.2 C 16.23333 km/h
2552 05-05-2015 13:00:00 24.51667 C 11.28 g/m*3 24.52 C 20.24167 km/h
2553 05-05-2015 14:00:00 24.35833 C 10.71 g/m*3 24.36 C 28.14167 km/h
2554 05-05-2015 15:00:00 24.11667 C 10.17 g/m*3 24.12 C 26.68333 km/h
2555 05-05-2015 16:00:00 22.53333 C 10.26 g/m*3 22.53 C 21.71667 km/h
2556 05-05-2015 17:00:00 20.54167 C 10.15 g/m*3 20.54 C 15.83333 km/h
2557 05-05-2015 18:00:00 20.55833 C 9.89 g/m*3 20.56 C 13.03333 km/h
2558 05-05-2015 19:00:00 19.19167 C 9.63 g/m*3 19.19 C 7.775 km/h
2559 05-05-2015 20:00:00 17.76667 C 9.83 g/m*3 17.77 C 4.825 km/h
2560 05-05-2015 21:00:00 16.6 C 9.63 g/m*3 16.6 C 2.93333 km/h
2561 05-05-2015 22:00:00 14.65833 C 9.07 g/m*3 14.66 C 1.73333 km/h
2562 05-05-2015 23:00:00 13.35833 C 8.88 g/m*3 13.36 C 0.66667 km/h
2563 06-05-2015 00:00:00 11.925 C 8.64 g/m*3 11.93 C 0.26667 km/h
2564 06-05-2015 01:00:00 10.90833 C 8.43 g/m*3 10.91 C 0 km/h
2565 06-05-2015 02:00:00 10.25 C 8.28 g/m*3 10.25 C 0 km/h
2566 06-05-2015 03:00:00 9.625 C 8.14 g/m*3 9.63 C 0 km/h
2567 06-05-2015 04:00:00 9.2 C 8.08 g/m*3 9.2 C 0 km/h
2568 06-05-2015 05:00:00 8.95 C 8.04 g/m*3 8.95 C 0 km/h
2569 06-05-2015 06:00:00 8.50833 C 7.9 g/m*3 8.51 C 0 km/h
2570 06-05-2015 07:00:00 8.84167 C 8.12 g/m*3 8.84 C 0 km/h
2571 06-05-2015 08:00:00 10.11667 C 8.48 g/m*3 10.12 C 2.275 km/h
2572 06-05-2015 09:00:00 12.875 C 7.97 g/m*3 12.88 C 11.825 km/h
2573 06-05-2015 10:00:00 14.14167 C 7.02 g/m*3 14.14 C 16.1 km/h
2574 06-05-2015 11:00:00 15.85833 C 6.79 g/m*3 15.86 C 15.3 km/h
2575 06-05-2015 12:00:00 16.60833 C 7.13 g/m*3 16.61 C 17.43333 km/h
Sensor: Nr:Datum:Temp:Abs-Feuchte:Windchill:Wind:
Aussen-T/F 2576 06-05-2015 13:00:00 17.39167 C 7.33 g/m*3 17.39 C 17.30833 km/h
2577 06-05-2015 14:00:00 18.19167 C 7.39 g/m*3 18.19 C 14.225 km/h
2578 06-05-2015 15:00:00 18.75 C 7.24 g/m*3 18.75 C 18.5 km/h
2579 06-05-2015 16:00:00 19.05 C 7.04 g/m*3 19.05 C 20.50833 km/h
2580 06-05-2015 17:00:00 17.36667 C 7.3 g/m*3 17.37 C 21.31667 km/h
2581 06-05-2015 18:00:00 15.69167 C 7.82 g/m*3 15.69 C 17.975 km/h
2582 06-05-2015 19:00:00 16.15 C 7.63 g/m*3 16.15 C 12.09167 km/h
2583 06-05-2015 20:00:00 15.04167 C 8.05 g/m*3 15.04 C 3.34167 km/h
2584 06-05-2015 21:00:00 12.7 C 7.93 g/m*3 12.7 C 1.33333 km/h
2585 06-05-2015 22:00:00 11.88333 C 7.83 g/m*3 11.88 C 1.73333 km/h
2586 06-05-2015 23:00:00 10.53333 C 7.98 g/m*3 10.53 C 0.53333 km/h
2587 07-05-2015 00:00:00 10.175 C 7.98 g/m*3 10.18 C 0.8 km/h
2588 07-05-2015 01:00:00 10.36667 C 7.94 g/m*3 10.37 C 3.33333 km/h
2589 07-05-2015 02:00:00 10.51667 C 7.9 g/m*3 10.52 C 3.73333 km/h
2590 07-05-2015 03:00:00 10.1 C 7.86 g/m*3 10.1 C 2.675 km/h
2591 07-05-2015 04:00:00 9.39167 C 7.78 g/m*3 9.39 C 2 km/h
2592 07-05-2015 05:00:00 9.58333 C 7.78 g/m*3 9.58 C 2.8 km/h
2593 07-05-2015 06:00:00 9.175 C 7.7 g/m*3 9.18 C 2.53333 km/h
2594 07-05-2015 07:00:00 9.9 C 7.9 g/m*3 8.64 C 9.275 km/h
2595 07-05-2015 08:00:00 10.59167 C 7.94 g/m*3 9.53 C 8.875 km/h
2596 07-05-2015 09:00:00 11.78333 C 7.84 g/m*3 11.78 C 11.55833 km/h
2597 07-05-2015 10:00:00 13.34167 C 7.64 g/m*3 13.34 C 12.49167 km/h
2598 07-05-2015 11:00:00 14.875 C 7.31 g/m*3 14.88 C 13.7 km/h
2599 07-05-2015 12:00:00 16.025 C 6.96 g/m*3 16.02 C 15.7 km/h
2600 07-05-2015 13:00:00 17.03333 C 6.75 g/m*3 17.03 C 11.55833 km/h
Sensor: Nr:Datum:Temp:Abs-Feuchte:Windchill:Wind:
Aussen-T/F 2601 07-05-2015 14:00:00 17.63333 C 6.56 g/m*3 17.63 C 10.9 km/h
2602 07-05-2015 15:00:00 18.525 C 6.77 g/m*3 18.52 C 12.9 km/h
2603 07-05-2015 16:00:00 19.30833 C 6.82 g/m*3 19.31 C 14.36667 km/h
2604 07-05-2015 17:00:00 19.70833 C 6.61 g/m*3 19.71 C 11.825 km/h
2605 07-05-2015 18:00:00 17.975 C 6.48 g/m*3 17.98 C 7.66667 km/h
2606 07-05-2015 19:00:00 17.75 C 6.6 g/m*3 17.75 C 7.24167 km/h
2607 07-05-2015 20:00:00 14.575 C 7.35 g/m*3 14.58 C 2.13333 km/h
2608 07-05-2015 21:00:00 11.93333 C 7.34 g/m*3 11.93 C 0.4 km/h
2609 07-05-2015 22:00:00 10.51667 C 7.18 g/m*3 10.52 C 0 km/h
2610 07-05-2015 23:00:00 9.8 C 7.11 g/m*3 9.8 C 0 km/h
2611 08-05-2015 00:00:00 8.75 C 6.83 g/m*3 8.75 C 0 km/h
2612 08-05-2015 01:00:00 8.725 C 7.02 g/m*3 8.73 C 0 km/h
2613 08-05-2015 02:00:00 8.51667 C 7.07 g/m*3 8.52 C 0 km/h
2614 08-05-2015 03:00:00 8.35833 C 7.19 g/m*3 8.36 C 0 km/h
2615 08-05-2015 04:00:00 8.19167 C 7.23 g/m*3 8.19 C 0 km/h
2616 08-05-2015 05:00:00 8.03333 C 7.22 g/m*3 8.03 C 0 km/h
2617 08-05-2015 06:00:00 7.9 C 7.26 g/m*3 7.9 C 0 km/h
2618 08-05-2015 07:00:00 8.4 C 7.53 g/m*3 8.4 C 0 km/h
2619 08-05-2015 08:00:00 10.11667 C 8.01 g/m*3 10.12 C 0 km/h
2620 08-05-2015 09:00:00 12.225 C 8.31 g/m*3 12.23 C 0.4 km/h
2621 08-05-2015 10:00:00 14.91667 C 8.7 g/m*3 14.92 C 3.46667 km/h
2622 08-05-2015 11:00:00 18.525 C 8.82 g/m*3 18.52 C 6.3 km/h
2623 08-05-2015 12:00:00 19.89167 C 8 g/m*3 19.89 C 9.825 km/h
2624 08-05-2015 13:00:00 21.35 C 8.15 g/m*3 21.35 C 7.94167 km/h
2625 08-05-2015 14:00:00 22.05 C 8.27 g/m*3 22.05 C 7.375 km/h
Sensor: Nr:Datum:Temp:Abs-Feuchte:Windchill:Wind:
Aussen-T/F 2626 08-05-2015 15:00:00 23.03333 C 8.24 g/m*3 23.03 C 7.25833 km/h
2627 08-05-2015 16:00:00 22.625 C 8.2 g/m*3 22.63 C 3.46667 km/h
2628 08-05-2015 17:00:00 21.05833 C 9.47 g/m*3 21.06 C 2 km/h
2629 08-05-2015 18:00:00 18.88333 C 9.08 g/m*3 18.88 C 1.73333 km/h
2630 08-05-2015 19:00:00 16.91667 C 9.55 g/m*3 16.92 C 0.53333 km/h
2631 08-05-2015 20:00:00 15.50833 C 9.46 g/m*3 15.51 C 1.2 km/h
2632 08-05-2015 21:00:00 15.10833 C 9.3 g/m*3 15.11 C 0.66667 km/h
2633 08-05-2015 22:00:00 14.51667 C 9.56 g/m*3 14.52 C 0.13333 km/h
2634 08-05-2015 23:00:00 13.59167 C 9.39 g/m*3 13.59 C 0 km/h
2635 09-05-2015 00:00:00 12.38333 C 8.9 g/m*3 12.38 C 0 km/h
2636 09-05-2015 01:00:00 11.25833 C 8.51 g/m*3 11.26 C 0 km/h
2637 09-05-2015 02:00:00 10.96667 C 8.55 g/m*3 10.97 C 0 km/h
2638 09-05-2015 03:00:00 10.825 C 8.66 g/m*3 10.83 C 0 km/h
2639 09-05-2015 04:00:00 10.79167 C 8.64 g/m*3 10.79 C 0.66667 km/h
2640 09-05-2015 05:00:00 10.59167 C 8.68 g/m*3 10.59 C 0 km/h
2641 09-05-2015 06:00:00 10.71667 C 8.93 g/m*3 10.72 C 0 km/h
2642 09-05-2015 07:00:00 12.11667 C 9.64 g/m*3 12.12 C 3.48333 km/h
2643 09-05-2015 08:00:00 14.975 C 10.62 g/m*3 14.98 C 9.68333 km/h
2644 09-05-2015 09:00:00 16.08333 C 10.87 g/m*3 16.08 C 9.81667 km/h
2645 09-05-2015 10:00:00 16.93333 C 11.07 g/m*3 16.93 C 12.76667 km/h
2646 09-05-2015 11:00:00 18.24167 C 10.96 g/m*3 18.24 C 13.825 km/h
2647 09-05-2015 12:00:00 18.38333 C 10.62 g/m*3 18.38 C 14.36667 km/h
2648 09-05-2015 13:00:00 19.55833 C 10.44 g/m*3 19.56 C 15.16667 km/h
2649 09-05-2015 14:00:00 21.275 C 9.83 g/m*3 21.28 C 18.5 km/h
2650 09-05-2015 15:00:00 21.8 C 9.24 g/m*3 21.8 C 16.1 km/h
Sensor: Nr:Datum:Temp:Abs-Feuchte:Windchill:Wind:
Aussen-T/F 2651 09-05-2015 16:00:00 21.38333 C 9.05 g/m*3 21.38 C 18.25 km/h
2652 09-05-2015 17:00:00 20.88333 C 8.98 g/m*3 20.88 C 16.63333 km/h
2653 09-05-2015 18:00:00 20.24167 C 8.49 g/m*3 20.24 C 13.69167 km/h
2654 09-05-2015 19:00:00 16.34167 C 10.16 g/m*3 16.34 C 11 km/h
2655 09-05-2015 20:00:00 13.93333 C 10.73 g/m*3 13.93 C 2.8 km/h
2656 09-05-2015 21:00:00 12.55 C 10.31 g/m*3 12.55 C 2 km/h
2657 09-05-2015 22:00:00 12.125 C 9.94 g/m*3 12.13 C 2.66667 km/h
2658 09-05-2015 23:00:00 11.5 C 9.55 g/m*3 11.5 C 2.53333 km/h
2659 10-05-2015 00:00:00 11.025 C 9.24 g/m*3 11.03 C 1.06667 km/h
2660 10-05-2015 01:00:00 10.58333 C 9.06 g/m*3 10.58 C 2 km/h
2661 10-05-2015 02:00:00 10.3 C 8.87 g/m*3 10.3 C 0.66667 km/h
2662 10-05-2015 03:00:00 9.84167 C 8.67 g/m*3 9.84 C 1.06667 km/h
2663 10-05-2015 04:00:00 10.21667 C 8.58 g/m*3 10.22 C 3.06667 km/h
2664 10-05-2015 05:00:00 9.44167 C 8.24 g/m*3 9.44 C 1.46667 km/h
2665 10-05-2015 06:00:00 9.21667 C 8.29 g/m*3 9.22 C 2.26667 km/h
2666 10-05-2015 07:00:00 10.11667 C 8.63 g/m*3 9.56 C 6.15833 km/h
2667 10-05-2015 08:00:00 11.225 C 9.11 g/m*3 11.23 C 8.475 km/h
2668 10-05-2015 09:00:00 12.75 C 9.43 g/m*3 12.75 C 4.93333 km/h
2669 10-05-2015 10:00:00 14.5 C 9.18 g/m*3 14.5 C 5.225 km/h
2670 10-05-2015 11:00:00 16.53333 C 9.65 g/m*3 16.53 C 6.29167 km/h
2671 10-05-2015 12:00:00 16.925 C 9.51 g/m*3 16.93 C 3.33333 km/h
2672 10-05-2015 13:00:00 18.13333 C 9.68 g/m*3 18.13 C 3.86667 km/h
2673 10-05-2015 14:00:00 20.26667 C 9.43 g/m*3 20.27 C 6.85 km/h
2674 10-05-2015 15:00:00 21.16667 C 9.34 g/m*3 21.17 C 7.51667 km/h
2675 10-05-2015 16:00:00 22.11667 C 9.05 g/m*3 22.12 C 7.79167 km/h
Sensor: Nr:Datum:Temp:Abs-Feuchte:Windchill:Wind:
Aussen-T/F 2676 10-05-2015 17:00:00 22.48333 C 8.96 g/m*3 22.48 C 5.9 km/h
2677 10-05-2015 18:00:00 21.45833 C 9.01 g/m*3 21.46 C 4.80833 km/h
2678 10-05-2015 19:00:00 19.90833 C 10.6 g/m*3 19.91 C 1.33333 km/h
2679 10-05-2015 20:00:00 16.6 C 10.58 g/m*3 16.6 C 0.8 km/h
2680 10-05-2015 21:00:00 14.25 C 9.71 g/m*3 14.25 C 1.6 km/h
2681 10-05-2015 22:00:00 13.25833 C 9.35 g/m*3 13.26 C 0.13333 km/h
2682 10-05-2015 23:00:00 12.45833 C 9.15 g/m*3 12.46 C 0.26667 km/h
2683 11-05-2015 00:00:00 11.5 C 8.93 g/m*3 11.5 C 0.53333 km/h
2684 11-05-2015 01:00:00 11.35833 C 8.92 g/m*3 11.36 C 0 km/h
2685 11-05-2015 02:00:00 10.50833 C 8.6 g/m*3 10.51 C 0 km/h
2686 11-05-2015 03:00:00 9.60833 C 8.39 g/m*3 9.61 C 0 km/h
2687 11-05-2015 04:00:00 9.2 C 8.29 g/m*3 9.2 C 0 km/h
2688 11-05-2015 05:00:00 8.71667 C 8.1 g/m*3 8.72 C 0 km/h
2689 11-05-2015 06:00:00 8.76667 C 8.19 g/m*3 8.77 C 0 km/h
2690 11-05-2015 07:00:00 9.8 C 8.72 g/m*3 9.8 C 0 km/h
2691 11-05-2015 08:00:00 11.40833 C 9.29 g/m*3 11.41 C 0 km/h
2692 11-05-2015 09:00:00 13.575 C 9.68 g/m*3 13.58 C 0 km/h
2693 11-05-2015 10:00:00 15.975 C 10.69 g/m*3 15.98 C 0 km/h
2694 11-05-2015 11:00:00 19.825 C 10.96 g/m*3 19.83 C 4.13333 km/h
2695 11-05-2015 12:00:00 22.25833 C 11.33 g/m*3 22.26 C 5.48333 km/h
2696 11-05-2015 13:00:00 23.95833 C 11.45 g/m*3 23.96 C 5.88333 km/h
2697 11-05-2015 14:00:00 24.425 C 11.76 g/m*3 24.43 C 6.16667 km/h
2698 11-05-2015 15:00:00 26.49167 C 11.74 g/m*3 26.49 C 6.975 km/h
2699 11-05-2015 16:00:00 26.64167 C 11.31 g/m*3 26.64 C 6.58333 km/h
2700 11-05-2015 17:00:00 26.11667 C 11.93 g/m*3 26.12 C 5.21667 km/h
Sensor: Nr:Datum:Temp:Abs-Feuchte:Windchill:Wind:
Aussen-T/F 2701 11-05-2015 18:00:00 26.43333 C 12.72 g/m*3 26.43 C 3.875 km/h
2702 11-05-2015 19:00:00 22.76667 C 13.45 g/m*3 22.77 C 1.6 km/h
2703 11-05-2015 20:00:00 20.06667 C 12.56 g/m*3 20.07 C 2.13333 km/h
2704 11-05-2015 21:00:00 18.625 C 11.94 g/m*3 18.63 C 1.33333 km/h
2705 11-05-2015 22:00:00 17.16667 C 11.47 g/m*3 17.17 C 0.13333 km/h
2706 11-05-2015 23:00:00 15.88333 C 11.12 g/m*3 15.88 C 0 km/h
2707 12-05-2015 00:00:00 14.79167 C 10.74 g/m*3 14.79 C 0 km/h
2708 12-05-2015 01:00:00 14 C 10.58 g/m*3 14 C 0 km/h
2709 12-05-2015 02:00:00 13.625 C 10.56 g/m*3 13.63 C 0 km/h
2710 12-05-2015 03:00:00 13.29167 C 10.46 g/m*3 13.29 C 0.13333 km/h
2711 12-05-2015 04:00:00 12.975 C 10.4 g/m*3 12.98 C 0.13333 km/h
2712 12-05-2015 05:00:00 12.95833 C 10.43 g/m*3 12.96 C 0.13333 km/h
2713 12-05-2015 06:00:00 12.94167 C 10.45 g/m*3 12.94 C 0 km/h
2714 12-05-2015 07:00:00 13.61667 C 10.88 g/m*3 13.62 C 0.4 km/h
2715 12-05-2015 08:00:00 15.33333 C 11.41 g/m*3 15.33 C 1.06667 km/h
2716 12-05-2015 09:00:00 17.5 C 12.51 g/m*3 17.5 C 0.26667 km/h
2717 12-05-2015 10:00:00 19.75833 C 13.8 g/m*3 19.76 C 0.66667 km/h
2718 12-05-2015 11:00:00 23.09167 C 13.6 g/m*3 23.09 C 10.04167 km/h
2719 12-05-2015 12:00:00 25.33333 C 13.11 g/m*3 25.33 C 15.03333 km/h
2720 12-05-2015 13:00:00 27.10833 C 13.18 g/m*3 27.11 C 15.3 km/h
2721 12-05-2015 14:00:00 27.20833 C 13.58 g/m*3 27.21 C 10.61667 km/h
2722 12-05-2015 15:00:00 24.74167 C 14.12 g/m*3 24.74 C 13.01667 km/h
2723 12-05-2015 16:00:00 20.95 C 14.76 g/m*3 20.95 C 3.06667 km/h
2724 12-05-2015 17:00:00 19.26667 C 13.35 g/m*3 19.27 C 4.425 km/h
2725 12-05-2015 18:00:00 19.25833 C 10.67 g/m*3 19.26 C 8.59167 km/h
Sensor: Nr:Datum:Temp:Abs-Feuchte:Windchill:Wind:
Aussen-T/F 2726 12-05-2015 19:00:00 19.74167 C 9.87 g/m*3 19.74 C 11.96667 km/h
2727 12-05-2015 20:00:00 18.73333 C 9.33 g/m*3 18.73 C 10.86667 km/h
2728 12-05-2015 21:00:00 16.71667 C 9.14 g/m*3 16.72 C 8.725 km/h
2729 12-05-2015 22:00:00 15.48333 C 8.12 g/m*3 15.48 C 4.425 km/h
2730 12-05-2015 23:00:00 14.31667 C 7.64 g/m*3 14.32 C 5.63333 km/h
2731 13-05-2015 00:00:00 13.25 C 7.79 g/m*3 13.25 C 4.95 km/h
2732 13-05-2015 01:00:00 11.51667 C 7.9 g/m*3 11.52 C 0.26667 km/h
2733 13-05-2015 02:00:00 10.16667 C 7.77 g/m*3 10.17 C 0.13333 km/h
2734 13-05-2015 03:00:00 8.9 C 7.53 g/m*3 8.9 C 0.13333 km/h
2735 13-05-2015 04:00:00 8.18333 C 7.4 g/m*3 8.18 C 0.4 km/h
2736 13-05-2015 05:00:00 7.25833 C 7.12 g/m*3 7.26 C 0.13333 km/h
2737 13-05-2015 06:00:00 6.80833 C 7.04 g/m*3 6.81 C 0 km/h
2738 13-05-2015 07:00:00 7.14167 C 7.27 g/m*3 7.14 C 0 km/h
2739 13-05-2015 08:00:00 8.95833 C 7.84 g/m*3 8.96 C 0 km/h
2740 13-05-2015 09:00:00 10.25 C 8.21 g/m*3 10.25 C 0 km/h
2741 13-05-2015 10:00:00 12.83333 C 8.84 g/m*3 12.83 C 1.33333 km/h
2742 13-05-2015 11:00:00 17.3 C 8.53 g/m*3 17.3 C 3.6 km/h
2743 13-05-2015 12:00:00 18.88333 C 7.98 g/m*3 18.88 C 5.35833 km/h
2744 13-05-2015 13:00:00 21.04167 C 7.79 g/m*3 21.04 C 7.09167 km/h
2745 13-05-2015 14:00:00 22.35833 C 7.18 g/m*3 22.36 C 7.10833 km/h
2746 13-05-2015 15:00:00 22.88333 C 6.43 g/m*3 22.88 C 10.075 km/h
2747 13-05-2015 16:00:00 20.575 C 8.52 g/m*3 20.58 C 1.33333 km/h
2748 13-05-2015 17:00:00 18.975 C 9.86 g/m*3 18.98 C 0.93333 km/h
2749 13-05-2015 18:00:00 17.94167 C 9.41 g/m*3 17.94 C 1.875 km/h
2750 13-05-2015 19:00:00 18.10833 C 9.28 g/m*3 18.11 C 1.46667 km/h
Sensor: Nr:Datum:Temp:Abs-Feuchte:Windchill:Wind:
Aussen-T/F 2751 13-05-2015 20:00:00 17.575 C 8.27 g/m*3 17.58 C 4.81667 km/h
2752 13-05-2015 21:00:00 16.73333 C 8.08 g/m*3 16.73 C 4.275 km/h
2753 13-05-2015 22:00:00 15.04167 C 8.25 g/m*3 15.04 C 2.26667 km/h
2754 13-05-2015 23:00:00 14.16667 C 8.36 g/m*3 14.17 C 0.8 km/h
2755 14-05-2015 00:00:00 14.175 C 8.37 g/m*3 14.18 C 2.8 km/h
2756 14-05-2015 01:00:00 13.84167 C 7.94 g/m*3 13.84 C 4.55833 km/h
2757 14-05-2015 02:00:00 13.06667 C 7.64 g/m*3 13.07 C 5.5 km/h
2758 14-05-2015 03:00:00 11.65 C 7.48 g/m*3 11.65 C 5.5 km/h
2759 14-05-2015 04:00:00 10.35 C 7.37 g/m*3 10.35 C 2.53333 km/h
2760 14-05-2015 05:00:00 9.05833 C 7.19 g/m*3 9.06 C 2.66667 km/h
2761 14-05-2015 06:00:00 8.45 C 7.17 g/m*3 8.45 C 0.93333 km/h
2762 14-05-2015 07:00:00 8.55833 C 7.32 g/m*3 8.56 C 1.46667 km/h
2763 14-05-2015 08:00:00 10.04167 C 7.72 g/m*3 10.04 C 0.93333 km/h
2764 14-05-2015 09:00:00 10.98333 C 7.87 g/m*3 10.98 C 2.4 km/h
2765 14-05-2015 10:00:00 13.125 C 8.23 g/m*3 13.13 C 3.46667 km/h
2766 14-05-2015 11:00:00 15.76667 C 8.44 g/m*3 15.77 C 3.33333 km/h
2767 14-05-2015 12:00:00 17.50833 C 8.5 g/m*3 17.51 C 4.14167 km/h
2768 14-05-2015 13:00:00 18.36667 C 8.15 g/m*3 18.37 C 4.98889 km/h
2769 14-05-2015 14:00:00 19.84167 C 8.16 g/m*3 19.84 C 6.425 km/h
2770 14-05-2015 15:00:00 21.16667 C 8.17 g/m*3 21.17 C 6.3 km/h
2771 14-05-2015 16:00:00 20 C 8.01 g/m*3 20 C 5.21667 km/h
2772 14-05-2015 17:00:00 19.475 C 9.05 g/m*3 19.48 C 3.075 km/h
2773 14-05-2015 18:00:00 16.54167 C 11.19 g/m*3 16.54 C 0.66667 km/h
2774 14-05-2015 19:00:00 14.89167 C 11.07 g/m*3 14.89 C 0.26667 km/h
2775 14-05-2015 20:00:00 13.78333 C 10.96 g/m*3 13.78 C 0.4 km/h
Sensor: Nr:Datum:Temp:Abs-Feuchte:Windchill:Wind:
Aussen-T/F 2776 14-05-2015 21:00:00 13.35 C 10.87 g/m*3 13.35 C 0.26667 km/h
2777 14-05-2015 22:00:00 13.25 C 10.92 g/m*3 13.25 C 0 km/h
2778 14-05-2015 23:00:00 13.25833 C 10.95 g/m*3 13.26 C 0 km/h
2779 15-05-2015 00:00:00 12.50833 C 10.45 g/m*3 12.51 C 0 km/h
2780 15-05-2015 01:00:00 12.63333 C 10.63 g/m*3 12.63 C 0 km/h
2781 15-05-2015 02:00:00 12.65 C 10.65 g/m*3 12.65 C 0 km/h
2782 15-05-2015 03:00:00 12.63333 C 10.64 g/m*3 12.63 C 0 km/h
2783 15-05-2015 04:00:00 12.56667 C 10.6 g/m*3 12.57 C 0 km/h
2784 15-05-2015 05:00:00 11.99167 C 10.23 g/m*3 11.99 C 0.26667 km/h
2785 15-05-2015 06:00:00 11.4 C 9.85 g/m*3 11.4 C 0.66667 km/h
2786 15-05-2015 07:00:00 11.34167 C 9.82 g/m*3 11.34 C 0 km/h
2787 15-05-2015 08:00:00 11.56667 C 9.87 g/m*3 11.57 C 0.8 km/h
2788 15-05-2015 09:00:00 12.48333 C 10.15 g/m*3 12.48 C 5.08333 km/h
2789 15-05-2015 10:00:00 12.94167 C 9.95 g/m*3 12.94 C 9.275 km/h
2790 15-05-2015 11:00:00 13.725 C 10.21 g/m*3 13.73 C 9.275 km/h
2791 15-05-2015 12:00:00 15.11667 C 10.54 g/m*3 15.12 C 10.9 km/h
2792 15-05-2015 13:00:00 17.7 C 10.88 g/m*3 17.7 C 10.1 km/h
2793 15-05-2015 14:00:00 19.13333 C 10.33 g/m*3 19.13 C 14.1 km/h
2794 15-05-2015 15:00:00 20.26667 C 10.43 g/m*3 20.27 C 13.16667 km/h
2795 15-05-2015 16:00:00 21.175 C 9.75 g/m*3 21.18 C 12.36667 km/h
2796 15-05-2015 17:00:00 21.20833 C 9.29 g/m*3 21.21 C 15.43333 km/h
2797 15-05-2015 18:00:00 20.76667 C 9.01 g/m*3 20.77 C 13.16667 km/h
2798 15-05-2015 19:00:00 19.1 C 8.65 g/m*3 19.1 C 10.625 km/h
2799 15-05-2015 20:00:00 17.08333 C 8.17 g/m*3 17.08 C 10.49167 km/h
2800 15-05-2015 21:00:00 15.03333 C 7.88 g/m*3 15.03 C 5.90833 km/h
Sensor: Nr:Datum:Temp:Abs-Feuchte:Windchill:Wind:
Aussen-T/F 2801 15-05-2015 22:00:00 13.58333 C 7.64 g/m*3 13.58 C 5.35833 km/h
2802 15-05-2015 23:00:00 12.08333 C 7.54 g/m*3 12.08 C 1.46667 km/h
2803 16-05-2015 00:00:00 10.73333 C 7.36 g/m*3 10.73 C 1.46667 km/h
2804 16-05-2015 01:00:00 9.93333 C 7.28 g/m*3 9.93 C 0.13333 km/h
2805 16-05-2015 02:00:00 8.775 C 7.2 g/m*3 8.78 C 0 km/h
2806 16-05-2015 03:00:00 8.05833 C 7.19 g/m*3 8.06 C 0.8 km/h
2807 16-05-2015 04:00:00 7.48333 C 7.09 g/m*3 7.48 C 0.53333 km/h
2808 16-05-2015 05:00:00 6.84167 C 6.93 g/m*3 6.84 C 0.4 km/h
2809 16-05-2015 06:00:00 6.525 C 6.93 g/m*3 6.53 C 1.06667 km/h
2810 16-05-2015 07:00:00 6.79167 C 7.05 g/m*3 6.79 C 1.2 km/h
2811 16-05-2015 08:00:00 9 C 7.63 g/m*3 8.55 C 5.225 km/h
2812 16-05-2015 09:00:00 11.20833 C 7.93 g/m*3 11.21 C 6.15833 km/h
2813 16-05-2015 10:00:00 12.53333 C 8.1 g/m*3 12.53 C 5.48333 km/h
2814 16-05-2015 11:00:00 13.39167 C 8.46 g/m*3 13.39 C 4.675 km/h
2815 16-05-2015 12:00:00 14.29167 C 8.38 g/m*3 14.29 C 8.05 km/h
2816 16-05-2015 13:00:00 15.11667 C 8.33 g/m*3 15.12 C 9.80833 km/h
2817 16-05-2015 14:00:00 15.175 C 8.31 g/m*3 15.18 C 12.36667 km/h
2818 16-05-2015 15:00:00 14.99167 C 8.62 g/m*3 14.99 C 9.94167 km/h
2819 16-05-2015 16:00:00 15.68333 C 9.07 g/m*3 15.68 C 5.34167 km/h
2820 16-05-2015 17:00:00 15.85833 C 9.69 g/m*3 15.86 C 5.63333 km/h
2821 16-05-2015 18:00:00 14.5 C 10.03 g/m*3 14.5 C 5.225 km/h
2822 16-05-2015 19:00:00 14.175 C 10.27 g/m*3 14.18 C 1.33333 km/h
2823 16-05-2015 20:00:00 14.425 C 10.18 g/m*3 14.43 C 5.23333 km/h
2824 16-05-2015 21:00:00 14.63333 C 9.91 g/m*3 14.63 C 7.10833 km/h
2825 16-05-2015 22:00:00 14.39167 C 9.94 g/m*3 14.39 C 4.28333 km/h
Sensor: Nr:Datum:Temp:Abs-Feuchte:Windchill:Wind:
Aussen-T/F 2826 16-05-2015 23:00:00 13.85 C 9.95 g/m*3 13.85 C 5.225 km/h
2827 17-05-2015 00:00:00 12.91667 C 9.89 g/m*3 12.92 C 1.86667 km/h
2828 17-05-2015 01:00:00 11.93333 C 9.44 g/m*3 11.93 C 1.46667 km/h
2829 17-05-2015 02:00:00 11.20833 C 8.87 g/m*3 11.21 C 2 km/h
2830 17-05-2015 03:00:00 10.5 C 8.52 g/m*3 10.5 C 1.33333 km/h
2831 17-05-2015 04:00:00 9.31667 C 8.13 g/m*3 9.32 C 0.26667 km/h
2832 17-05-2015 05:00:00 8.48333 C 7.83 g/m*3 8.48 C 0 km/h
2833 17-05-2015 06:00:00 8.225 C 7.72 g/m*3 8.23 C 0 km/h
2834 17-05-2015 07:00:00 8.68333 C 7.9 g/m*3 8.68 C 0.26667 km/h
2835 17-05-2015 08:00:00 10.71667 C 8.4 g/m*3 10.72 C 2.53333 km/h
2836 17-05-2015 09:00:00 12.33333 C 8.51 g/m*3 12.33 C 4 km/h
2837 17-05-2015 10:00:00 14.575 C 7.97 g/m*3 14.58 C 5.225 km/h
2838 17-05-2015 11:00:00 16.45 C 6.92 g/m*3 16.45 C 5.5 km/h
2839 17-05-2015 12:00:00 17.75 C 7.12 g/m*3 17.75 C 8.86667 km/h
2840 17-05-2015 13:00:00 18.15 C 7.22 g/m*3 18.15 C 6.98333 km/h
2841 17-05-2015 14:00:00 17.96667 C 7.4 g/m*3 17.97 C 7.925 km/h
2842 17-05-2015 15:00:00 18.86667 C 7.61 g/m*3 18.87 C 5.075 km/h
2843 17-05-2015 16:00:00 18.94167 C 7.88 g/m*3 18.94 C 4.15 km/h
2844 17-05-2015 17:00:00 19.225 C 8.12 g/m*3 19.23 C 3.73333 km/h
2845 17-05-2015 18:00:00 20.13333 C 7.97 g/m*3 20.13 C 4 km/h
2846 17-05-2015 19:00:00 17.59167 C 9.97 g/m*3 17.59 C 0.26667 km/h
2847 17-05-2015 20:00:00 15.63333 C 9.57 g/m*3 15.63 C 0.26667 km/h
2848 17-05-2015 21:00:00 14.79167 C 9.07 g/m*3 14.79 C 0.93333 km/h
2849 17-05-2015 22:00:00 13.55 C 8.83 g/m*3 13.55 C 1.06667 km/h
2850 17-05-2015 23:00:00 12.6 C 8.52 g/m*3 12.6 C 0.26667 km/h
Sensor: Nr:Datum:Temp:Abs-Feuchte:Windchill:Wind:
Aussen-T/F 2851 18-05-2015 00:00:00 11.41667 C 8.21 g/m*3 11.42 C 0 km/h
2852 18-05-2015 01:00:00 10.23333 C 7.85 g/m*3 10.23 C 0 km/h
2853 18-05-2015 02:00:00 9.55 C 7.75 g/m*3 9.55 C 0.26667 km/h
2854 18-05-2015 03:00:00 8.59167 C 7.59 g/m*3 8.59 C 0 km/h
2855 18-05-2015 04:00:00 7.90833 C 7.43 g/m*3 7.91 C 0 km/h
2856 18-05-2015 05:00:00 7.325 C 7.25 g/m*3 7.33 C 0.13333 km/h
2857 18-05-2015 06:00:00 7.10833 C 7.25 g/m*3 7.11 C 0 km/h
2858 18-05-2015 07:00:00 7.54167 C 7.48 g/m*3 7.54 C 0.4 km/h
2859 18-05-2015 08:00:00 9.475 C 8.2 g/m*3 9.48 C 0 km/h
2860 18-05-2015 09:00:00 11.54167 C 8.93 g/m*3 11.54 C 0.8 km/h
2861 18-05-2015 10:00:00 15.3 C 9.36 g/m*3 15.3 C 10.34167 km/h
2862 18-05-2015 11:00:00 17.9 C 8.82 g/m*3 17.9 C 15.425 km/h
2863 18-05-2015 12:00:00 18.90833 C 8.43 g/m*3 18.91 C 15.56667 km/h
2864 18-05-2015 13:00:00 20.54167 C 8.16 g/m*3 20.54 C 15.975 km/h
2865 18-05-2015 14:00:00 21.96667 C 7.75 g/m*3 21.97 C 15.96667 km/h
2866 18-05-2015 15:00:00 22.78333 C 7.31 g/m*3 22.78 C 17.84167 km/h
2867 18-05-2015 16:00:00 23.425 C 7.51 g/m*3 23.43 C 15.43333 km/h
2868 18-05-2015 17:00:00 23.39167 C 7.6 g/m*3 23.39 C 14.9 km/h
2869 18-05-2015 18:00:00 22.5 C 7.64 g/m*3 22.5 C 12.225 km/h
2870 18-05-2015 19:00:00 21.625 C 8.02 g/m*3 21.63 C 10.74167 km/h
2871 18-05-2015 20:00:00 19.625 C 8.48 g/m*3 19.63 C 3.74167 km/h
2872 18-05-2015 21:00:00 17.675 C 8.36 g/m*3 17.68 C 2.4 km/h
2873 18-05-2015 22:00:00 15.84167 C 8.64 g/m*3 15.84 C 1.6 km/h
2874 18-05-2015 23:00:00 14.43333 C 8.62 g/m*3 14.43 C 0.8 km/h
2875 19-05-2015 00:00:00 13.48333 C 8.68 g/m*3 13.48 C 3.75833 km/h
Sensor: Nr:Datum:Temp:Abs-Feuchte:Windchill:Wind:
Aussen-T/F 2876 19-05-2015 01:00:00 13.15833 C 9.01 g/m*3 13.16 C 6.44167 km/h
2877 19-05-2015 02:00:00 12.36667 C 8.52 g/m*3 12.37 C 5.9 km/h
2878 19-05-2015 03:00:00 11.72727 C 8.38 g/m*3 11.73 C 2.61818 km/h
2879 19-05-2015 06:00:00 8.25 C 7.31 g/m*3 8.25 C 4.8 km/h
2880 19-05-2015 07:00:00 8.55 C 7 g/m*3 7.91 C 5.625 km/h
2881 19-05-2015 08:00:00 10.43333 C 7.06 g/m*3 9.07 C 10.48333 km/h
2882 19-05-2015 09:00:00 11.125 C 6.93 g/m*3 11.13 C 12.23333 km/h
2883 19-05-2015 10:00:00 12.50833 C 6.96 g/m*3 12.51 C 11.83333 km/h
2884 19-05-2015 11:00:00 13.68333 C 6.65 g/m*3 13.68 C 14.35833 km/h
2885 19-05-2015 12:00:00 14.6 C 6.55 g/m*3 14.6 C 16.5 km/h
2886 19-05-2015 13:00:00 15.36667 C 6.35 g/m*3 15.37 C 15.83333 km/h
2887 19-05-2015 14:00:00 16.99167 C 6.35 g/m*3 16.99 C 18.23333 km/h
2888 19-05-2015 15:00:00 16.99167 C 6.17 g/m*3 16.99 C 15.56667 km/h
2889 19-05-2015 16:00:00 16.95833 C 6.16 g/m*3 16.96 C 15.16667 km/h
2890 19-05-2015 17:00:00 16.51667 C 6.21 g/m*3 16.52 C 13.83333 km/h
2891 19-05-2015 18:00:00 16.56667 C 6.46 g/m*3 16.57 C 12.625 km/h
2892 19-05-2015 19:00:00 16.05833 C 6.21 g/m*3 16.06 C 10.08333 km/h
2893 19-05-2015 20:00:00 14.59167 C 6.45 g/m*3 14.59 C 5.61667 km/h
2894 19-05-2015 21:00:00 13.23333 C 6.85 g/m*3 13.23 C 1.46667 km/h
2895 19-05-2015 22:00:00 11.43333 C 7.05 g/m*3 11.43 C 1.46667 km/h
2896 19-05-2015 23:00:00 11.03333 C 7.18 g/m*3 11.03 C 0.53333 km/h
2897 20-05-2015 00:00:00 10.43333 C 7.36 g/m*3 10.43 C 0.26667 km/h
2898 20-05-2015 01:00:00 10.61667 C 7.35 g/m*3 10.62 C 1.86667 km/h
2899 20-05-2015 02:00:00 10.39167 C 7.54 g/m*3 10.39 C 2.53333 km/h
2900 20-05-2015 03:00:00 9.74167 C 7.72 g/m*3 9.74 C 0.53333 km/h
Sensor: Nr:Datum:Temp:Abs-Feuchte:Windchill:Wind:
Aussen-T/F 2901 20-05-2015 04:00:00 9.21667 C 7.7 g/m*3 9.22 C 0.13333 km/h
2902 20-05-2015 05:00:00 8.825 C 7.6 g/m*3 8.82 C 2.68333 km/h
2903 20-05-2015 06:00:00 9.21667 C 7.66 g/m*3 9.22 C 0.26667 km/h
2904 20-05-2015 07:00:00 9.7 C 7.68 g/m*3 9.7 C 4 km/h
2905 20-05-2015 08:00:00 10.13333 C 7.58 g/m*3 9.45 C 6.70833 km/h
2906 20-05-2015 09:00:00 11.03333 C 7.47 g/m*3 11.03 C 9.54167 km/h
2907 20-05-2015 10:00:00 13.225 C 6.98 g/m*3 13.23 C 10.35 km/h
2908 20-05-2015 11:00:00 13.475 C 6.55 g/m*3 13.48 C 9.675 km/h
2909 20-05-2015 12:00:00 14.75833 C 6.4 g/m*3 14.76 C 7.78333 km/h
2910 20-05-2015 13:00:00 15.725 C 6.24 g/m*3 15.73 C 11.94167 km/h
2911 20-05-2015 14:00:00 14.3 C 6.76 g/m*3 14.3 C 8.6 km/h
2912 20-05-2015 15:00:00 15.95833 C 7.12 g/m*3 15.96 C 10.75 km/h
2913 20-05-2015 16:00:00 13.6 C 7.19 g/m*3 13.6 C 7.65 km/h
2914 20-05-2015 17:00:00 14.95 C 8.05 g/m*3 14.95 C 3.2 km/h
2915 20-05-2015 18:00:00 14.47778 C 7.67 g/m*3 14.48 C 3.56667 km/h
2916 20-05-2015 19:00:00 14.04167 C 7.42 g/m*3 14.04 C 5.225 km/h
2917 20-05-2015 20:00:00 13.5 C 7.46 g/m*3 13.5 C 4.00833 km/h
2918 20-05-2015 21:00:00 10.69167 C 7.28 g/m*3 10.69 C 0.66667 km/h
2919 20-05-2015 22:00:00 8.90833 C 7.03 g/m*3 8.91 C 0.66667 km/h
2920 20-05-2015 23:00:00 8.175 C 7.03 g/m*3 8.18 C 0.8 km/h
2921 21-05-2015 00:00:00 7.08333 C 6.8 g/m*3 7.08 C 0.13333 km/h
2922 21-05-2015 01:00:00 6.7 C 6.81 g/m*3 6.7 C 0.93333 km/h
2923 21-05-2015 02:00:00 5.925 C 6.6 g/m*3 5.93 C 1.46667 km/h
2924 21-05-2015 03:00:00 5.58333 C 6.54 g/m*3 5.58 C 1.46667 km/h
2925 21-05-2015 04:00:00 5.15833 C 6.39 g/m*3 5.16 C 1.6 km/h
Sensor: Nr:Datum:Temp:Abs-Feuchte:Windchill:Wind:
Aussen-T/F 2926 21-05-2015 05:00:00 4.45 C 6.14 g/m*3 4.45 C 1.06667 km/h
2927 21-05-2015 06:00:00 4.70833 C 6.3 g/m*3 3.47 C 5.775 km/h
2928 21-05-2015 07:00:00 5.575 C 6.66 g/m*3 3.9 C 7.65833 km/h
2929 21-05-2015 08:00:00 7.25 C 7.11 g/m*3 5.86 C 7.65833 km/h
2930 21-05-2015 09:00:00 9.65833 C 7.59 g/m*3 9.22 C 5.48333 km/h
2931 21-05-2015 10:00:00 12.49167 C 7.97 g/m*3 12.49 C 5.09167 km/h
2932 21-05-2015 11:00:00 13.35833 C 7.98 g/m*3 13.36 C 6.56667 km/h
2933 21-05-2015 12:00:00 15.04167 C 7.15 g/m*3 15.04 C 8.46667 km/h
2934 21-05-2015 13:00:00 16.30833 C 6.78 g/m*3 16.31 C 11.025 km/h
2935 21-05-2015 14:00:00 17.23333 C 6.46 g/m*3 17.23 C 10.60833 km/h
2936 21-05-2015 15:00:00 17.1 C 6.4 g/m*3 17.1 C 7.65833 km/h
2937 21-05-2015 16:00:00 18.375 C 6.35 g/m*3 18.38 C 8.86667 km/h
2938 21-05-2015 17:00:00 18.68333 C 6.24 g/m*3 18.68 C 8.075 km/h
2939 21-05-2015 18:00:00 18.58333 C 6.21 g/m*3 18.58 C 6.84167 km/h
2940 21-05-2015 19:00:00 18.23333 C 6.44 g/m*3 18.23 C 9.69167 km/h
2941 21-05-2015 20:00:00 15.93333 C 7.15 g/m*3 15.93 C 4.15 km/h
2942 21-05-2015 21:00:00 12.53333 C 7.55 g/m*3 12.53 C 1.86667 km/h
2943 21-05-2015 22:00:00 11.625 C 7.56 g/m*3 11.63 C 0.93333 km/h
2944 21-05-2015 23:00:00 10.99167 C 7.64 g/m*3 10.99 C 0 km/h
2945 22-05-2015 00:00:00 10.925 C 7.7 g/m*3 10.93 C 0 km/h
2946 22-05-2015 01:00:00 11.1 C 7.77 g/m*3 11.1 C 1.06667 km/h
2947 22-05-2015 02:00:00 10.73333 C 7.86 g/m*3 10.73 C 0 km/h
2948 22-05-2015 03:00:00 9.69167 C 7.75 g/m*3 9.69 C 0.13333 km/h
2949 22-05-2015 04:00:00 9.55833 C 7.81 g/m*3 9.56 C 0.26667 km/h
2950 22-05-2015 05:00:00 9.025 C 7.72 g/m*3 9.03 C 0.13333 km/h
Sensor: Nr:Datum:Temp:Abs-Feuchte:Windchill:Wind:
Aussen-T/F 2951 22-05-2015 06:00:00 8.76667 C 7.71 g/m*3 8.77 C 0 km/h
2952 22-05-2015 07:00:00 9.86667 C 8.08 g/m*3 9.87 C 1.33333 km/h
2953 22-05-2015 08:00:00 12.9 C 8.67 g/m*3 12.9 C 0.26667 km/h
2954 22-05-2015 09:00:00 13.59167 C 8.69 g/m*3 13.59 C 1.46667 km/h
2955 22-05-2015 10:00:00 15.81667 C 8.67 g/m*3 15.82 C 2.66667 km/h
2956 22-05-2015 11:00:00 18.10833 C 8.61 g/m*3 18.11 C 4.4 km/h
2957 22-05-2015 12:00:00 19.09167 C 8.14 g/m*3 19.09 C 6.29167 km/h
2958 22-05-2015 13:00:00 20.4 C 7.71 g/m*3 20.4 C 7.10833 km/h
2959 22-05-2015 14:00:00 21.525 C 7.24 g/m*3 21.53 C 7.38333 km/h
2960 22-05-2015 15:00:00 22.34167 C 6.89 g/m*3 22.34 C 5.9 km/h
2961 22-05-2015 16:00:00 22.98333 C 6.11 g/m*3 22.98 C 6.575 km/h
2962 22-05-2015 17:00:00 23.21667 C 5.91 g/m*3 23.22 C 7.38333 km/h
2963 22-05-2015 18:00:00 23.025 C 6.62 g/m*3 23.03 C 6.7 km/h
2964 22-05-2015 19:00:00 20.41667 C 7.57 g/m*3 20.42 C 2.675 km/h
2965 22-05-2015 20:00:00 19.50833 C 7.5 g/m*3 19.51 C 4.41667 km/h
2966 22-05-2015 21:00:00 16.43333 C 7.6 g/m*3 16.43 C 1.06667 km/h
2967 22-05-2015 22:00:00 14.45 C 7.83 g/m*3 14.45 C 0.93333 km/h
2968 22-05-2015 23:00:00 14.45833 C 8.29 g/m*3 14.46 C 0 km/h
2969 23-05-2015 00:00:00 13.95 C 8.47 g/m*3 13.95 C 0 km/h
2970 23-05-2015 01:00:00 13.20833 C 8.44 g/m*3 13.21 C 0 km/h
2971 23-05-2015 02:00:00 12.68333 C 8.41 g/m*3 12.68 C 0.26667 km/h
2972 23-05-2015 03:00:00 12.275 C 8.46 g/m*3 12.28 C 0 km/h
2973 23-05-2015 04:00:00 12.41667 C 8.52 g/m*3 12.42 C 0.26667 km/h
2974 23-05-2015 05:00:00 11.83333 C 8.45 g/m*3 11.83 C 0 km/h
2975 23-05-2015 06:00:00 11.875 C 8.73 g/m*3 11.88 C 0.26667 km/h
Sensor: Nr:Datum:Temp:Abs-Feuchte:Windchill:Wind:
Aussen-T/F 2976 23-05-2015 07:00:00 12.45 C 8.91 g/m*3 12.45 C 0.66667 km/h
2977 23-05-2015 08:00:00 13.35833 C 9.11 g/m*3 13.36 C 0.53333 km/h
2978 23-05-2015 09:00:00 14.5 C 9.29 g/m*3 14.5 C 3.34167 km/h
2979 23-05-2015 10:00:00 15.84167 C 9.6 g/m*3 15.84 C 4.13333 km/h
2980 23-05-2015 11:00:00 16.85 C 9.87 g/m*3 16.85 C 4.275 km/h
2981 23-05-2015 12:00:00 18.14167 C 10.15 g/m*3 18.14 C 5.75833 km/h
2982 23-05-2015 13:00:00 19.8 C 9.91 g/m*3 19.8 C 8.59167 km/h
2983 23-05-2015 14:00:00 20.26667 C 9.68 g/m*3 20.27 C 7.65833 km/h
2984 23-05-2015 15:00:00 19.51667 C 9.79 g/m*3 19.52 C 5.34167 km/h
2985 23-05-2015 16:00:00 19.76667 C 9.49 g/m*3 19.77 C 5.89167 km/h
2986 23-05-2015 17:00:00 19.56667 C 9.73 g/m*3 19.57 C 4.275 km/h
2987 23-05-2015 18:00:00 17.95833 C 10.79 g/m*3 17.96 C 0.13333 km/h
2988 23-05-2015 19:00:00 17.475 C 11.04 g/m*3 17.48 C 0 km/h
2989 23-05-2015 20:00:00 17.5 C 10.03 g/m*3 17.5 C 4.28333 km/h
2990 23-05-2015 21:00:00 17.30833 C 10.73 g/m*3 17.31 C 6.55833 km/h
2991 23-05-2015 22:00:00 16.325 C 10.83 g/m*3 16.33 C 6.44167 km/h
2992 23-05-2015 23:00:00 15.6 C 10.64 g/m*3 15.6 C 5.63333 km/h
2993 24-05-2015 00:00:00 14.95 C 10.56 g/m*3 14.95 C 3.2 km/h
2994 24-05-2015 01:00:00 14.51667 C 10.46 g/m*3 14.52 C 2 km/h
2995 24-05-2015 02:00:00 14.24167 C 10.28 g/m*3 14.24 C 3.33333 km/h
2996 24-05-2015 03:00:00 13.95833 C 10.21 g/m*3 13.96 C 1.86667 km/h
2997 24-05-2015 04:00:00 13.24167 C 10.09 g/m*3 13.24 C 0.26667 km/h
2998 24-05-2015 05:00:00 13.2 C 10.13 g/m*3 13.2 C 0.4 km/h
2999 24-05-2015 06:00:00 13.23333 C 10.17 g/m*3 13.23 C 0.13333 km/h
3000 24-05-2015 07:00:00 13.61667 C 10.21 g/m*3 13.62 C 0.93333 km/h
Sensor: Nr:Datum:Temp:Abs-Feuchte:Windchill:Wind:
Aussen-T/F 3001 24-05-2015 08:00:00 14.06667 C 10.38 g/m*3 14.07 C 3.6 km/h
3002 24-05-2015 09:00:00 14.675 C 10.43 g/m*3 14.68 C 3.46667 km/h
3003 24-05-2015 10:00:00 15.15833 C 10.5 g/m*3 15.16 C 2.53333 km/h
3004 24-05-2015 11:00:00 16.05833 C 10.78 g/m*3 16.06 C 2.8 km/h
3005 24-05-2015 12:00:00 18.25833 C 11.33 g/m*3 18.26 C 4.66667 km/h
3006 24-05-2015 13:00:00 20.51667 C 11.4 g/m*3 20.52 C 6.98333 km/h
3007 24-05-2015 14:00:00 22.1 C 11.32 g/m*3 22.1 C 6.56667 km/h
3008 24-05-2015 15:00:00 23.45 C 10.35 g/m*3 23.45 C 8.325 km/h
3009 24-05-2015 16:00:00 22.875 C 10.65 g/m*3 22.88 C 7.25 km/h
3010 24-05-2015 17:00:00 22.54167 C 10.9 g/m*3 22.54 C 3.075 km/h
3011 24-05-2015 18:00:00 22.99167 C 10.7 g/m*3 22.99 C 7.66667 km/h
3012 24-05-2015 19:00:00 20.4 C 10.64 g/m*3 20.4 C 4.81667 km/h
3013 24-05-2015 20:00:00 17.85833 C 11.58 g/m*3 17.86 C 0.8 km/h
3014 24-05-2015 21:00:00 16.21667 C 11.81 g/m*3 16.22 C 3.08333 km/h
3015 24-05-2015 22:00:00 15.21667 C 11.93 g/m*3 15.22 C 1.2 km/h
3016 24-05-2015 23:00:00 14.5125 C 11.68 g/m*3 14.51 C 0.4 km/h
3017 25-05-2015 00:00:00 13.89167 C 11.27 g/m*3 13.89 C 0.13333 km/h
3018 25-05-2015 01:00:00 13.125 C 10.86 g/m*3 13.13 C 0.4 km/h
3019 25-05-2015 02:00:00 12.475 C 10.44 g/m*3 12.48 C 0.53333 km/h
3020 25-05-2015 03:00:00 11.61667 C 9.89 g/m*3 11.62 C 0.8 km/h
3021 25-05-2015 04:00:00 10.49167 C 9.21 g/m*3 10.49 C 0.66667 km/h
3022 25-05-2015 10:00:00 15.1 C 9.89 g/m*3 15.1 C 0.53333 km/h
3023 25-05-2015 11:00:00 15.31667 C 9.98 g/m*3 15.32 C 3.35 km/h
3024 25-05-2015 12:00:00 14.65714 C 9.83 g/m*3 14.66 C 4.6 km/h
3025 25-05-2015 14:00:00 15.375 C 10.94 g/m*3 15.38 C 2 km/h
Sensor: Nr:Datum:Temp:Abs-Feuchte:Windchill:Wind:
Aussen-T/F 3026 25-05-2015 15:00:00 15.56 C 11.38 g/m*3 15.56 C 0.64 km/h
3027 25-05-2015 16:00:00 16.45 C 11.34 g/m*3 16.45 C 2.26667 km/h
3028 25-05-2015 17:00:00 15.75 C 11.05 g/m*3 15.75 C 3.61667 km/h
3029 25-05-2015 18:00:00 14.94167 C 11.56 g/m*3 14.94 C 3.75 km/h
3030 25-05-2015 19:00:00 16 C 11.58 g/m*3 16 C 2 km/h
3031 25-05-2015 22:00:00 11.725 C 9.7 g/m*3 11.73 C 4.425 km/h
3032 25-05-2015 23:00:00 12.36667 C 9.44 g/m*3 12.37 C 4.95 km/h
3033 26-05-2015 00:00:00 11.625 C 9.07 g/m*3 11.63 C 4.68333 km/h
3034 26-05-2015 01:00:00 11.575 C 8.85 g/m*3 11.58 C 5.5 km/h
3035 26-05-2015 02:00:00 11.11667 C 8.54 g/m*3 11.12 C 4.29167 km/h
3036 26-05-2015 03:00:00 10.25833 C 8.45 g/m*3 10.26 C 1.2 km/h
3037 26-05-2015 04:00:00 10.36667 C 8.37 g/m*3 10.37 C 2.26667 km/h
3038 26-05-2015 05:00:00 10.10833 C 8.14 g/m*3 10.11 C 1.73333 km/h
3039 26-05-2015 06:00:00 9.875 C 8.01 g/m*3 9.88 C 3.2 km/h
3040 26-05-2015 07:00:00 10.16667 C 8.03 g/m*3 10.17 C 4.95 km/h
3041 26-05-2015 08:00:00 10.75833 C 8.17 g/m*3 10.37 C 5.89167 km/h
3042 26-05-2015 09:00:00 12.16667 C 8.09 g/m*3 12.17 C 10.75 km/h
3043 26-05-2015 10:00:00 13.25 C 7.7 g/m*3 13.25 C 9.81667 km/h
3044 26-05-2015 11:00:00 13.23333 C 7.2 g/m*3 13.23 C 11.55833 km/h
3045 26-05-2015 12:00:00 12.725 C 6.97 g/m*3 12.73 C 10.35833 km/h
3046 26-05-2015 13:00:00 13.15 C 6.93 g/m*3 13.15 C 8.46667 km/h
3047 26-05-2015 14:00:00 14.125 C 7.04 g/m*3 14.13 C 7.10833 km/h
3048 26-05-2015 15:00:00 13.80833 C 6.9 g/m*3 13.81 C 8.06667 km/h
3049 26-05-2015 16:00:00 13.7 C 6.93 g/m*3 13.7 C 6.29167 km/h
3050 26-05-2015 17:00:00 14.01667 C 7.32 g/m*3 14.02 C 4.40833 km/h
Sensor: Nr:Datum:Temp:Abs-Feuchte:Windchill:Wind:
Aussen-T/F 3051 26-05-2015 18:00:00 13.31667 C 8.26 g/m*3 13.32 C 0.53333 km/h
3052 26-05-2015 19:00:00 12.5 C 8.74 g/m*3 12.5 C 0 km/h
3053 26-05-2015 20:00:00 11.775 C 8.66 g/m*3 11.78 C 0.13333 km/h
3054 26-05-2015 21:00:00 11.11667 C 8.4 g/m*3 11.12 C 0 km/h
3055 26-05-2015 22:00:00 10.81667 C 8.03 g/m*3 10.82 C 0.8 km/h
3056 26-05-2015 23:00:00 9.475 C 7.64 g/m*3 9.48 C 0.13333 km/h
3057 27-05-2015 00:00:00 9.1 C 7.31 g/m*3 9.1 C 0.8 km/h
3058 27-05-2015 01:00:00 8.225 C 7.09 g/m*3 8.23 C 0 km/h
3059 27-05-2015 02:00:00 7.24167 C 6.91 g/m*3 7.24 C 0.26667 km/h
3060 27-05-2015 03:00:00 6.34167 C 6.77 g/m*3 6.34 C 0.66667 km/h
3061 27-05-2015 04:00:00 6.625 C 6.94 g/m*3 6.63 C 2.66667 km/h
3062 27-05-2015 05:00:00 7.06667 C 7.08 g/m*3 7.07 C 2 km/h
3063 27-05-2015 06:00:00 7.375 C 7.23 g/m*3 7.38 C 2.13333 km/h
3064 27-05-2015 07:00:00 8.09167 C 7.51 g/m*3 8.09 C 3.89167 km/h
3065 27-05-2015 08:00:00 9.45 C 7.77 g/m*3 9.45 C 4.00833 km/h
3066 27-05-2015 09:00:00 10.70833 C 7.71 g/m*3 10.71 C 3.2 km/h
3067 27-05-2015 10:00:00 11.775 C 7.47 g/m*3 11.78 C 4.54167 km/h
3068 27-05-2015 11:00:00 12.85833 C 6.59 g/m*3 12.86 C 3.34167 km/h
3069 27-05-2015 12:00:00 13.08333 C 6.64 g/m*3 13.08 C 4.81667 km/h
3070 27-05-2015 13:00:00 14.25833 C 6.88 g/m*3 14.26 C 4.275 km/h
3071 27-05-2015 14:00:00 15.45 C 6.78 g/m*3 15.45 C 5.48333 km/h
3072 27-05-2015 15:00:00 15.625 C 6.65 g/m*3 15.63 C 3.46667 km/h
3073 27-05-2015 16:00:00 16.99167 C 6.76 g/m*3 16.99 C 6.45 km/h
3074 27-05-2015 17:00:00 17.425 C 6.68 g/m*3 17.43 C 4.40833 km/h
3075 27-05-2015 18:00:00 17.45 C 6.74 g/m*3 17.45 C 4.66667 km/h
Sensor: Nr:Datum:Temp:Abs-Feuchte:Windchill:Wind:
Aussen-T/F 3076 27-05-2015 19:00:00 16.95 C 6.66 g/m*3 16.95 C 4.80833 km/h
3077 27-05-2015 20:00:00 15.34167 C 7.43 g/m*3 15.34 C 0.93333 km/h
3078 27-05-2015 21:00:00 11.66667 C 7.68 g/m*3 11.67 C 0.13333 km/h
3079 27-05-2015 22:00:00 10.525 C 7.4 g/m*3 10.53 C 0.53333 km/h
3080 27-05-2015 23:00:00 9.725 C 7.23 g/m*3 9.73 C 0.26667 km/h
3081 28-05-2015 00:00:00 9.1 C 7.15 g/m*3 9.1 C 0 km/h
3082 28-05-2015 01:00:00 8.85 C 7.04 g/m*3 8.85 C 0 km/h
3083 28-05-2015 02:00:00 7.98333 C 6.89 g/m*3 7.98 C 0 km/h
3084 28-05-2015 03:00:00 7.60833 C 6.86 g/m*3 7.61 C 0 km/h
3085 28-05-2015 04:00:00 7.34167 C 6.93 g/m*3 7.34 C 0 km/h
3086 28-05-2015 05:00:00 7.38333 C 7.06 g/m*3 7.38 C 0.4 km/h
3087 28-05-2015 06:00:00 8.30833 C 7.38 g/m*3 8.31 C 0.66667 km/h
3088 28-05-2015 07:00:00 9.35833 C 7.79 g/m*3 9.36 C 0.93333 km/h
3089 28-05-2015 08:00:00 11.275 C 8.1 g/m*3 11.28 C 0.26667 km/h
3090 28-05-2015 09:00:00 12.35 C 8.38 g/m*3 12.35 C 0.8 km/h
3091 28-05-2015 10:00:00 14.56667 C 8.85 g/m*3 14.57 C 4.95 km/h
3092 28-05-2015 11:00:00 17.725 C 9.15 g/m*3 17.73 C 12.23333 km/h
3093 28-05-2015 12:00:00 19.26667 C 9.52 g/m*3 19.27 C 11.7 km/h
3094 28-05-2015 13:00:00 21.06667 C 9.35 g/m*3 21.07 C 14.9 km/h
3095 28-05-2015 14:00:00 19.15 C 9.07 g/m*3 19.15 C 9.26667 km/h
3096 28-05-2015 15:00:00 19.15 C 9.48 g/m*3 19.15 C 6.7 km/h
3097 28-05-2015 16:00:00 19.63333 C 9.39 g/m*3 19.63 C 12.34167 km/h
3098 28-05-2015 17:00:00 20.06667 C 9.47 g/m*3 20.07 C 10.35833 km/h
3099 28-05-2015 18:00:00 20.125 C 9.2 g/m*3 20.13 C 9.80833 km/h
3100 28-05-2015 19:00:00 19 C 8.81 g/m*3 19 C 13.83333 km/h
Sensor: Nr:Datum:Temp:Abs-Feuchte:Windchill:Wind:
Aussen-T/F 3101 28-05-2015 20:00:00 17.575 C 8.55 g/m*3 17.58 C 7.39167 km/h
3102 28-05-2015 21:00:00 15.98333 C 8.57 g/m*3 15.98 C 1.6 km/h
3103 28-05-2015 22:00:00 14.825 C 8.61 g/m*3 14.83 C 1.73333 km/h
3104 28-05-2015 23:00:00 13.575 C 8.74 g/m*3 13.58 C 0.26667 km/h
3105 29-05-2015 00:00:00 13.24167 C 9.01 g/m*3 13.24 C 0.4 km/h
3106 29-05-2015 01:00:00 12.35833 C 8.81 g/m*3 12.36 C 0.8 km/h
3107 29-05-2015 02:00:00 12.55 C 8.16 g/m*3 12.55 C 2.13333 km/h
3108 29-05-2015 03:00:00 11.21667 C 7.86 g/m*3 11.22 C 0.53333 km/h
3109 29-05-2015 04:00:00 9.525 C 7.48 g/m*3 9.53 C 0.66667 km/h
3110 29-05-2015 05:00:00 8.85 C 7.48 g/m*3 8.85 C 0.66667 km/h
3111 29-05-2015 06:00:00 8.74167 C 7.65 g/m*3 8.74 C 2.41667 km/h
3112 29-05-2015 07:00:00 9.425 C 7.96 g/m*3 9.43 C 4.15 km/h
3113 29-05-2015 08:00:00 11.43333 C 8.44 g/m*3 11.43 C 3.06667 km/h
3114 29-05-2015 09:00:00 13.74167 C 8.29 g/m*3 13.74 C 8.34167 km/h
3115 29-05-2015 10:00:00 13.29167 C 8.43 g/m*3 13.29 C 5.91667 km/h
3116 29-05-2015 11:00:00 14.34167 C 8.6 g/m*3 14.34 C 4.01667 km/h
3117 29-05-2015 12:00:00 15.64167 C 9.29 g/m*3 15.64 C 6.025 km/h
3118 29-05-2015 13:00:00 15.71667 C 9.43 g/m*3 15.72 C 8.61667 km/h
3119 29-05-2015 14:00:00 14.55455 C 9.62 g/m*3 14.55 C 6 km/h
3120 29-05-2015 15:00:00 13.66667 C 10.52 g/m*3 13.67 C 1.6 km/h
3121 29-05-2015 16:00:00 14.31667 C 10.59 g/m*3 14.32 C 7.79167 km/h
3122 29-05-2015 17:00:00 15.46667 C 10.69 g/m*3 15.47 C 10.34167 km/h
3123 29-05-2015 18:00:00 16.35 C 10.19 g/m*3 16.35 C 13.425 km/h
3124 29-05-2015 19:00:00 16.05 C 9.24 g/m*3 16.05 C 11.15 km/h
3125 29-05-2015 20:00:00 15.24167 C 8.62 g/m*3 15.24 C 9.26667 km/h
Sensor: Nr:Datum:Temp:Abs-Feuchte:Windchill:Wind:
Aussen-T/F 3126 29-05-2015 21:00:00 14.8 C 8.41 g/m*3 14.8 C 7.91667 km/h
3127 29-05-2015 22:00:00 14.4 C 8.16 g/m*3 14.4 C 4.55833 km/h
3128 29-05-2015 23:00:00 13.95 C 8.47 g/m*3 13.95 C 2.13333 km/h
3129 30-05-2015 00:00:00 13.225 C 8.57 g/m*3 13.23 C 1.2 km/h
3130 30-05-2015 01:00:00 12.20833 C 8.72 g/m*3 12.21 C 8.30833 km/h
3131 30-05-2015 02:00:00 9.88333 C 8.5 g/m*3 9.88 C 2.26667 km/h
3132 30-05-2015 03:00:00 9.40833 C 8.32 g/m*3 9.41 C 2.26667 km/h
3133 30-05-2015 04:00:00 9.125 C 8.19 g/m*3 9.13 C 2.4 km/h
3134 30-05-2015 05:00:00 9.025 C 8.01 g/m*3 9.03 C 2.13333 km/h
3135 30-05-2015 06:00:00 8.46667 C 7.92 g/m*3 8.47 C 0.4 km/h
3136 30-05-2015 07:00:00 8.94167 C 8.13 g/m*3 8.94 C 4.41667 km/h
3137 30-05-2015 08:00:00 11.15833 C 8.5 g/m*3 11.16 C 5.75833 km/h
3138 30-05-2015 09:00:00 12.14167 C 8.15 g/m*3 12.14 C 10.60833 km/h
3139 30-05-2015 10:00:00 13.21667 C 7.67 g/m*3 13.22 C 12.625 km/h
3140 30-05-2015 11:00:00 14.4 C 7.47 g/m*3 14.4 C 14.63333 km/h
3141 30-05-2015 12:00:00 15.40833 C 6.88 g/m*3 15.41 C 15.56667 km/h
3142 30-05-2015 13:00:00 16.225 C 6.74 g/m*3 16.23 C 15.56667 km/h
3143 30-05-2015 14:00:00 16.8 C 6.45 g/m*3 16.8 C 15.3 km/h
3144 30-05-2015 15:00:00 17.31667 C 6.93 g/m*3